<?xml version="1.0" encoding="UTF-8" standalone="no" ?>
<gpx xmlns="http://www.topografix.com/GPX/1/1" xmlns:xsi="http://www.w3.org/2001/XMLSchema-instance" xsi:schemaLocation="http://www.topografix.com/GPX/1/1 http://www.topografix.com/GPX/1/1/gpx.xsd" version="1.1" creator="VisuGPX - https://www.visugpx.com">
  <metadata>
    <name>Les Vans vers Salavas (La baume lardière)</name>
    <desc><![CDATA[Visite du bois de Païolive  (portant et poussant les VTT) puis grande boucle sur la baume Lardière au dessus de  Salavas et Grospierre. Alternance de grandes pistes et de singles assez roulant. Etape terrasse de café à Berrias au retour car on a manqué d\'eau avant le robinet salvateur de Beaulieu.]]></desc>
  </metadata>
  <trk>
    <name><![CDATA[(sans titre)]]></name>
    <trkseg>
      <trkpt lat="44.40664" lon="4.12957">
        <ele>189</ele>
        <time>2014-05-30T07:56:26Z</time>
      </trkpt>
      <trkpt lat="44.40684" lon="4.1297">
        <ele>192</ele>
        <time>2014-05-30T07:58:09Z</time>
      </trkpt>
      <trkpt lat="44.40722" lon="4.13004">
        <ele>190</ele>
        <time>2014-05-30T07:58:22Z</time>
      </trkpt>
      <trkpt lat="44.40715" lon="4.13037">
        <ele>189</ele>
        <time>2014-05-30T07:58:30Z</time>
      </trkpt>
      <trkpt lat="44.40691" lon="4.13058">
        <ele>188</ele>
        <time>2014-05-30T07:58:38Z</time>
      </trkpt>
      <trkpt lat="44.40664" lon="4.13077">
        <ele>184</ele>
        <time>2014-05-30T07:58:45Z</time>
      </trkpt>
      <trkpt lat="44.40637" lon="4.13094">
        <ele>181</ele>
        <time>2014-05-30T07:58:53Z</time>
      </trkpt>
      <trkpt lat="44.40616" lon="4.13117">
        <ele>180</ele>
        <time>2014-05-30T07:59:02Z</time>
      </trkpt>
      <trkpt lat="44.40596" lon="4.13139">
        <ele>179</ele>
        <time>2014-05-30T07:59:16Z</time>
      </trkpt>
      <trkpt lat="44.40586" lon="4.1316">
        <ele>177</ele>
        <time>2014-05-30T08:00:28Z</time>
      </trkpt>
      <trkpt lat="44.40596" lon="4.13166">
        <ele>178</ele>
        <time>2014-05-30T08:01:14Z</time>
      </trkpt>
      <trkpt lat="44.40607" lon="4.13223">
        <ele>176</ele>
        <time>2014-05-30T08:01:39Z</time>
      </trkpt>
      <trkpt lat="44.40577" lon="4.13188">
        <ele>177</ele>
        <time>2014-05-30T08:02:06Z</time>
      </trkpt>
      <trkpt lat="44.40584" lon="4.1317">
        <ele>176</ele>
        <time>2014-05-30T08:02:34Z</time>
      </trkpt>
      <trkpt lat="44.40582" lon="4.13154">
        <ele>177</ele>
        <time>2014-05-30T08:03:22Z</time>
      </trkpt>
      <trkpt lat="44.40581" lon="4.13117">
        <ele>179</ele>
        <time>2014-05-30T08:03:59Z</time>
      </trkpt>
      <trkpt lat="44.4057" lon="4.13112">
        <ele>179</ele>
        <time>2014-05-30T08:05:19Z</time>
      </trkpt>
      <trkpt lat="44.40604" lon="4.132">
        <ele>176</ele>
        <time>2014-05-30T08:06:26Z</time>
      </trkpt>
      <trkpt lat="44.40591" lon="4.13226">
        <ele>176</ele>
        <time>2014-05-30T08:06:41Z</time>
      </trkpt>
      <trkpt lat="44.40586" lon="4.13148">
        <ele>178</ele>
        <time>2014-05-30T08:07:56Z</time>
      </trkpt>
      <trkpt lat="44.40577" lon="4.1305">
        <ele>181</ele>
        <time>2014-05-30T08:09:23Z</time>
      </trkpt>
      <trkpt lat="44.40591" lon="4.13062">
        <ele>183</ele>
        <time>2014-05-30T08:09:28Z</time>
      </trkpt>
      <trkpt lat="44.40614" lon="4.13115">
        <ele>180</ele>
        <time>2014-05-30T08:09:42Z</time>
      </trkpt>
      <trkpt lat="44.40617" lon="4.13179">
        <ele>177</ele>
        <time>2014-05-30T08:09:49Z</time>
      </trkpt>
      <trkpt lat="44.40622" lon="4.13211">
        <ele>176</ele>
        <time>2014-05-30T08:09:56Z</time>
      </trkpt>
      <trkpt lat="44.40615" lon="4.13246">
        <ele>176</ele>
        <time>2014-05-30T08:10:03Z</time>
      </trkpt>
      <trkpt lat="44.406" lon="4.13276">
        <ele>173</ele>
        <time>2014-05-30T08:10:13Z</time>
      </trkpt>
      <trkpt lat="44.4057" lon="4.13289">
        <ele>175</ele>
        <time>2014-05-30T08:10:25Z</time>
      </trkpt>
      <trkpt lat="44.40543" lon="4.13307">
        <ele>175</ele>
        <time>2014-05-30T08:10:37Z</time>
      </trkpt>
      <trkpt lat="44.40543" lon="4.13332">
        <ele>175</ele>
        <time>2014-05-30T08:10:56Z</time>
      </trkpt>
      <trkpt lat="44.40551" lon="4.13362">
        <ele>172</ele>
        <time>2014-05-30T08:11:10Z</time>
      </trkpt>
      <trkpt lat="44.40542" lon="4.134">
        <ele>172</ele>
        <time>2014-05-30T08:11:16Z</time>
      </trkpt>
      <trkpt lat="44.40534" lon="4.1343">
        <ele>170</ele>
        <time>2014-05-30T08:11:25Z</time>
      </trkpt>
      <trkpt lat="44.40516" lon="4.13457">
        <ele>171</ele>
        <time>2014-05-30T08:11:44Z</time>
      </trkpt>
      <trkpt lat="44.40516" lon="4.13489">
        <ele>171</ele>
        <time>2014-05-30T08:11:56Z</time>
      </trkpt>
      <trkpt lat="44.40518" lon="4.1352">
        <ele>170</ele>
        <time>2014-05-30T08:12:05Z</time>
      </trkpt>
      <trkpt lat="44.40516" lon="4.13551">
        <ele>170</ele>
        <time>2014-05-30T08:12:15Z</time>
      </trkpt>
      <trkpt lat="44.40509" lon="4.13583">
        <ele>170</ele>
        <time>2014-05-30T08:12:25Z</time>
      </trkpt>
      <trkpt lat="44.405" lon="4.13616">
        <ele>172</ele>
        <time>2014-05-30T08:12:34Z</time>
      </trkpt>
      <trkpt lat="44.40492" lon="4.1365">
        <ele>172</ele>
        <time>2014-05-30T08:12:42Z</time>
      </trkpt>
      <trkpt lat="44.40485" lon="4.13683">
        <ele>174</ele>
        <time>2014-05-30T08:12:52Z</time>
      </trkpt>
      <trkpt lat="44.40476" lon="4.13713">
        <ele>175</ele>
        <time>2014-05-30T08:13:02Z</time>
      </trkpt>
      <trkpt lat="44.40462" lon="4.13743">
        <ele>176</ele>
        <time>2014-05-30T08:13:12Z</time>
      </trkpt>
      <trkpt lat="44.40441" lon="4.13764">
        <ele>179</ele>
        <time>2014-05-30T08:13:25Z</time>
      </trkpt>
      <trkpt lat="44.4042" lon="4.13783">
        <ele>180</ele>
        <time>2014-05-30T08:13:37Z</time>
      </trkpt>
      <trkpt lat="44.40423" lon="4.13816">
        <ele>183</ele>
        <time>2014-05-30T08:13:47Z</time>
      </trkpt>
      <trkpt lat="44.40426" lon="4.13849">
        <ele>184</ele>
        <time>2014-05-30T08:13:56Z</time>
      </trkpt>
      <trkpt lat="44.40421" lon="4.13882">
        <ele>183</ele>
        <time>2014-05-30T08:14:05Z</time>
      </trkpt>
      <trkpt lat="44.40413" lon="4.13912">
        <ele>188</ele>
        <time>2014-05-30T08:14:14Z</time>
      </trkpt>
      <trkpt lat="44.40404" lon="4.13942">
        <ele>191</ele>
        <time>2014-05-30T08:14:22Z</time>
      </trkpt>
      <trkpt lat="44.40396" lon="4.13973">
        <ele>191</ele>
        <time>2014-05-30T08:14:30Z</time>
      </trkpt>
      <trkpt lat="44.40388" lon="4.14005">
        <ele>187</ele>
        <time>2014-05-30T08:14:38Z</time>
      </trkpt>
      <trkpt lat="44.40378" lon="4.1404">
        <ele>188</ele>
        <time>2014-05-30T08:14:45Z</time>
      </trkpt>
      <trkpt lat="44.4037" lon="4.14072">
        <ele>188</ele>
        <time>2014-05-30T08:14:52Z</time>
      </trkpt>
      <trkpt lat="44.4037" lon="4.14105">
        <ele>187</ele>
        <time>2014-05-30T08:14:59Z</time>
      </trkpt>
      <trkpt lat="44.40384" lon="4.14133">
        <ele>186</ele>
        <time>2014-05-30T08:15:07Z</time>
      </trkpt>
      <trkpt lat="44.4041" lon="4.14145">
        <ele>186</ele>
        <time>2014-05-30T08:15:18Z</time>
      </trkpt>
      <trkpt lat="44.40438" lon="4.1413">
        <ele>187</ele>
        <time>2014-05-30T08:15:29Z</time>
      </trkpt>
      <trkpt lat="44.40467" lon="4.14113">
        <ele>187</ele>
        <time>2014-05-30T08:15:40Z</time>
      </trkpt>
      <trkpt lat="44.40493" lon="4.14097">
        <ele>187</ele>
        <time>2014-05-30T08:15:53Z</time>
      </trkpt>
      <trkpt lat="44.40521" lon="4.14087">
        <ele>192</ele>
        <time>2014-05-30T08:16:06Z</time>
      </trkpt>
      <trkpt lat="44.40551" lon="4.14084">
        <ele>194</ele>
        <time>2014-05-30T08:16:20Z</time>
      </trkpt>
      <trkpt lat="44.40583" lon="4.14082">
        <ele>193</ele>
        <time>2014-05-30T08:16:33Z</time>
      </trkpt>
      <trkpt lat="44.40615" lon="4.14088">
        <ele>197</ele>
        <time>2014-05-30T08:16:46Z</time>
      </trkpt>
      <trkpt lat="44.40646" lon="4.14095">
        <ele>196</ele>
        <time>2014-05-30T08:16:58Z</time>
      </trkpt>
      <trkpt lat="44.40676" lon="4.14101">
        <ele>194</ele>
        <time>2014-05-30T08:17:08Z</time>
      </trkpt>
      <trkpt lat="44.40705" lon="4.14113">
        <ele>194</ele>
        <time>2014-05-30T08:17:18Z</time>
      </trkpt>
      <trkpt lat="44.40679" lon="4.14143">
        <ele>198</ele>
        <time>2014-05-30T08:17:31Z</time>
      </trkpt>
      <trkpt lat="44.40648" lon="4.14149">
        <ele>202</ele>
        <time>2014-05-30T08:17:46Z</time>
      </trkpt>
      <trkpt lat="44.40619" lon="4.14156">
        <ele>201</ele>
        <time>2014-05-30T08:17:59Z</time>
      </trkpt>
      <trkpt lat="44.40593" lon="4.14171">
        <ele>209</ele>
        <time>2014-05-30T08:18:13Z</time>
      </trkpt>
      <trkpt lat="44.40572" lon="4.14193">
        <ele>208</ele>
        <time>2014-05-30T08:18:24Z</time>
      </trkpt>
      <trkpt lat="44.40555" lon="4.14219">
        <ele>210</ele>
        <time>2014-05-30T08:18:32Z</time>
      </trkpt>
      <trkpt lat="44.40536" lon="4.14245">
        <ele>210</ele>
        <time>2014-05-30T08:18:43Z</time>
      </trkpt>
      <trkpt lat="44.40518" lon="4.14271">
        <ele>222</ele>
        <time>2014-05-30T08:18:55Z</time>
      </trkpt>
      <trkpt lat="44.40502" lon="4.14299">
        <ele>226</ele>
        <time>2014-05-30T08:19:05Z</time>
      </trkpt>
      <trkpt lat="44.40488" lon="4.14326">
        <ele>219</ele>
        <time>2014-05-30T08:19:16Z</time>
      </trkpt>
      <trkpt lat="44.40475" lon="4.14354">
        <ele>225</ele>
        <time>2014-05-30T08:19:25Z</time>
      </trkpt>
      <trkpt lat="44.40462" lon="4.14383">
        <ele>225</ele>
        <time>2014-05-30T08:19:35Z</time>
      </trkpt>
      <trkpt lat="44.40449" lon="4.14413">
        <ele>224</ele>
        <time>2014-05-30T08:19:45Z</time>
      </trkpt>
      <trkpt lat="44.4044" lon="4.14442">
        <ele>235</ele>
        <time>2014-05-30T08:19:54Z</time>
      </trkpt>
      <trkpt lat="44.40434" lon="4.14473">
        <ele>237</ele>
        <time>2014-05-30T08:20:03Z</time>
      </trkpt>
      <trkpt lat="44.40426" lon="4.14503">
        <ele>238</ele>
        <time>2014-05-30T08:20:12Z</time>
      </trkpt>
      <trkpt lat="44.40416" lon="4.14532">
        <ele>225</ele>
        <time>2014-05-30T08:20:22Z</time>
      </trkpt>
      <trkpt lat="44.40407" lon="4.14563">
        <ele>229</ele>
        <time>2014-05-30T08:20:30Z</time>
      </trkpt>
      <trkpt lat="44.40401" lon="4.14593">
        <ele>236</ele>
        <time>2014-05-30T08:20:39Z</time>
      </trkpt>
      <trkpt lat="44.40394" lon="4.14622">
        <ele>236</ele>
        <time>2014-05-30T08:20:47Z</time>
      </trkpt>
      <trkpt lat="44.40388" lon="4.14653">
        <ele>238</ele>
        <time>2014-05-30T08:20:56Z</time>
      </trkpt>
      <trkpt lat="44.4038" lon="4.14682">
        <ele>248</ele>
        <time>2014-05-30T08:21:03Z</time>
      </trkpt>
      <trkpt lat="44.40364" lon="4.14712">
        <ele>249</ele>
        <time>2014-05-30T08:21:13Z</time>
      </trkpt>
      <trkpt lat="44.40344" lon="4.1474">
        <ele>249</ele>
        <time>2014-05-30T08:21:23Z</time>
      </trkpt>
      <trkpt lat="44.40318" lon="4.14752">
        <ele>250</ele>
        <time>2014-05-30T08:21:35Z</time>
      </trkpt>
      <trkpt lat="44.40287" lon="4.14744">
        <ele>234</ele>
        <time>2014-05-30T08:21:48Z</time>
      </trkpt>
      <trkpt lat="44.40257" lon="4.14744">
        <ele>236</ele>
        <time>2014-05-30T08:22:01Z</time>
      </trkpt>
      <trkpt lat="44.40227" lon="4.14752">
        <ele>242</ele>
        <time>2014-05-30T08:22:15Z</time>
      </trkpt>
      <trkpt lat="44.40203" lon="4.1477">
        <ele>243</ele>
        <time>2014-05-30T08:22:27Z</time>
      </trkpt>
      <trkpt lat="44.4018" lon="4.1479">
        <ele>245</ele>
        <time>2014-05-30T08:22:38Z</time>
      </trkpt>
      <trkpt lat="44.40157" lon="4.14783">
        <ele>246</ele>
        <time>2014-05-30T08:22:50Z</time>
      </trkpt>
      <trkpt lat="44.40142" lon="4.14755">
        <ele>244</ele>
        <time>2014-05-30T08:23:00Z</time>
      </trkpt>
      <trkpt lat="44.40117" lon="4.14743">
        <ele>241</ele>
        <time>2014-05-30T08:23:14Z</time>
      </trkpt>
      <trkpt lat="44.40093" lon="4.14731">
        <ele>244</ele>
        <time>2014-05-30T08:23:32Z</time>
      </trkpt>
      <trkpt lat="44.40078" lon="4.14736">
        <ele>256</ele>
        <time>2014-05-30T08:24:53Z</time>
      </trkpt>
      <trkpt lat="44.40072" lon="4.1475">
        <ele>256</ele>
        <time>2014-05-30T08:25:16Z</time>
      </trkpt>
      <trkpt lat="44.40088" lon="4.14783">
        <ele>252</ele>
        <time>2014-05-30T08:25:20Z</time>
      </trkpt>
      <trkpt lat="44.40106" lon="4.14813">
        <ele>252</ele>
        <time>2014-05-30T08:25:25Z</time>
      </trkpt>
      <trkpt lat="44.40124" lon="4.1484">
        <ele>255</ele>
        <time>2014-05-30T08:25:31Z</time>
      </trkpt>
      <trkpt lat="44.4013" lon="4.14872">
        <ele>256</ele>
        <time>2014-05-30T08:25:39Z</time>
      </trkpt>
      <trkpt lat="44.40123" lon="4.14904">
        <ele>256</ele>
        <time>2014-05-30T08:25:51Z</time>
      </trkpt>
      <trkpt lat="44.40109" lon="4.14934">
        <ele>258</ele>
        <time>2014-05-30T08:26:03Z</time>
      </trkpt>
      <trkpt lat="44.40095" lon="4.14963">
        <ele>258</ele>
        <time>2014-05-30T08:26:11Z</time>
      </trkpt>
      <trkpt lat="44.40079" lon="4.14997">
        <ele>257</ele>
        <time>2014-05-30T08:26:19Z</time>
      </trkpt>
      <trkpt lat="44.4007" lon="4.15013">
        <ele>256</ele>
        <time>2014-05-30T08:26:42Z</time>
      </trkpt>
      <trkpt lat="44.40058" lon="4.15042">
        <ele>255</ele>
        <time>2014-05-30T08:27:06Z</time>
      </trkpt>
      <trkpt lat="44.40044" lon="4.15074">
        <ele>255</ele>
        <time>2014-05-30T08:27:13Z</time>
      </trkpt>
      <trkpt lat="44.4003" lon="4.15106">
        <ele>253</ele>
        <time>2014-05-30T08:27:20Z</time>
      </trkpt>
      <trkpt lat="44.40015" lon="4.1514">
        <ele>253</ele>
        <time>2014-05-30T08:27:25Z</time>
      </trkpt>
      <trkpt lat="44.39999" lon="4.15177">
        <ele>251</ele>
        <time>2014-05-30T08:27:31Z</time>
      </trkpt>
      <trkpt lat="44.39986" lon="4.15204">
        <ele>251</ele>
        <time>2014-05-30T08:27:36Z</time>
      </trkpt>
      <trkpt lat="44.39974" lon="4.15232">
        <ele>251</ele>
        <time>2014-05-30T08:27:40Z</time>
      </trkpt>
      <trkpt lat="44.39961" lon="4.15263">
        <ele>250</ele>
        <time>2014-05-30T08:27:44Z</time>
      </trkpt>
      <trkpt lat="44.39947" lon="4.15293">
        <ele>250</ele>
        <time>2014-05-30T08:27:47Z</time>
      </trkpt>
      <trkpt lat="44.39933" lon="4.15321">
        <ele>249</ele>
        <time>2014-05-30T08:27:52Z</time>
      </trkpt>
      <trkpt lat="44.39918" lon="4.15354">
        <ele>248</ele>
        <time>2014-05-30T08:27:57Z</time>
      </trkpt>
      <trkpt lat="44.39904" lon="4.15386">
        <ele>249</ele>
        <time>2014-05-30T08:28:04Z</time>
      </trkpt>
      <trkpt lat="44.39888" lon="4.15418">
        <ele>247</ele>
        <time>2014-05-30T08:28:13Z</time>
      </trkpt>
      <trkpt lat="44.39873" lon="4.1545">
        <ele>247</ele>
        <time>2014-05-30T08:28:19Z</time>
      </trkpt>
      <trkpt lat="44.39856" lon="4.15484">
        <ele>247</ele>
        <time>2014-05-30T08:28:26Z</time>
      </trkpt>
      <trkpt lat="44.39844" lon="4.15513">
        <ele>246</ele>
        <time>2014-05-30T08:28:33Z</time>
      </trkpt>
      <trkpt lat="44.3983" lon="4.15543">
        <ele>248</ele>
        <time>2014-05-30T08:28:42Z</time>
      </trkpt>
      <trkpt lat="44.39812" lon="4.15569">
        <ele>249</ele>
        <time>2014-05-30T08:28:53Z</time>
      </trkpt>
      <trkpt lat="44.39784" lon="4.15587">
        <ele>247</ele>
        <time>2014-05-30T08:29:06Z</time>
      </trkpt>
      <trkpt lat="44.39772" lon="4.15583">
        <ele>250</ele>
        <time>2014-05-30T08:29:54Z</time>
      </trkpt>
      <trkpt lat="44.39737" lon="4.15575">
        <ele>253</ele>
        <time>2014-05-30T08:30:38Z</time>
      </trkpt>
      <trkpt lat="44.39707" lon="4.15573">
        <ele>254</ele>
        <time>2014-05-30T08:30:46Z</time>
      </trkpt>
      <trkpt lat="44.39675" lon="4.15574">
        <ele>255</ele>
        <time>2014-05-30T08:30:55Z</time>
      </trkpt>
      <trkpt lat="44.39651" lon="4.15593">
        <ele>255</ele>
        <time>2014-05-30T08:31:05Z</time>
      </trkpt>
      <trkpt lat="44.3963" lon="4.15616">
        <ele>255</ele>
        <time>2014-05-30T08:31:16Z</time>
      </trkpt>
      <trkpt lat="44.39609" lon="4.1564">
        <ele>255</ele>
        <time>2014-05-30T08:31:26Z</time>
      </trkpt>
      <trkpt lat="44.39588" lon="4.15656">
        <ele>254</ele>
        <time>2014-05-30T08:31:54Z</time>
      </trkpt>
      <trkpt lat="44.39578" lon="4.1567">
        <ele>253</ele>
        <time>2014-05-30T08:32:29Z</time>
      </trkpt>
      <trkpt lat="44.39564" lon="4.15701">
        <ele>251</ele>
        <time>2014-05-30T08:32:38Z</time>
      </trkpt>
      <trkpt lat="44.39548" lon="4.15734">
        <ele>250</ele>
        <time>2014-05-30T08:32:44Z</time>
      </trkpt>
      <trkpt lat="44.3953" lon="4.15765">
        <ele>247</ele>
        <time>2014-05-30T08:32:50Z</time>
      </trkpt>
      <trkpt lat="44.39516" lon="4.15795">
        <ele>246</ele>
        <time>2014-05-30T08:32:54Z</time>
      </trkpt>
      <trkpt lat="44.39506" lon="4.15827">
        <ele>245</ele>
        <time>2014-05-30T08:32:58Z</time>
      </trkpt>
      <trkpt lat="44.39501" lon="4.15864">
        <ele>244</ele>
        <time>2014-05-30T08:33:03Z</time>
      </trkpt>
      <trkpt lat="44.39496" lon="4.15899">
        <ele>244</ele>
        <time>2014-05-30T08:33:07Z</time>
      </trkpt>
      <trkpt lat="44.39483" lon="4.1593">
        <ele>244</ele>
        <time>2014-05-30T08:33:11Z</time>
      </trkpt>
      <trkpt lat="44.39462" lon="4.15959">
        <ele>244</ele>
        <time>2014-05-30T08:33:19Z</time>
      </trkpt>
      <trkpt lat="44.39451" lon="4.15989">
        <ele>245</ele>
        <time>2014-05-30T08:33:29Z</time>
      </trkpt>
      <trkpt lat="44.39447" lon="4.16022">
        <ele>246</ele>
        <time>2014-05-30T08:33:38Z</time>
      </trkpt>
      <trkpt lat="44.39445" lon="4.16053">
        <ele>246</ele>
        <time>2014-05-30T08:33:47Z</time>
      </trkpt>
      <trkpt lat="44.39441" lon="4.16082">
        <ele>248</ele>
        <time>2014-05-30T08:33:55Z</time>
      </trkpt>
      <trkpt lat="44.39435" lon="4.16111">
        <ele>247</ele>
        <time>2014-05-30T08:34:04Z</time>
      </trkpt>
      <trkpt lat="44.39425" lon="4.16139">
        <ele>247</ele>
        <time>2014-05-30T08:34:12Z</time>
      </trkpt>
      <trkpt lat="44.3941" lon="4.16167">
        <ele>248</ele>
        <time>2014-05-30T08:34:20Z</time>
      </trkpt>
      <trkpt lat="44.39395" lon="4.16198">
        <ele>249</ele>
        <time>2014-05-30T08:34:29Z</time>
      </trkpt>
      <trkpt lat="44.39383" lon="4.1623">
        <ele>249</ele>
        <time>2014-05-30T08:34:39Z</time>
      </trkpt>
      <trkpt lat="44.39373" lon="4.16264">
        <ele>247</ele>
        <time>2014-05-30T08:34:50Z</time>
      </trkpt>
      <trkpt lat="44.39351" lon="4.16286">
        <ele>247</ele>
        <time>2014-05-30T08:35:00Z</time>
      </trkpt>
      <trkpt lat="44.39322" lon="4.16293">
        <ele>247</ele>
        <time>2014-05-30T08:35:09Z</time>
      </trkpt>
      <trkpt lat="44.3929" lon="4.16285">
        <ele>247</ele>
        <time>2014-05-30T08:35:17Z</time>
      </trkpt>
      <trkpt lat="44.39258" lon="4.16274">
        <ele>247</ele>
        <time>2014-05-30T08:35:25Z</time>
      </trkpt>
      <trkpt lat="44.3924" lon="4.16246">
        <ele>248</ele>
        <time>2014-05-30T08:35:35Z</time>
      </trkpt>
      <trkpt lat="44.39227" lon="4.1622">
        <ele>249</ele>
        <time>2014-05-30T08:35:45Z</time>
      </trkpt>
      <trkpt lat="44.39199" lon="4.16208">
        <ele>249</ele>
        <time>2014-05-30T08:35:56Z</time>
      </trkpt>
      <trkpt lat="44.39167" lon="4.16201">
        <ele>249</ele>
        <time>2014-05-30T08:36:17Z</time>
      </trkpt>
      <trkpt lat="44.39204" lon="4.16203">
        <ele>249</ele>
        <time>2014-05-30T08:36:54Z</time>
      </trkpt>
      <trkpt lat="44.39228" lon="4.16222">
        <ele>249</ele>
        <time>2014-05-30T08:37:06Z</time>
      </trkpt>
      <trkpt lat="44.39244" lon="4.16249">
        <ele>248</ele>
        <time>2014-05-30T08:37:17Z</time>
      </trkpt>
      <trkpt lat="44.3927" lon="4.16264">
        <ele>247</ele>
        <time>2014-05-30T08:37:33Z</time>
      </trkpt>
      <trkpt lat="44.39298" lon="4.16278">
        <ele>247</ele>
        <time>2014-05-30T08:37:51Z</time>
      </trkpt>
      <trkpt lat="44.39326" lon="4.16287">
        <ele>248</ele>
        <time>2014-05-30T08:38:07Z</time>
      </trkpt>
      <trkpt lat="44.39352" lon="4.16284">
        <ele>247</ele>
        <time>2014-05-30T08:38:21Z</time>
      </trkpt>
      <trkpt lat="44.39368" lon="4.16311">
        <ele>246</ele>
        <time>2014-05-30T08:38:30Z</time>
      </trkpt>
      <trkpt lat="44.39377" lon="4.16344">
        <ele>244</ele>
        <time>2014-05-30T08:38:36Z</time>
      </trkpt>
      <trkpt lat="44.39382" lon="4.16378">
        <ele>243</ele>
        <time>2014-05-30T08:38:42Z</time>
      </trkpt>
      <trkpt lat="44.39382" lon="4.16409">
        <ele>243</ele>
        <time>2014-05-30T08:38:50Z</time>
      </trkpt>
      <trkpt lat="44.39378" lon="4.16441">
        <ele>239</ele>
        <time>2014-05-30T08:39:00Z</time>
      </trkpt>
      <trkpt lat="44.39377" lon="4.16472">
        <ele>238</ele>
        <time>2014-05-30T08:39:10Z</time>
      </trkpt>
      <trkpt lat="44.39377" lon="4.16485">
        <ele>237</ele>
        <time>2014-05-30T08:40:01Z</time>
      </trkpt>
      <trkpt lat="44.39376" lon="4.16515">
        <ele>235</ele>
        <time>2014-05-30T08:40:06Z</time>
      </trkpt>
      <trkpt lat="44.39368" lon="4.16558">
        <ele>234</ele>
        <time>2014-05-30T08:40:28Z</time>
      </trkpt>
      <trkpt lat="44.39362" lon="4.16589">
        <ele>234</ele>
        <time>2014-05-30T08:41:05Z</time>
      </trkpt>
      <trkpt lat="44.39361" lon="4.16609">
        <ele>234</ele>
        <time>2014-05-30T08:41:33Z</time>
      </trkpt>
      <trkpt lat="44.39347" lon="4.16626">
        <ele>235</ele>
        <time>2014-05-30T08:42:00Z</time>
      </trkpt>
      <trkpt lat="44.39333" lon="4.1665">
        <ele>236</ele>
        <time>2014-05-30T08:42:30Z</time>
      </trkpt>
      <trkpt lat="44.39324" lon="4.16677">
        <ele>237</ele>
        <time>2014-05-30T08:42:43Z</time>
      </trkpt>
      <trkpt lat="44.39315" lon="4.16683">
        <ele>236</ele>
        <time>2014-05-30T08:43:27Z</time>
      </trkpt>
      <trkpt lat="44.39296" lon="4.16664">
        <ele>236</ele>
        <time>2014-05-30T08:43:51Z</time>
      </trkpt>
      <trkpt lat="44.39286" lon="4.16636">
        <ele>236</ele>
        <time>2014-05-30T08:44:18Z</time>
      </trkpt>
      <trkpt lat="44.39283" lon="4.16628">
        <ele>236</ele>
        <time>2014-05-30T08:44:56Z</time>
      </trkpt>
      <trkpt lat="44.39291" lon="4.16642">
        <ele>236</ele>
        <time>2014-05-30T08:45:51Z</time>
      </trkpt>
      <trkpt lat="44.39317" lon="4.16668">
        <ele>237</ele>
        <time>2014-05-30T08:46:20Z</time>
      </trkpt>
      <trkpt lat="44.39334" lon="4.16653">
        <ele>236</ele>
        <time>2014-05-30T08:46:45Z</time>
      </trkpt>
      <trkpt lat="44.39339" lon="4.16625">
        <ele>235</ele>
        <time>2014-05-30T08:47:07Z</time>
      </trkpt>
      <trkpt lat="44.3935" lon="4.16619">
        <ele>235</ele>
        <time>2014-05-30T08:47:55Z</time>
      </trkpt>
      <trkpt lat="44.39361" lon="4.16594">
        <ele>234</ele>
        <time>2014-05-30T08:48:32Z</time>
      </trkpt>
      <trkpt lat="44.39361" lon="4.16567">
        <ele>234</ele>
        <time>2014-05-30T08:49:03Z</time>
      </trkpt>
      <trkpt lat="44.39375" lon="4.1654">
        <ele>234</ele>
        <time>2014-05-30T08:49:24Z</time>
      </trkpt>
      <trkpt lat="44.3939" lon="4.16515">
        <ele>235</ele>
        <time>2014-05-30T08:49:49Z</time>
      </trkpt>
      <trkpt lat="44.39419" lon="4.1651">
        <ele>235</ele>
        <time>2014-05-30T08:50:16Z</time>
      </trkpt>
      <trkpt lat="44.39446" lon="4.16523">
        <ele>232</ele>
        <time>2014-05-30T08:50:31Z</time>
      </trkpt>
      <trkpt lat="44.39473" lon="4.16522">
        <ele>232</ele>
        <time>2014-05-30T08:50:48Z</time>
      </trkpt>
      <trkpt lat="44.395" lon="4.16529">
        <ele>230</ele>
        <time>2014-05-30T08:51:02Z</time>
      </trkpt>
      <trkpt lat="44.39527" lon="4.16545">
        <ele>230</ele>
        <time>2014-05-30T08:51:12Z</time>
      </trkpt>
      <trkpt lat="44.39534" lon="4.16554">
        <ele>230</ele>
        <time>2014-05-30T08:51:38Z</time>
      </trkpt>
      <trkpt lat="44.39507" lon="4.16541">
        <ele>230</ele>
        <time>2014-05-30T08:52:05Z</time>
      </trkpt>
      <trkpt lat="44.39493" lon="4.16521">
        <ele>231</ele>
        <time>2014-05-30T08:52:34Z</time>
      </trkpt>
      <trkpt lat="44.39492" lon="4.1651">
        <ele>231</ele>
        <time>2014-05-30T08:52:49Z</time>
      </trkpt>
      <trkpt lat="44.39495" lon="4.1651">
        <ele>231</ele>
        <time>2014-05-30T08:52:59Z</time>
      </trkpt>
      <trkpt lat="44.39521" lon="4.16531">
        <ele>230</ele>
        <time>2014-05-30T08:54:26Z</time>
      </trkpt>
      <trkpt lat="44.3955" lon="4.16569">
        <ele>230</ele>
        <time>2014-05-30T08:54:32Z</time>
      </trkpt>
      <trkpt lat="44.39552" lon="4.16603">
        <ele>230</ele>
        <time>2014-05-30T08:54:40Z</time>
      </trkpt>
      <trkpt lat="44.39543" lon="4.16632">
        <ele>230</ele>
        <time>2014-05-30T08:54:49Z</time>
      </trkpt>
      <trkpt lat="44.39525" lon="4.16655">
        <ele>230</ele>
        <time>2014-05-30T08:55:01Z</time>
      </trkpt>
      <trkpt lat="44.39531" lon="4.16685">
        <ele>230</ele>
        <time>2014-05-30T08:55:11Z</time>
      </trkpt>
      <trkpt lat="44.39538" lon="4.16717">
        <ele>230</ele>
        <time>2014-05-30T08:55:20Z</time>
      </trkpt>
      <trkpt lat="44.39543" lon="4.16751">
        <ele>228</ele>
        <time>2014-05-30T08:55:28Z</time>
      </trkpt>
      <trkpt lat="44.39535" lon="4.16785">
        <ele>228</ele>
        <time>2014-05-30T08:55:37Z</time>
      </trkpt>
      <trkpt lat="44.39545" lon="4.16808">
        <ele>227</ele>
        <time>2014-05-30T08:55:48Z</time>
      </trkpt>
      <trkpt lat="44.39575" lon="4.16803">
        <ele>227</ele>
        <time>2014-05-30T08:55:56Z</time>
      </trkpt>
      <trkpt lat="44.39593" lon="4.16822">
        <ele>226</ele>
        <time>2014-05-30T08:56:03Z</time>
      </trkpt>
      <trkpt lat="44.39594" lon="4.16856">
        <ele>226</ele>
        <time>2014-05-30T08:56:10Z</time>
      </trkpt>
      <trkpt lat="44.39595" lon="4.16889">
        <ele>226</ele>
        <time>2014-05-30T08:56:17Z</time>
      </trkpt>
      <trkpt lat="44.39594" lon="4.1692">
        <ele>224</ele>
        <time>2014-05-30T08:56:26Z</time>
      </trkpt>
      <trkpt lat="44.39595" lon="4.16953">
        <ele>224</ele>
        <time>2014-05-30T08:56:34Z</time>
      </trkpt>
      <trkpt lat="44.39595" lon="4.16994">
        <ele>223</ele>
        <time>2014-05-30T08:56:39Z</time>
      </trkpt>
      <trkpt lat="44.39595" lon="4.17028">
        <ele>223</ele>
        <time>2014-05-30T08:56:44Z</time>
      </trkpt>
      <trkpt lat="44.39592" lon="4.17032">
        <ele>223</ele>
        <time>2014-05-30T08:57:15Z</time>
      </trkpt>
      <trkpt lat="44.39594" lon="4.17074">
        <ele>222</ele>
        <time>2014-05-30T08:57:46Z</time>
      </trkpt>
      <trkpt lat="44.39599" lon="4.17108">
        <ele>221</ele>
        <time>2014-05-30T08:57:53Z</time>
      </trkpt>
      <trkpt lat="44.39602" lon="4.1714">
        <ele>221</ele>
        <time>2014-05-30T08:58:01Z</time>
      </trkpt>
      <trkpt lat="44.3961" lon="4.17164">
        <ele>221</ele>
        <time>2014-05-30T08:58:13Z</time>
      </trkpt>
      <trkpt lat="44.39636" lon="4.17176">
        <ele>221</ele>
        <time>2014-05-30T08:58:25Z</time>
      </trkpt>
      <trkpt lat="44.39658" lon="4.17186">
        <ele>221</ele>
        <time>2014-05-30T08:58:36Z</time>
      </trkpt>
      <trkpt lat="44.3966" lon="4.1722">
        <ele>221</ele>
        <time>2014-05-30T08:58:43Z</time>
      </trkpt>
      <trkpt lat="44.39661" lon="4.17254">
        <ele>222</ele>
        <time>2014-05-30T08:58:49Z</time>
      </trkpt>
      <trkpt lat="44.39671" lon="4.17287">
        <ele>225</ele>
        <time>2014-05-30T08:58:56Z</time>
      </trkpt>
      <trkpt lat="44.3968" lon="4.17319">
        <ele>225</ele>
        <time>2014-05-30T08:59:03Z</time>
      </trkpt>
      <trkpt lat="44.3968" lon="4.17351">
        <ele>226</ele>
        <time>2014-05-30T08:59:14Z</time>
      </trkpt>
      <trkpt lat="44.39672" lon="4.17384">
        <ele>226</ele>
        <time>2014-05-30T08:59:22Z</time>
      </trkpt>
      <trkpt lat="44.39659" lon="4.17416">
        <ele>223</ele>
        <time>2014-05-30T08:59:30Z</time>
      </trkpt>
      <trkpt lat="44.3965" lon="4.17448">
        <ele>222</ele>
        <time>2014-05-30T08:59:38Z</time>
      </trkpt>
      <trkpt lat="44.39647" lon="4.17484">
        <ele>221</ele>
        <time>2014-05-30T08:59:45Z</time>
      </trkpt>
      <trkpt lat="44.39646" lon="4.17514">
        <ele>219</ele>
        <time>2014-05-30T08:59:54Z</time>
      </trkpt>
      <trkpt lat="44.39647" lon="4.17527">
        <ele>219</ele>
        <time>2014-05-30T09:00:08Z</time>
      </trkpt>
      <trkpt lat="44.39641" lon="4.17566">
        <ele>218</ele>
        <time>2014-05-30T09:00:16Z</time>
      </trkpt>
      <trkpt lat="44.39628" lon="4.17599">
        <ele>218</ele>
        <time>2014-05-30T09:00:22Z</time>
      </trkpt>
      <trkpt lat="44.39618" lon="4.17634">
        <ele>218</ele>
        <time>2014-05-30T09:00:29Z</time>
      </trkpt>
      <trkpt lat="44.39612" lon="4.17667">
        <ele>218</ele>
        <time>2014-05-30T09:00:34Z</time>
      </trkpt>
      <trkpt lat="44.39609" lon="4.17699">
        <ele>218</ele>
        <time>2014-05-30T09:00:38Z</time>
      </trkpt>
      <trkpt lat="44.39577" lon="4.17705">
        <ele>215</ele>
        <time>2014-05-30T09:00:44Z</time>
      </trkpt>
      <trkpt lat="44.3954" lon="4.17697">
        <ele>214</ele>
        <time>2014-05-30T09:00:49Z</time>
      </trkpt>
      <trkpt lat="44.39504" lon="4.17682">
        <ele>212</ele>
        <time>2014-05-30T09:00:56Z</time>
      </trkpt>
      <trkpt lat="44.39467" lon="4.1767">
        <ele>210</ele>
        <time>2014-05-30T09:01:01Z</time>
      </trkpt>
      <trkpt lat="44.39431" lon="4.17672">
        <ele>209</ele>
        <time>2014-05-30T09:01:08Z</time>
      </trkpt>
      <trkpt lat="44.3941" lon="4.1769">
        <ele>209</ele>
        <time>2014-05-30T09:01:20Z</time>
      </trkpt>
      <trkpt lat="44.39381" lon="4.17692">
        <ele>209</ele>
        <time>2014-05-30T09:01:46Z</time>
      </trkpt>
      <trkpt lat="44.39356" lon="4.17678">
        <ele>210</ele>
        <time>2014-05-30T09:01:58Z</time>
      </trkpt>
      <trkpt lat="44.39331" lon="4.1766">
        <ele>214</ele>
        <time>2014-05-30T09:02:15Z</time>
      </trkpt>
      <trkpt lat="44.39314" lon="4.17671">
        <ele>213</ele>
        <time>2014-05-30T09:02:56Z</time>
      </trkpt>
      <trkpt lat="44.39311" lon="4.17684">
        <ele>213</ele>
        <time>2014-05-30T09:04:38Z</time>
      </trkpt>
      <trkpt lat="44.39307" lon="4.17696">
        <ele>214</ele>
        <time>2014-05-30T09:06:15Z</time>
      </trkpt>
      <trkpt lat="44.39314" lon="4.17732">
        <ele>212</ele>
        <time>2014-05-30T09:06:46Z</time>
      </trkpt>
      <trkpt lat="44.39314" lon="4.17743">
        <ele>212</ele>
        <time>2014-05-30T09:07:32Z</time>
      </trkpt>
      <trkpt lat="44.39271" lon="4.17785">
        <ele>214</ele>
        <time>2014-05-30T09:08:13Z</time>
      </trkpt>
      <trkpt lat="44.39252" lon="4.17806">
        <ele>214</ele>
        <time>2014-05-30T09:08:45Z</time>
      </trkpt>
      <trkpt lat="44.39234" lon="4.17825">
        <ele>215</ele>
        <time>2014-05-30T09:09:11Z</time>
      </trkpt>
      <trkpt lat="44.39236" lon="4.17806">
        <ele>215</ele>
        <time>2014-05-30T09:09:46Z</time>
      </trkpt>
      <trkpt lat="44.39234" lon="4.17793">
        <ele>215</ele>
        <time>2014-05-30T09:10:11Z</time>
      </trkpt>
      <trkpt lat="44.39236" lon="4.17779">
        <ele>215</ele>
        <time>2014-05-30T09:10:32Z</time>
      </trkpt>
      <trkpt lat="44.39237" lon="4.1777">
        <ele>215</ele>
        <time>2014-05-30T09:10:53Z</time>
      </trkpt>
      <trkpt lat="44.39232" lon="4.17766">
        <ele>215</ele>
        <time>2014-05-30T09:11:03Z</time>
      </trkpt>
      <trkpt lat="44.39229" lon="4.17764">
        <ele>215</ele>
        <time>2014-05-30T09:11:14Z</time>
      </trkpt>
      <trkpt lat="44.39227" lon="4.17771">
        <ele>215</ele>
        <time>2014-05-30T09:11:33Z</time>
      </trkpt>
      <trkpt lat="44.39218" lon="4.1779">
        <ele>215</ele>
        <time>2014-05-30T09:11:42Z</time>
      </trkpt>
      <trkpt lat="44.39215" lon="4.17813">
        <ele>215</ele>
        <time>2014-05-30T09:11:56Z</time>
      </trkpt>
      <trkpt lat="44.39213" lon="4.17824">
        <ele>215</ele>
        <time>2014-05-30T09:12:12Z</time>
      </trkpt>
      <trkpt lat="44.39207" lon="4.17832">
        <ele>215</ele>
        <time>2014-05-30T09:12:58Z</time>
      </trkpt>
      <trkpt lat="44.39207" lon="4.17842">
        <ele>214</ele>
        <time>2014-05-30T09:15:20Z</time>
      </trkpt>
      <trkpt lat="44.39205" lon="4.17856">
        <ele>214</ele>
        <time>2014-05-30T09:17:18Z</time>
      </trkpt>
      <trkpt lat="44.39168" lon="4.17898">
        <ele>213</ele>
        <time>2014-05-30T09:17:50Z</time>
      </trkpt>
      <trkpt lat="44.39152" lon="4.17902">
        <ele>213</ele>
        <time>2014-05-30T09:18:27Z</time>
      </trkpt>
      <trkpt lat="44.39151" lon="4.17917">
        <ele>213</ele>
        <time>2014-05-30T09:19:43Z</time>
      </trkpt>
      <trkpt lat="44.39148" lon="4.17933">
        <ele>214</ele>
        <time>2014-05-30T09:22:47Z</time>
      </trkpt>
      <trkpt lat="44.39144" lon="4.17945">
        <ele>215</ele>
        <time>2014-05-30T09:25:18Z</time>
      </trkpt>
      <trkpt lat="44.39142" lon="4.1796">
        <ele>215</ele>
        <time>2014-05-30T09:27:00Z</time>
      </trkpt>
      <trkpt lat="44.39142" lon="4.17968">
        <ele>215</ele>
        <time>2014-05-30T09:28:29Z</time>
      </trkpt>
      <trkpt lat="44.39152" lon="4.18028">
        <ele>216</ele>
        <time>2014-05-30T09:28:47Z</time>
      </trkpt>
      <trkpt lat="44.39142" lon="4.18036">
        <ele>217</ele>
        <time>2014-05-30T09:29:34Z</time>
      </trkpt>
      <trkpt lat="44.39123" lon="4.18034">
        <ele>218</ele>
        <time>2014-05-30T09:30:21Z</time>
      </trkpt>
      <trkpt lat="44.39098" lon="4.18005">
        <ele>220</ele>
        <time>2014-05-30T09:31:04Z</time>
      </trkpt>
      <trkpt lat="44.39091" lon="4.17984">
        <ele>219</ele>
        <time>2014-05-30T09:31:26Z</time>
      </trkpt>
      <trkpt lat="44.39084" lon="4.17966">
        <ele>218</ele>
        <time>2014-05-30T09:31:50Z</time>
      </trkpt>
      <trkpt lat="44.39081" lon="4.1796">
        <ele>223</ele>
        <time>2014-05-30T09:32:20Z</time>
      </trkpt>
      <trkpt lat="44.3906" lon="4.1793">
        <ele>222</ele>
        <time>2014-05-30T09:32:50Z</time>
      </trkpt>
      <trkpt lat="44.39043" lon="4.17921">
        <ele>224</ele>
        <time>2014-05-30T09:33:26Z</time>
      </trkpt>
      <trkpt lat="44.39033" lon="4.17933">
        <ele>225</ele>
        <time>2014-05-30T09:33:53Z</time>
      </trkpt>
      <trkpt lat="44.39029" lon="4.17946">
        <ele>225</ele>
        <time>2014-05-30T09:34:13Z</time>
      </trkpt>
      <trkpt lat="44.39022" lon="4.17964">
        <ele>226</ele>
        <time>2014-05-30T09:35:07Z</time>
      </trkpt>
      <trkpt lat="44.39019" lon="4.17966">
        <ele>226</ele>
        <time>2014-05-30T09:35:52Z</time>
      </trkpt>
      <trkpt lat="44.39036" lon="4.17994">
        <ele>225</ele>
        <time>2014-05-30T09:35:57Z</time>
      </trkpt>
      <trkpt lat="44.39036" lon="4.18027">
        <ele>227</ele>
        <time>2014-05-30T09:36:07Z</time>
      </trkpt>
      <trkpt lat="44.39028" lon="4.18057">
        <ele>228</ele>
        <time>2014-05-30T09:36:20Z</time>
      </trkpt>
      <trkpt lat="44.39021" lon="4.18086">
        <ele>230</ele>
        <time>2014-05-30T09:36:34Z</time>
      </trkpt>
      <trkpt lat="44.3901" lon="4.18115">
        <ele>230</ele>
        <time>2014-05-30T09:36:45Z</time>
      </trkpt>
      <trkpt lat="44.38986" lon="4.18134">
        <ele>228</ele>
        <time>2014-05-30T09:36:57Z</time>
      </trkpt>
      <trkpt lat="44.38963" lon="4.18158">
        <ele>227</ele>
        <time>2014-05-30T09:37:08Z</time>
      </trkpt>
      <trkpt lat="44.38953" lon="4.18178">
        <ele>224</ele>
        <time>2014-05-30T09:38:02Z</time>
      </trkpt>
      <trkpt lat="44.38938" lon="4.18216">
        <ele>223</ele>
        <time>2014-05-30T09:38:12Z</time>
      </trkpt>
      <trkpt lat="44.38924" lon="4.18246">
        <ele>221</ele>
        <time>2014-05-30T09:38:21Z</time>
      </trkpt>
      <trkpt lat="44.38905" lon="4.18274">
        <ele>218</ele>
        <time>2014-05-30T09:38:30Z</time>
      </trkpt>
      <trkpt lat="44.38887" lon="4.18289">
        <ele>217</ele>
        <time>2014-05-30T09:38:43Z</time>
      </trkpt>
      <trkpt lat="44.38867" lon="4.18305">
        <ele>217</ele>
        <time>2014-05-30T09:38:55Z</time>
      </trkpt>
      <trkpt lat="44.38844" lon="4.18328">
        <ele>217</ele>
        <time>2014-05-30T09:39:06Z</time>
      </trkpt>
      <trkpt lat="44.38831" lon="4.18342">
        <ele>217</ele>
        <time>2014-05-30T09:39:23Z</time>
      </trkpt>
      <trkpt lat="44.38813" lon="4.18357">
        <ele>216</ele>
        <time>2014-05-30T09:39:38Z</time>
      </trkpt>
      <trkpt lat="44.38795" lon="4.18385">
        <ele>216</ele>
        <time>2014-05-30T09:39:50Z</time>
      </trkpt>
      <trkpt lat="44.38777" lon="4.1841">
        <ele>215</ele>
        <time>2014-05-30T09:40:02Z</time>
      </trkpt>
      <trkpt lat="44.38758" lon="4.18439">
        <ele>216</ele>
        <time>2014-05-30T09:40:12Z</time>
      </trkpt>
      <trkpt lat="44.38743" lon="4.18468">
        <ele>214</ele>
        <time>2014-05-30T09:40:21Z</time>
      </trkpt>
      <trkpt lat="44.38731" lon="4.18498">
        <ele>215</ele>
        <time>2014-05-30T09:40:30Z</time>
      </trkpt>
      <trkpt lat="44.38717" lon="4.18528">
        <ele>214</ele>
        <time>2014-05-30T09:40:42Z</time>
      </trkpt>
      <trkpt lat="44.38704" lon="4.18556">
        <ele>213</ele>
        <time>2014-05-30T09:40:52Z</time>
      </trkpt>
      <trkpt lat="44.38692" lon="4.18583">
        <ele>212</ele>
        <time>2014-05-30T09:41:02Z</time>
      </trkpt>
      <trkpt lat="44.38676" lon="4.18608">
        <ele>211</ele>
        <time>2014-05-30T09:41:10Z</time>
      </trkpt>
      <trkpt lat="44.38656" lon="4.18632">
        <ele>207</ele>
        <time>2014-05-30T09:41:18Z</time>
      </trkpt>
      <trkpt lat="44.38639" lon="4.18657">
        <ele>206</ele>
        <time>2014-05-30T09:41:28Z</time>
      </trkpt>
      <trkpt lat="44.38623" lon="4.18685">
        <ele>203</ele>
        <time>2014-05-30T09:41:37Z</time>
      </trkpt>
      <trkpt lat="44.38605" lon="4.1871">
        <ele>203</ele>
        <time>2014-05-30T09:41:47Z</time>
      </trkpt>
      <trkpt lat="44.38586" lon="4.18736">
        <ele>202</ele>
        <time>2014-05-30T09:41:55Z</time>
      </trkpt>
      <trkpt lat="44.38569" lon="4.18764">
        <ele>198</ele>
        <time>2014-05-30T09:42:01Z</time>
      </trkpt>
      <trkpt lat="44.38554" lon="4.18801">
        <ele>195</ele>
        <time>2014-05-30T09:42:08Z</time>
      </trkpt>
      <trkpt lat="44.3854" lon="4.18832">
        <ele>195</ele>
        <time>2014-05-30T09:42:16Z</time>
      </trkpt>
      <trkpt lat="44.38519" lon="4.18861">
        <ele>193</ele>
        <time>2014-05-30T09:42:24Z</time>
      </trkpt>
      <trkpt lat="44.38492" lon="4.18886">
        <ele>189</ele>
        <time>2014-05-30T09:42:31Z</time>
      </trkpt>
      <trkpt lat="44.3847" lon="4.18915">
        <ele>188</ele>
        <time>2014-05-30T09:42:38Z</time>
      </trkpt>
      <trkpt lat="44.38442" lon="4.18934">
        <ele>187</ele>
        <time>2014-05-30T09:42:44Z</time>
      </trkpt>
      <trkpt lat="44.38411" lon="4.18951">
        <ele>184</ele>
        <time>2014-05-30T09:42:50Z</time>
      </trkpt>
      <trkpt lat="44.38386" lon="4.18968">
        <ele>183</ele>
        <time>2014-05-30T09:42:56Z</time>
      </trkpt>
      <trkpt lat="44.38357" lon="4.18985">
        <ele>182</ele>
        <time>2014-05-30T09:43:02Z</time>
      </trkpt>
      <trkpt lat="44.3833" lon="4.19007">
        <ele>179</ele>
        <time>2014-05-30T09:43:10Z</time>
      </trkpt>
      <trkpt lat="44.38306" lon="4.19032">
        <ele>177</ele>
        <time>2014-05-30T09:43:17Z</time>
      </trkpt>
      <trkpt lat="44.38289" lon="4.1906">
        <ele>176</ele>
        <time>2014-05-30T09:43:23Z</time>
      </trkpt>
      <trkpt lat="44.38272" lon="4.1909">
        <ele>172</ele>
        <time>2014-05-30T09:43:30Z</time>
      </trkpt>
      <trkpt lat="44.38259" lon="4.1912">
        <ele>172</ele>
        <time>2014-05-30T09:43:37Z</time>
      </trkpt>
      <trkpt lat="44.38242" lon="4.19147">
        <ele>166</ele>
        <time>2014-05-30T09:43:44Z</time>
      </trkpt>
      <trkpt lat="44.38225" lon="4.19172">
        <ele>163</ele>
        <time>2014-05-30T09:43:52Z</time>
      </trkpt>
      <trkpt lat="44.38202" lon="4.19192">
        <ele>162</ele>
        <time>2014-05-30T09:44:01Z</time>
      </trkpt>
      <trkpt lat="44.3818" lon="4.19217">
        <ele>161</ele>
        <time>2014-05-30T09:44:08Z</time>
      </trkpt>
      <trkpt lat="44.38155" lon="4.19241">
        <ele>157</ele>
        <time>2014-05-30T09:44:16Z</time>
      </trkpt>
      <trkpt lat="44.38135" lon="4.19262">
        <ele>155</ele>
        <time>2014-05-30T09:44:30Z</time>
      </trkpt>
      <trkpt lat="44.38107" lon="4.19284">
        <ele>153</ele>
        <time>2014-05-30T09:44:40Z</time>
      </trkpt>
      <trkpt lat="44.38095" lon="4.19317">
        <ele>152</ele>
        <time>2014-05-30T09:44:49Z</time>
      </trkpt>
      <trkpt lat="44.38082" lon="4.19349">
        <ele>148</ele>
        <time>2014-05-30T09:44:57Z</time>
      </trkpt>
      <trkpt lat="44.38064" lon="4.19376">
        <ele>147</ele>
        <time>2014-05-30T09:45:02Z</time>
      </trkpt>
      <trkpt lat="44.38038" lon="4.19396">
        <ele>146</ele>
        <time>2014-05-30T09:45:10Z</time>
      </trkpt>
      <trkpt lat="44.38021" lon="4.19424">
        <ele>144</ele>
        <time>2014-05-30T09:45:18Z</time>
      </trkpt>
      <trkpt lat="44.38028" lon="4.19451">
        <ele>145</ele>
        <time>2014-05-30T09:45:40Z</time>
      </trkpt>
      <trkpt lat="44.38047" lon="4.19477">
        <ele>145</ele>
        <time>2014-05-30T09:45:57Z</time>
      </trkpt>
      <trkpt lat="44.38069" lon="4.19499">
        <ele>147</ele>
        <time>2014-05-30T09:46:08Z</time>
      </trkpt>
      <trkpt lat="44.38089" lon="4.19522">
        <ele>149</ele>
        <time>2014-05-30T09:46:20Z</time>
      </trkpt>
      <trkpt lat="44.3811" lon="4.19545">
        <ele>149</ele>
        <time>2014-05-30T09:46:32Z</time>
      </trkpt>
      <trkpt lat="44.3813" lon="4.19569">
        <ele>150</ele>
        <time>2014-05-30T09:46:44Z</time>
      </trkpt>
      <trkpt lat="44.38149" lon="4.19596">
        <ele>150</ele>
        <time>2014-05-30T09:46:55Z</time>
      </trkpt>
      <trkpt lat="44.3817" lon="4.19618">
        <ele>152</ele>
        <time>2014-05-30T09:47:05Z</time>
      </trkpt>
      <trkpt lat="44.3819" lon="4.19646">
        <ele>152</ele>
        <time>2014-05-30T09:47:15Z</time>
      </trkpt>
      <trkpt lat="44.38211" lon="4.19675">
        <ele>151</ele>
        <time>2014-05-30T09:47:23Z</time>
      </trkpt>
      <trkpt lat="44.38231" lon="4.19703">
        <ele>152</ele>
        <time>2014-05-30T09:47:31Z</time>
      </trkpt>
      <trkpt lat="44.38248" lon="4.19728">
        <ele>152</ele>
        <time>2014-05-30T09:47:39Z</time>
      </trkpt>
      <trkpt lat="44.38264" lon="4.19754">
        <ele>152</ele>
        <time>2014-05-30T09:47:47Z</time>
      </trkpt>
      <trkpt lat="44.38286" lon="4.19773">
        <ele>153</ele>
        <time>2014-05-30T09:47:56Z</time>
      </trkpt>
      <trkpt lat="44.38301" lon="4.19795">
        <ele>153</ele>
        <time>2014-05-30T09:48:06Z</time>
      </trkpt>
      <trkpt lat="44.38307" lon="4.19827">
        <ele>152</ele>
        <time>2014-05-30T09:48:15Z</time>
      </trkpt>
      <trkpt lat="44.38327" lon="4.19852">
        <ele>152</ele>
        <time>2014-05-30T09:48:25Z</time>
      </trkpt>
      <trkpt lat="44.38339" lon="4.19878">
        <ele>153</ele>
        <time>2014-05-30T09:48:38Z</time>
      </trkpt>
      <trkpt lat="44.38349" lon="4.19911">
        <ele>152</ele>
        <time>2014-05-30T09:48:45Z</time>
      </trkpt>
      <trkpt lat="44.3836" lon="4.19948">
        <ele>151</ele>
        <time>2014-05-30T09:48:51Z</time>
      </trkpt>
      <trkpt lat="44.38378" lon="4.1998">
        <ele>150</ele>
        <time>2014-05-30T09:48:58Z</time>
      </trkpt>
      <trkpt lat="44.38396" lon="4.20008">
        <ele>149</ele>
        <time>2014-05-30T09:49:05Z</time>
      </trkpt>
      <trkpt lat="44.38413" lon="4.20039">
        <ele>149</ele>
        <time>2014-05-30T09:49:14Z</time>
      </trkpt>
      <trkpt lat="44.38441" lon="4.2005">
        <ele>151</ele>
        <time>2014-05-30T09:49:25Z</time>
      </trkpt>
      <trkpt lat="44.38473" lon="4.20054">
        <ele>151</ele>
        <time>2014-05-30T09:49:37Z</time>
      </trkpt>
      <trkpt lat="44.38504" lon="4.20051">
        <ele>153</ele>
        <time>2014-05-30T09:49:49Z</time>
      </trkpt>
      <trkpt lat="44.38536" lon="4.20051">
        <ele>154</ele>
        <time>2014-05-30T09:50:01Z</time>
      </trkpt>
      <trkpt lat="44.38569" lon="4.20052">
        <ele>154</ele>
        <time>2014-05-30T09:50:14Z</time>
      </trkpt>
      <trkpt lat="44.38598" lon="4.20059">
        <ele>157</ele>
        <time>2014-05-30T09:50:26Z</time>
      </trkpt>
      <trkpt lat="44.38624" lon="4.20072">
        <ele>158</ele>
        <time>2014-05-30T09:50:38Z</time>
      </trkpt>
      <trkpt lat="44.38655" lon="4.20072">
        <ele>159</ele>
        <time>2014-05-30T09:50:50Z</time>
      </trkpt>
      <trkpt lat="44.38669" lon="4.20093">
        <ele>159</ele>
        <time>2014-05-30T09:51:01Z</time>
      </trkpt>
      <trkpt lat="44.38668" lon="4.20128">
        <ele>159</ele>
        <time>2014-05-30T09:51:10Z</time>
      </trkpt>
      <trkpt lat="44.38682" lon="4.20158">
        <ele>158</ele>
        <time>2014-05-30T09:51:26Z</time>
      </trkpt>
      <trkpt lat="44.38685" lon="4.2018">
        <ele>158</ele>
        <time>2014-05-30T09:51:58Z</time>
      </trkpt>
      <trkpt lat="44.38687" lon="4.20203">
        <ele>159</ele>
        <time>2014-05-30T09:52:39Z</time>
      </trkpt>
      <trkpt lat="44.38713" lon="4.20209">
        <ele>159</ele>
        <time>2014-05-30T09:53:12Z</time>
      </trkpt>
      <trkpt lat="44.38736" lon="4.20194">
        <ele>160</ele>
        <time>2014-05-30T09:53:30Z</time>
      </trkpt>
      <trkpt lat="44.38763" lon="4.20185">
        <ele>162</ele>
        <time>2014-05-30T09:53:45Z</time>
      </trkpt>
      <trkpt lat="44.38795" lon="4.20185">
        <ele>162</ele>
        <time>2014-05-30T09:54:06Z</time>
      </trkpt>
      <trkpt lat="44.38825" lon="4.20192">
        <ele>163</ele>
        <time>2014-05-30T09:54:18Z</time>
      </trkpt>
      <trkpt lat="44.38856" lon="4.20199">
        <ele>164</ele>
        <time>2014-05-30T09:54:29Z</time>
      </trkpt>
      <trkpt lat="44.38889" lon="4.20198">
        <ele>165</ele>
        <time>2014-05-30T09:54:38Z</time>
      </trkpt>
      <trkpt lat="44.38919" lon="4.20209">
        <ele>165</ele>
        <time>2014-05-30T09:54:45Z</time>
      </trkpt>
      <trkpt lat="44.38944" lon="4.20232">
        <ele>165</ele>
        <time>2014-05-30T09:54:53Z</time>
      </trkpt>
      <trkpt lat="44.38953" lon="4.20263">
        <ele>164</ele>
        <time>2014-05-30T09:55:00Z</time>
      </trkpt>
      <trkpt lat="44.38954" lon="4.20299">
        <ele>163</ele>
        <time>2014-05-30T09:55:08Z</time>
      </trkpt>
      <trkpt lat="44.38956" lon="4.20332">
        <ele>163</ele>
        <time>2014-05-30T09:55:15Z</time>
      </trkpt>
      <trkpt lat="44.38959" lon="4.20367">
        <ele>162</ele>
        <time>2014-05-30T09:55:21Z</time>
      </trkpt>
      <trkpt lat="44.38961" lon="4.20399">
        <ele>161</ele>
        <time>2014-05-30T09:55:34Z</time>
      </trkpt>
      <trkpt lat="44.38955" lon="4.2043">
        <ele>161</ele>
        <time>2014-05-30T09:55:43Z</time>
      </trkpt>
      <trkpt lat="44.38949" lon="4.20461">
        <ele>161</ele>
        <time>2014-05-30T09:55:49Z</time>
      </trkpt>
      <trkpt lat="44.38939" lon="4.20491">
        <ele>160</ele>
        <time>2014-05-30T09:55:55Z</time>
      </trkpt>
      <trkpt lat="44.38926" lon="4.20528">
        <ele>161</ele>
        <time>2014-05-30T09:56:01Z</time>
      </trkpt>
      <trkpt lat="44.38915" lon="4.2056">
        <ele>159</ele>
        <time>2014-05-30T09:56:07Z</time>
      </trkpt>
      <trkpt lat="44.38893" lon="4.20584">
        <ele>159</ele>
        <time>2014-05-30T09:56:15Z</time>
      </trkpt>
      <trkpt lat="44.38865" lon="4.206">
        <ele>158</ele>
        <time>2014-05-30T09:56:23Z</time>
      </trkpt>
      <trkpt lat="44.38838" lon="4.20619">
        <ele>158</ele>
        <time>2014-05-30T09:56:30Z</time>
      </trkpt>
      <trkpt lat="44.38817" lon="4.20642">
        <ele>156</ele>
        <time>2014-05-30T09:56:36Z</time>
      </trkpt>
      <trkpt lat="44.38788" lon="4.20664">
        <ele>155</ele>
        <time>2014-05-30T09:56:42Z</time>
      </trkpt>
      <trkpt lat="44.38762" lon="4.20694">
        <ele>155</ele>
        <time>2014-05-30T09:56:49Z</time>
      </trkpt>
      <trkpt lat="44.38742" lon="4.20728">
        <ele>153</ele>
        <time>2014-05-30T09:56:55Z</time>
      </trkpt>
      <trkpt lat="44.38724" lon="4.20758">
        <ele>153</ele>
        <time>2014-05-30T09:57:01Z</time>
      </trkpt>
      <trkpt lat="44.38705" lon="4.20784">
        <ele>152</ele>
        <time>2014-05-30T09:57:07Z</time>
      </trkpt>
      <trkpt lat="44.38687" lon="4.20813">
        <ele>151</ele>
        <time>2014-05-30T09:57:14Z</time>
      </trkpt>
      <trkpt lat="44.38662" lon="4.20844">
        <ele>150</ele>
        <time>2014-05-30T09:57:21Z</time>
      </trkpt>
      <trkpt lat="44.38636" lon="4.20868">
        <ele>150</ele>
        <time>2014-05-30T09:57:27Z</time>
      </trkpt>
      <trkpt lat="44.38608" lon="4.20886">
        <ele>150</ele>
        <time>2014-05-30T09:57:36Z</time>
      </trkpt>
      <trkpt lat="44.38578" lon="4.20892">
        <ele>149</ele>
        <time>2014-05-30T09:57:44Z</time>
      </trkpt>
      <trkpt lat="44.38543" lon="4.20892">
        <ele>148</ele>
        <time>2014-05-30T09:57:50Z</time>
      </trkpt>
      <trkpt lat="44.38502" lon="4.2089">
        <ele>147</ele>
        <time>2014-05-30T09:57:56Z</time>
      </trkpt>
      <trkpt lat="44.38461" lon="4.20886">
        <ele>145</ele>
        <time>2014-05-30T09:58:02Z</time>
      </trkpt>
      <trkpt lat="44.38431" lon="4.20905">
        <ele>145</ele>
        <time>2014-05-30T09:58:07Z</time>
      </trkpt>
      <trkpt lat="44.38399" lon="4.20919">
        <ele>143</ele>
        <time>2014-05-30T09:58:12Z</time>
      </trkpt>
      <trkpt lat="44.38364" lon="4.20926">
        <ele>141</ele>
        <time>2014-05-30T09:58:17Z</time>
      </trkpt>
      <trkpt lat="44.38331" lon="4.20932">
        <ele>139</ele>
        <time>2014-05-30T09:58:21Z</time>
      </trkpt>
      <trkpt lat="44.38309" lon="4.20955">
        <ele>140</ele>
        <time>2014-05-30T09:58:24Z</time>
      </trkpt>
      <trkpt lat="44.38308" lon="4.20989">
        <ele>140</ele>
        <time>2014-05-30T09:58:29Z</time>
      </trkpt>
      <trkpt lat="44.38314" lon="4.21022">
        <ele>140</ele>
        <time>2014-05-30T09:58:32Z</time>
      </trkpt>
      <trkpt lat="44.3831" lon="4.2106">
        <ele>140</ele>
        <time>2014-05-30T09:58:37Z</time>
      </trkpt>
      <trkpt lat="44.38303" lon="4.211">
        <ele>139</ele>
        <time>2014-05-30T09:58:41Z</time>
      </trkpt>
      <trkpt lat="44.383" lon="4.2114">
        <ele>139</ele>
        <time>2014-05-30T09:58:44Z</time>
      </trkpt>
      <trkpt lat="44.38303" lon="4.21176">
        <ele>138</ele>
        <time>2014-05-30T09:58:49Z</time>
      </trkpt>
      <trkpt lat="44.38305" lon="4.21214">
        <ele>137</ele>
        <time>2014-05-30T09:58:53Z</time>
      </trkpt>
      <trkpt lat="44.38301" lon="4.21252">
        <ele>136</ele>
        <time>2014-05-30T09:58:56Z</time>
      </trkpt>
      <trkpt lat="44.38296" lon="4.21284">
        <ele>135</ele>
        <time>2014-05-30T09:59:01Z</time>
      </trkpt>
      <trkpt lat="44.38302" lon="4.21317">
        <ele>135</ele>
        <time>2014-05-30T09:59:06Z</time>
      </trkpt>
      <trkpt lat="44.38313" lon="4.21348">
        <ele>131</ele>
        <time>2014-05-30T09:59:13Z</time>
      </trkpt>
      <trkpt lat="44.38325" lon="4.21362">
        <ele>131</ele>
        <time>2014-05-30T10:00:12Z</time>
      </trkpt>
      <trkpt lat="44.38332" lon="4.21353">
        <ele>132</ele>
        <time>2014-05-30T10:01:09Z</time>
      </trkpt>
      <trkpt lat="44.38326" lon="4.214">
        <ele>129</ele>
        <time>2014-05-30T10:01:11Z</time>
      </trkpt>
      <trkpt lat="44.38311" lon="4.21433">
        <ele>126</ele>
        <time>2014-05-30T10:01:18Z</time>
      </trkpt>
      <trkpt lat="44.38279" lon="4.21454">
        <ele>126</ele>
        <time>2014-05-30T10:01:24Z</time>
      </trkpt>
      <trkpt lat="44.3825" lon="4.21472">
        <ele>125</ele>
        <time>2014-05-30T10:01:29Z</time>
      </trkpt>
      <trkpt lat="44.38228" lon="4.21503">
        <ele>123</ele>
        <time>2014-05-30T10:01:35Z</time>
      </trkpt>
      <trkpt lat="44.38216" lon="4.21533">
        <ele>122</ele>
        <time>2014-05-30T10:01:40Z</time>
      </trkpt>
      <trkpt lat="44.38193" lon="4.2154">
        <ele>121</ele>
        <time>2014-05-30T10:01:48Z</time>
      </trkpt>
      <trkpt lat="44.38173" lon="4.21524">
        <ele>121</ele>
        <time>2014-05-30T10:02:03Z</time>
      </trkpt>
      <trkpt lat="44.38194" lon="4.21543">
        <ele>121</ele>
        <time>2014-05-30T10:02:17Z</time>
      </trkpt>
      <trkpt lat="44.38223" lon="4.21552">
        <ele>122</ele>
        <time>2014-05-30T10:02:25Z</time>
      </trkpt>
      <trkpt lat="44.38251" lon="4.21565">
        <ele>122</ele>
        <time>2014-05-30T10:02:33Z</time>
      </trkpt>
      <trkpt lat="44.38275" lon="4.21588">
        <ele>121</ele>
        <time>2014-05-30T10:02:40Z</time>
      </trkpt>
      <trkpt lat="44.38291" lon="4.21618">
        <ele>120</ele>
        <time>2014-05-30T10:02:47Z</time>
      </trkpt>
      <trkpt lat="44.38308" lon="4.21649">
        <ele>120</ele>
        <time>2014-05-30T10:02:52Z</time>
      </trkpt>
      <trkpt lat="44.38325" lon="4.21679">
        <ele>119</ele>
        <time>2014-05-30T10:02:58Z</time>
      </trkpt>
      <trkpt lat="44.38341" lon="4.21709">
        <ele>120</ele>
        <time>2014-05-30T10:03:04Z</time>
      </trkpt>
      <trkpt lat="44.38361" lon="4.21733">
        <ele>120</ele>
        <time>2014-05-30T10:03:11Z</time>
      </trkpt>
      <trkpt lat="44.38392" lon="4.21748">
        <ele>120</ele>
        <time>2014-05-30T10:03:18Z</time>
      </trkpt>
      <trkpt lat="44.3842" lon="4.21762">
        <ele>120</ele>
        <time>2014-05-30T10:03:25Z</time>
      </trkpt>
      <trkpt lat="44.38444" lon="4.2178">
        <ele>120</ele>
        <time>2014-05-30T10:03:30Z</time>
      </trkpt>
      <trkpt lat="44.38469" lon="4.21797">
        <ele>120</ele>
        <time>2014-05-30T10:03:36Z</time>
      </trkpt>
      <trkpt lat="44.38494" lon="4.21815">
        <ele>120</ele>
        <time>2014-05-30T10:03:43Z</time>
      </trkpt>
      <trkpt lat="44.38519" lon="4.21834">
        <ele>119</ele>
        <time>2014-05-30T10:03:49Z</time>
      </trkpt>
      <trkpt lat="44.38549" lon="4.21847">
        <ele>119</ele>
        <time>2014-05-30T10:04:02Z</time>
      </trkpt>
      <trkpt lat="44.38582" lon="4.21851">
        <ele>118</ele>
        <time>2014-05-30T10:04:26Z</time>
      </trkpt>
      <trkpt lat="44.38616" lon="4.21861">
        <ele>117</ele>
        <time>2014-05-30T10:04:33Z</time>
      </trkpt>
      <trkpt lat="44.38647" lon="4.21871">
        <ele>117</ele>
        <time>2014-05-30T10:04:40Z</time>
      </trkpt>
      <trkpt lat="44.3868" lon="4.21887">
        <ele>116</ele>
        <time>2014-05-30T10:04:46Z</time>
      </trkpt>
      <trkpt lat="44.38713" lon="4.21901">
        <ele>116</ele>
        <time>2014-05-30T10:04:51Z</time>
      </trkpt>
      <trkpt lat="44.38744" lon="4.21913">
        <ele>114</ele>
        <time>2014-05-30T10:04:58Z</time>
      </trkpt>
      <trkpt lat="44.38774" lon="4.2192">
        <ele>115</ele>
        <time>2014-05-30T10:05:04Z</time>
      </trkpt>
      <trkpt lat="44.38804" lon="4.21929">
        <ele>115</ele>
        <time>2014-05-30T10:05:11Z</time>
      </trkpt>
      <trkpt lat="44.38835" lon="4.21939">
        <ele>116</ele>
        <time>2014-05-30T10:05:19Z</time>
      </trkpt>
      <trkpt lat="44.38872" lon="4.21936">
        <ele>116</ele>
        <time>2014-05-30T10:05:26Z</time>
      </trkpt>
      <trkpt lat="44.38901" lon="4.21921">
        <ele>116</ele>
        <time>2014-05-30T10:05:32Z</time>
      </trkpt>
      <trkpt lat="44.38933" lon="4.21904">
        <ele>116</ele>
        <time>2014-05-30T10:05:39Z</time>
      </trkpt>
      <trkpt lat="44.38963" lon="4.21892">
        <ele>117</ele>
        <time>2014-05-30T10:05:46Z</time>
      </trkpt>
      <trkpt lat="44.38997" lon="4.21884">
        <ele>117</ele>
        <time>2014-05-30T10:05:53Z</time>
      </trkpt>
      <trkpt lat="44.39049" lon="4.21865">
        <ele>116</ele>
        <time>2014-05-30T10:05:57Z</time>
      </trkpt>
      <trkpt lat="44.39089" lon="4.21847">
        <ele>116</ele>
        <time>2014-05-30T10:05:59Z</time>
      </trkpt>
      <trkpt lat="44.39121" lon="4.21834">
        <ele>116</ele>
        <time>2014-05-30T10:06:01Z</time>
      </trkpt>
      <trkpt lat="44.39157" lon="4.21818">
        <ele>117</ele>
        <time>2014-05-30T10:06:03Z</time>
      </trkpt>
      <trkpt lat="44.39202" lon="4.218">
        <ele>117</ele>
        <time>2014-05-30T10:06:08Z</time>
      </trkpt>
      <trkpt lat="44.39216" lon="4.21802">
        <ele>117</ele>
        <time>2014-05-30T10:06:13Z</time>
      </trkpt>
      <trkpt lat="44.39225" lon="4.21818">
        <ele>117</ele>
        <time>2014-05-30T10:06:25Z</time>
      </trkpt>
      <trkpt lat="44.39253" lon="4.21817">
        <ele>117</ele>
        <time>2014-05-30T10:06:34Z</time>
      </trkpt>
      <trkpt lat="44.39279" lon="4.21836">
        <ele>117</ele>
        <time>2014-05-30T10:06:44Z</time>
      </trkpt>
      <trkpt lat="44.39302" lon="4.21857">
        <ele>118</ele>
        <time>2014-05-30T10:06:52Z</time>
      </trkpt>
      <trkpt lat="44.39287" lon="4.21891">
        <ele>117</ele>
        <time>2014-05-30T10:06:58Z</time>
      </trkpt>
      <trkpt lat="44.39275" lon="4.21925">
        <ele>117</ele>
        <time>2014-05-30T10:07:04Z</time>
      </trkpt>
      <trkpt lat="44.39263" lon="4.21956">
        <ele>118</ele>
        <time>2014-05-30T10:07:10Z</time>
      </trkpt>
      <trkpt lat="44.39197" lon="4.21993">
        <ele>117</ele>
        <time>2014-05-30T10:07:16Z</time>
      </trkpt>
      <trkpt lat="44.39158" lon="4.22005">
        <ele>117</ele>
        <time>2014-05-30T10:07:21Z</time>
      </trkpt>
      <trkpt lat="44.39131" lon="4.2202">
        <ele>117</ele>
        <time>2014-05-30T10:07:27Z</time>
      </trkpt>
      <trkpt lat="44.39104" lon="4.22049">
        <ele>117</ele>
        <time>2014-05-30T10:07:32Z</time>
      </trkpt>
      <trkpt lat="44.39082" lon="4.22081">
        <ele>118</ele>
        <time>2014-05-30T10:07:37Z</time>
      </trkpt>
      <trkpt lat="44.39065" lon="4.22111">
        <ele>117</ele>
        <time>2014-05-30T10:07:42Z</time>
      </trkpt>
      <trkpt lat="44.39046" lon="4.22148">
        <ele>117</ele>
        <time>2014-05-30T10:07:46Z</time>
      </trkpt>
      <trkpt lat="44.39024" lon="4.22174">
        <ele>116</ele>
        <time>2014-05-30T10:07:51Z</time>
      </trkpt>
      <trkpt lat="44.38996" lon="4.22194">
        <ele>116</ele>
        <time>2014-05-30T10:07:57Z</time>
      </trkpt>
      <trkpt lat="44.38963" lon="4.22228">
        <ele>116</ele>
        <time>2014-05-30T10:08:04Z</time>
      </trkpt>
      <trkpt lat="44.3894" lon="4.22269">
        <ele>116</ele>
        <time>2014-05-30T10:08:09Z</time>
      </trkpt>
      <trkpt lat="44.38914" lon="4.22313">
        <ele>117</ele>
        <time>2014-05-30T10:08:15Z</time>
      </trkpt>
      <trkpt lat="44.38889" lon="4.2236">
        <ele>117</ele>
        <time>2014-05-30T10:08:21Z</time>
      </trkpt>
      <trkpt lat="44.38871" lon="4.22391">
        <ele>117</ele>
        <time>2014-05-30T10:08:26Z</time>
      </trkpt>
      <trkpt lat="44.38857" lon="4.22416">
        <ele>117</ele>
        <time>2014-05-30T10:08:30Z</time>
      </trkpt>
      <trkpt lat="44.38837" lon="4.22454">
        <ele>116</ele>
        <time>2014-05-30T10:08:35Z</time>
      </trkpt>
      <trkpt lat="44.38815" lon="4.22486">
        <ele>116</ele>
        <time>2014-05-30T10:08:40Z</time>
      </trkpt>
      <trkpt lat="44.38794" lon="4.22514">
        <ele>116</ele>
        <time>2014-05-30T10:08:43Z</time>
      </trkpt>
      <trkpt lat="44.38777" lon="4.22543">
        <ele>116</ele>
        <time>2014-05-30T10:08:48Z</time>
      </trkpt>
      <trkpt lat="44.38759" lon="4.22575">
        <ele>115</ele>
        <time>2014-05-30T10:08:52Z</time>
      </trkpt>
      <trkpt lat="44.38742" lon="4.22605">
        <ele>115</ele>
        <time>2014-05-30T10:08:58Z</time>
      </trkpt>
      <trkpt lat="44.38735" lon="4.22637">
        <ele>115</ele>
        <time>2014-05-30T10:09:07Z</time>
      </trkpt>
      <trkpt lat="44.38751" lon="4.22667">
        <ele>115</ele>
        <time>2014-05-30T10:09:16Z</time>
      </trkpt>
      <trkpt lat="44.38766" lon="4.22695">
        <ele>115</ele>
        <time>2014-05-30T10:09:23Z</time>
      </trkpt>
      <trkpt lat="44.38782" lon="4.2272">
        <ele>115</ele>
        <time>2014-05-30T10:09:29Z</time>
      </trkpt>
      <trkpt lat="44.38797" lon="4.22751">
        <ele>114</ele>
        <time>2014-05-30T10:09:35Z</time>
      </trkpt>
      <trkpt lat="44.38816" lon="4.22782">
        <ele>114</ele>
        <time>2014-05-30T10:09:41Z</time>
      </trkpt>
      <trkpt lat="44.38838" lon="4.22812">
        <ele>115</ele>
        <time>2014-05-30T10:09:46Z</time>
      </trkpt>
      <trkpt lat="44.38862" lon="4.22843">
        <ele>116</ele>
        <time>2014-05-30T10:09:52Z</time>
      </trkpt>
      <trkpt lat="44.38886" lon="4.22874">
        <ele>116</ele>
        <time>2014-05-30T10:09:58Z</time>
      </trkpt>
      <trkpt lat="44.38908" lon="4.22904">
        <ele>117</ele>
        <time>2014-05-30T10:10:05Z</time>
      </trkpt>
      <trkpt lat="44.3893" lon="4.22939">
        <ele>117</ele>
        <time>2014-05-30T10:10:11Z</time>
      </trkpt>
      <trkpt lat="44.38946" lon="4.22976">
        <ele>116</ele>
        <time>2014-05-30T10:10:16Z</time>
      </trkpt>
      <trkpt lat="44.38956" lon="4.23006">
        <ele>117</ele>
        <time>2014-05-30T10:10:21Z</time>
      </trkpt>
      <trkpt lat="44.3896" lon="4.23035">
        <ele>117</ele>
        <time>2014-05-30T10:10:24Z</time>
      </trkpt>
      <trkpt lat="44.38962" lon="4.23064">
        <ele>117</ele>
        <time>2014-05-30T10:10:29Z</time>
      </trkpt>
      <trkpt lat="44.38961" lon="4.23094">
        <ele>117</ele>
        <time>2014-05-30T10:10:33Z</time>
      </trkpt>
      <trkpt lat="44.38961" lon="4.23124">
        <ele>117</ele>
        <time>2014-05-30T10:10:37Z</time>
      </trkpt>
      <trkpt lat="44.38962" lon="4.23154">
        <ele>117</ele>
        <time>2014-05-30T10:10:41Z</time>
      </trkpt>
      <trkpt lat="44.38962" lon="4.23186">
        <ele>116</ele>
        <time>2014-05-30T10:10:44Z</time>
      </trkpt>
      <trkpt lat="44.38963" lon="4.23217">
        <ele>116</ele>
        <time>2014-05-30T10:10:49Z</time>
      </trkpt>
      <trkpt lat="44.38964" lon="4.23249">
        <ele>116</ele>
        <time>2014-05-30T10:10:53Z</time>
      </trkpt>
      <trkpt lat="44.38965" lon="4.23284">
        <ele>116</ele>
        <time>2014-05-30T10:10:58Z</time>
      </trkpt>
      <trkpt lat="44.38963" lon="4.2332">
        <ele>116</ele>
        <time>2014-05-30T10:11:04Z</time>
      </trkpt>
      <trkpt lat="44.38959" lon="4.23354">
        <ele>116</ele>
        <time>2014-05-30T10:11:10Z</time>
      </trkpt>
      <trkpt lat="44.38957" lon="4.23387">
        <ele>116</ele>
        <time>2014-05-30T10:11:19Z</time>
      </trkpt>
      <trkpt lat="44.38981" lon="4.23403">
        <ele>117</ele>
        <time>2014-05-30T10:11:29Z</time>
      </trkpt>
      <trkpt lat="44.39008" lon="4.23421">
        <ele>117</ele>
        <time>2014-05-30T10:11:39Z</time>
      </trkpt>
      <trkpt lat="44.39035" lon="4.23422">
        <ele>117</ele>
        <time>2014-05-30T10:11:50Z</time>
      </trkpt>
      <trkpt lat="44.39008" lon="4.23437">
        <ele>117</ele>
        <time>2014-05-30T10:12:00Z</time>
      </trkpt>
      <trkpt lat="44.39011" lon="4.23467">
        <ele>117</ele>
        <time>2014-05-30T10:12:08Z</time>
      </trkpt>
      <trkpt lat="44.38991" lon="4.23534">
        <ele>118</ele>
        <time>2014-05-30T10:12:20Z</time>
      </trkpt>
      <trkpt lat="44.39052" lon="4.23548">
        <ele>117</ele>
        <time>2014-05-30T10:12:53Z</time>
      </trkpt>
      <trkpt lat="44.39052" lon="4.23581">
        <ele>117</ele>
      </trkpt>
      <trkpt lat="44.39052" lon="4.23581">
        <ele>117</ele>
      </trkpt>
      <trkpt lat="44.39031" lon="4.23615">
        <ele>119</ele>
      </trkpt>
      <trkpt lat="44.38995" lon="4.23636">
        <ele>120</ele>
      </trkpt>
      <trkpt lat="44.38948" lon="4.23679">
        <ele>118</ele>
      </trkpt>
      <trkpt lat="44.38894" lon="4.23731">
        <ele>115</ele>
        <time>2014-05-30T10:13:23Z</time>
      </trkpt>
      <trkpt lat="44.38867" lon="4.23755">
        <ele>115</ele>
        <time>2014-05-30T10:13:31Z</time>
      </trkpt>
      <trkpt lat="44.38832" lon="4.23788">
        <ele>115</ele>
        <time>2014-05-30T10:13:36Z</time>
      </trkpt>
      <trkpt lat="44.38814" lon="4.23819">
        <ele>114</ele>
        <time>2014-05-30T10:13:41Z</time>
      </trkpt>
      <trkpt lat="44.38798" lon="4.23847">
        <ele>114</ele>
        <time>2014-05-30T10:13:45Z</time>
      </trkpt>
      <trkpt lat="44.38775" lon="4.23874">
        <ele>114</ele>
        <time>2014-05-30T10:13:51Z</time>
      </trkpt>
      <trkpt lat="44.38764" lon="4.2391">
        <ele>113</ele>
        <time>2014-05-30T10:13:57Z</time>
      </trkpt>
      <trkpt lat="44.38751" lon="4.23947">
        <ele>113</ele>
        <time>2014-05-30T10:14:05Z</time>
      </trkpt>
      <trkpt lat="44.3876" lon="4.2393">
        <ele>113</ele>
        <time>2014-05-30T10:14:16Z</time>
      </trkpt>
      <trkpt lat="44.38739" lon="4.23926">
        <ele>113</ele>
        <time>2014-05-30T10:14:33Z</time>
      </trkpt>
      <trkpt lat="44.38696" lon="4.23977">
        <ele>114</ele>
        <time>2014-05-30T10:14:46Z</time>
      </trkpt>
      <trkpt lat="44.3865" lon="4.24018">
        <ele>114</ele>
        <time>2014-05-30T10:14:51Z</time>
      </trkpt>
      <trkpt lat="44.38623" lon="4.24044">
        <ele>114</ele>
        <time>2014-05-30T10:14:55Z</time>
      </trkpt>
      <trkpt lat="44.386" lon="4.24072">
        <ele>114</ele>
        <time>2014-05-30T10:15:04Z</time>
      </trkpt>
      <trkpt lat="44.3862" lon="4.24079">
        <ele>114</ele>
        <time>2014-05-30T10:15:16Z</time>
      </trkpt>
      <trkpt lat="44.38638" lon="4.241">
        <ele>114</ele>
        <time>2014-05-30T10:15:23Z</time>
      </trkpt>
      <trkpt lat="44.38658" lon="4.24143">
        <ele>115</ele>
        <time>2014-05-30T10:15:29Z</time>
      </trkpt>
      <trkpt lat="44.38654" lon="4.24158">
        <ele>115</ele>
        <time>2014-05-30T10:15:36Z</time>
      </trkpt>
      <trkpt lat="44.38673" lon="4.2419">
        <ele>114</ele>
        <time>2014-05-30T10:15:42Z</time>
      </trkpt>
      <trkpt lat="44.3869" lon="4.24217">
        <ele>113</ele>
        <time>2014-05-30T10:15:48Z</time>
      </trkpt>
      <trkpt lat="44.38708" lon="4.24243">
        <ele>113</ele>
        <time>2014-05-30T10:15:55Z</time>
      </trkpt>
      <trkpt lat="44.38724" lon="4.24269">
        <ele>112</ele>
        <time>2014-05-30T10:16:01Z</time>
      </trkpt>
      <trkpt lat="44.38739" lon="4.24298">
        <ele>112</ele>
        <time>2014-05-30T10:16:08Z</time>
      </trkpt>
      <trkpt lat="44.38759" lon="4.24326">
        <ele>111</ele>
        <time>2014-05-30T10:16:14Z</time>
      </trkpt>
      <trkpt lat="44.38776" lon="4.24356">
        <ele>112</ele>
        <time>2014-05-30T10:16:20Z</time>
      </trkpt>
      <trkpt lat="44.38789" lon="4.24384">
        <ele>112</ele>
        <time>2014-05-30T10:16:26Z</time>
      </trkpt>
      <trkpt lat="44.38801" lon="4.24412">
        <ele>112</ele>
        <time>2014-05-30T10:16:32Z</time>
      </trkpt>
      <trkpt lat="44.38813" lon="4.24442">
        <ele>112</ele>
        <time>2014-05-30T10:16:38Z</time>
      </trkpt>
      <trkpt lat="44.38822" lon="4.24471">
        <ele>112</ele>
        <time>2014-05-30T10:16:44Z</time>
      </trkpt>
      <trkpt lat="44.38832" lon="4.24502">
        <ele>112</ele>
        <time>2014-05-30T10:16:50Z</time>
      </trkpt>
      <trkpt lat="44.3884" lon="4.24537">
        <ele>112</ele>
        <time>2014-05-30T10:16:56Z</time>
      </trkpt>
      <trkpt lat="44.38847" lon="4.24575">
        <ele>111</ele>
        <time>2014-05-30T10:17:02Z</time>
      </trkpt>
      <trkpt lat="44.38855" lon="4.24612">
        <ele>112</ele>
        <time>2014-05-30T10:17:08Z</time>
      </trkpt>
      <trkpt lat="44.38861" lon="4.2465">
        <ele>112</ele>
        <time>2014-05-30T10:17:14Z</time>
      </trkpt>
      <trkpt lat="44.38868" lon="4.24689">
        <ele>113</ele>
        <time>2014-05-30T10:17:20Z</time>
      </trkpt>
      <trkpt lat="44.38875" lon="4.24726">
        <ele>113</ele>
        <time>2014-05-30T10:17:26Z</time>
      </trkpt>
      <trkpt lat="44.38877" lon="4.24759">
        <ele>113</ele>
        <time>2014-05-30T10:17:32Z</time>
      </trkpt>
      <trkpt lat="44.38878" lon="4.24796">
        <ele>113</ele>
        <time>2014-05-30T10:17:37Z</time>
      </trkpt>
      <trkpt lat="44.38882" lon="4.24833">
        <ele>113</ele>
        <time>2014-05-30T10:17:43Z</time>
      </trkpt>
      <trkpt lat="44.38886" lon="4.24871">
        <ele>112</ele>
        <time>2014-05-30T10:17:50Z</time>
      </trkpt>
      <trkpt lat="44.38891" lon="4.24909">
        <ele>112</ele>
        <time>2014-05-30T10:17:56Z</time>
      </trkpt>
      <trkpt lat="44.38895" lon="4.24945">
        <ele>112</ele>
        <time>2014-05-30T10:18:01Z</time>
      </trkpt>
      <trkpt lat="44.38899" lon="4.24981">
        <ele>112</ele>
        <time>2014-05-30T10:18:07Z</time>
      </trkpt>
      <trkpt lat="44.38904" lon="4.2502">
        <ele>113</ele>
        <time>2014-05-30T10:18:13Z</time>
      </trkpt>
      <trkpt lat="44.38909" lon="4.25059">
        <ele>113</ele>
        <time>2014-05-30T10:18:19Z</time>
      </trkpt>
      <trkpt lat="44.38914" lon="4.25098">
        <ele>113</ele>
        <time>2014-05-30T10:18:25Z</time>
      </trkpt>
      <trkpt lat="44.3892" lon="4.25138">
        <ele>112</ele>
        <time>2014-05-30T10:18:31Z</time>
      </trkpt>
      <trkpt lat="44.38925" lon="4.25176">
        <ele>112</ele>
        <time>2014-05-30T10:18:37Z</time>
      </trkpt>
      <trkpt lat="44.38932" lon="4.25214">
        <ele>111</ele>
        <time>2014-05-30T10:18:43Z</time>
      </trkpt>
      <trkpt lat="44.38939" lon="4.25252">
        <ele>111</ele>
        <time>2014-05-30T10:18:49Z</time>
      </trkpt>
      <trkpt lat="44.38944" lon="4.2529">
        <ele>111</ele>
        <time>2014-05-30T10:18:55Z</time>
      </trkpt>
      <trkpt lat="44.38949" lon="4.25325">
        <ele>111</ele>
        <time>2014-05-30T10:19:00Z</time>
      </trkpt>
      <trkpt lat="44.38953" lon="4.25361">
        <ele>112</ele>
        <time>2014-05-30T10:19:06Z</time>
      </trkpt>
      <trkpt lat="44.38956" lon="4.25397">
        <ele>112</ele>
        <time>2014-05-30T10:19:12Z</time>
      </trkpt>
      <trkpt lat="44.38959" lon="4.25435">
        <ele>113</ele>
        <time>2014-05-30T10:19:19Z</time>
      </trkpt>
      <trkpt lat="44.38962" lon="4.25472">
        <ele>113</ele>
        <time>2014-05-30T10:19:24Z</time>
      </trkpt>
      <trkpt lat="44.38963" lon="4.25508">
        <ele>113</ele>
        <time>2014-05-30T10:19:31Z</time>
      </trkpt>
      <trkpt lat="44.38963" lon="4.2554">
        <ele>114</ele>
        <time>2014-05-30T10:19:37Z</time>
      </trkpt>
      <trkpt lat="44.38957" lon="4.2557">
        <ele>114</ele>
        <time>2014-05-30T10:19:44Z</time>
      </trkpt>
      <trkpt lat="44.38952" lon="4.25601">
        <ele>115</ele>
        <time>2014-05-30T10:19:52Z</time>
      </trkpt>
      <trkpt lat="44.38942" lon="4.25631">
        <ele>115</ele>
        <time>2014-05-30T10:20:02Z</time>
      </trkpt>
      <trkpt lat="44.38941" lon="4.25664">
        <ele>115</ele>
        <time>2014-05-30T10:20:09Z</time>
      </trkpt>
      <trkpt lat="44.3894" lon="4.25699">
        <ele>115</ele>
        <time>2014-05-30T10:20:16Z</time>
      </trkpt>
      <trkpt lat="44.38932" lon="4.25731">
        <ele>114</ele>
        <time>2014-05-30T10:20:25Z</time>
      </trkpt>
      <trkpt lat="44.38863" lon="4.25827">
        <ele>115</ele>
        <time>2014-05-30T10:20:45Z</time>
      </trkpt>
      <trkpt lat="44.38863" lon="4.25839">
        <ele>116</ele>
        <time>2014-05-30T10:21:03Z</time>
      </trkpt>
      <trkpt lat="44.3886" lon="4.2591">
        <ele>116</ele>
        <time>2014-05-30T10:21:09Z</time>
      </trkpt>
      <trkpt lat="44.38782" lon="4.26007">
        <ele>118</ele>
        <time>2014-05-30T10:21:15Z</time>
      </trkpt>
      <trkpt lat="44.38766" lon="4.26039">
        <ele>118</ele>
        <time>2014-05-30T10:21:20Z</time>
      </trkpt>
      <trkpt lat="44.38758" lon="4.26069">
        <ele>118</ele>
        <time>2014-05-30T10:21:23Z</time>
      </trkpt>
      <trkpt lat="44.38768" lon="4.26099">
        <ele>119</ele>
        <time>2014-05-30T10:21:30Z</time>
      </trkpt>
      <trkpt lat="44.38759" lon="4.2611">
        <ele>119</ele>
        <time>2014-05-30T10:21:33Z</time>
      </trkpt>
      <trkpt lat="44.38761" lon="4.26151">
        <ele>120</ele>
        <time>2014-05-30T10:21:38Z</time>
      </trkpt>
      <trkpt lat="44.38779" lon="4.26174">
        <ele>122</ele>
        <time>2014-05-30T10:21:43Z</time>
      </trkpt>
      <trkpt lat="44.3878" lon="4.26172">
        <ele>122</ele>
        <time>2014-05-30T10:21:50Z</time>
      </trkpt>
      <trkpt lat="44.38786" lon="4.26171">
        <ele>122</ele>
        <time>2014-05-30T10:22:06Z</time>
      </trkpt>
      <trkpt lat="44.38811" lon="4.26195">
        <ele>123</ele>
        <time>2014-05-30T10:22:16Z</time>
      </trkpt>
      <trkpt lat="44.3883" lon="4.26218">
        <ele>124</ele>
        <time>2014-05-30T10:22:25Z</time>
      </trkpt>
      <trkpt lat="44.38848" lon="4.26245">
        <ele>128</ele>
        <time>2014-05-30T10:22:35Z</time>
      </trkpt>
      <trkpt lat="44.38866" lon="4.26269">
        <ele>132</ele>
        <time>2014-05-30T10:22:46Z</time>
      </trkpt>
      <trkpt lat="44.38887" lon="4.26292">
        <ele>133</ele>
        <time>2014-05-30T10:22:59Z</time>
      </trkpt>
      <trkpt lat="44.38911" lon="4.26316">
        <ele>135</ele>
        <time>2014-05-30T10:23:12Z</time>
      </trkpt>
      <trkpt lat="44.38938" lon="4.26347">
        <ele>139</ele>
        <time>2014-05-30T10:23:24Z</time>
      </trkpt>
      <trkpt lat="44.38949" lon="4.26367">
        <ele>139</ele>
        <time>2014-05-30T10:23:37Z</time>
      </trkpt>
      <trkpt lat="44.38942" lon="4.26382">
        <ele>139</ele>
        <time>2014-05-30T10:23:51Z</time>
      </trkpt>
      <trkpt lat="44.38937" lon="4.26472">
        <ele>139</ele>
      </trkpt>
      <trkpt lat="44.38903" lon="4.26562">
        <ele>137</ele>
      </trkpt>
      <trkpt lat="44.38908" lon="4.26626">
        <ele>136</ele>
      </trkpt>
      <trkpt lat="44.38922" lon="4.26689">
        <ele>137</ele>
      </trkpt>
      <trkpt lat="44.38906" lon="4.26721">
        <ele>136</ele>
      </trkpt>
      <trkpt lat="44.38879" lon="4.26839">
        <ele>138</ele>
      </trkpt>
      <trkpt lat="44.38855" lon="4.26953">
        <ele>140</ele>
        <time>2014-05-30T10:26:03Z</time>
      </trkpt>
      <trkpt lat="44.38846" lon="4.26968">
        <ele>140</ele>
      </trkpt>
      <trkpt lat="44.38822" lon="4.27049">
        <ele>143</ele>
      </trkpt>
      <trkpt lat="44.3878" lon="4.27079">
        <ele>143</ele>
      </trkpt>
      <trkpt lat="44.38747" lon="4.27131">
        <ele>147</ele>
      </trkpt>
      <trkpt lat="44.38725" lon="4.27217">
        <ele>149</ele>
      </trkpt>
      <trkpt lat="44.38717" lon="4.27309">
        <ele>151</ele>
      </trkpt>
      <trkpt lat="44.38693" lon="4.2738">
        <ele>153</ele>
      </trkpt>
      <trkpt lat="44.38658" lon="4.27403">
        <ele>153</ele>
      </trkpt>
      <trkpt lat="44.38631" lon="4.27465">
        <ele>154</ele>
        <time>2014-05-30T10:28:11Z</time>
      </trkpt>
      <trkpt lat="44.38627" lon="4.27467">
        <ele>154</ele>
        <time>2014-05-30T10:28:19Z</time>
      </trkpt>
      <trkpt lat="44.38601" lon="4.27504">
        <ele>157</ele>
        <time>2014-05-30T10:28:33Z</time>
      </trkpt>
      <trkpt lat="44.38592" lon="4.27416">
        <ele>151</ele>
        <time>2014-05-30T10:28:48Z</time>
      </trkpt>
      <trkpt lat="44.38605" lon="4.27418">
        <ele>153</ele>
        <time>2014-05-30T10:29:08Z</time>
      </trkpt>
      <trkpt lat="44.38633" lon="4.27387">
        <ele>152</ele>
        <time>2014-05-30T10:29:32Z</time>
      </trkpt>
      <trkpt lat="44.38621" lon="4.27449">
        <ele>154</ele>
        <time>2014-05-30T10:29:53Z</time>
      </trkpt>
      <trkpt lat="44.38629" lon="4.27447">
        <ele>154</ele>
        <time>2014-05-30T10:30:09Z</time>
      </trkpt>
      <trkpt lat="44.38624" lon="4.275">
        <ele>154</ele>
        <time>2014-05-30T10:30:23Z</time>
      </trkpt>
      <trkpt lat="44.38691" lon="4.27474">
        <ele>153</ele>
        <time>2014-05-30T10:30:35Z</time>
      </trkpt>
      <trkpt lat="44.38703" lon="4.27441">
        <ele>153</ele>
        <time>2014-05-30T10:30:46Z</time>
      </trkpt>
      <trkpt lat="44.38734" lon="4.27443">
        <ele>153</ele>
        <time>2014-05-30T10:30:59Z</time>
      </trkpt>
      <trkpt lat="44.38769" lon="4.27429">
        <ele>153</ele>
        <time>2014-05-30T10:31:08Z</time>
      </trkpt>
      <trkpt lat="44.38807" lon="4.27403">
        <ele>154</ele>
        <time>2014-05-30T10:31:17Z</time>
      </trkpt>
      <trkpt lat="44.38819" lon="4.2742">
        <ele>154</ele>
        <time>2014-05-30T10:31:26Z</time>
      </trkpt>
      <trkpt lat="44.38832" lon="4.27416">
        <ele>155</ele>
        <time>2014-05-30T10:31:32Z</time>
      </trkpt>
      <trkpt lat="44.38863" lon="4.27424">
        <ele>155</ele>
        <time>2014-05-30T10:31:39Z</time>
      </trkpt>
      <trkpt lat="44.38891" lon="4.27448">
        <ele>155</ele>
        <time>2014-05-30T10:31:46Z</time>
      </trkpt>
      <trkpt lat="44.38923" lon="4.27482">
        <ele>154</ele>
        <time>2014-05-30T10:31:56Z</time>
      </trkpt>
      <trkpt lat="44.38949" lon="4.27504">
        <ele>151</ele>
        <time>2014-05-30T10:32:05Z</time>
      </trkpt>
      <trkpt lat="44.38972" lon="4.2751">
        <ele>150</ele>
        <time>2014-05-30T10:32:13Z</time>
      </trkpt>
      <trkpt lat="44.39069" lon="4.27512">
        <ele>143</ele>
        <time>2014-05-30T10:32:17Z</time>
      </trkpt>
      <trkpt lat="44.39101" lon="4.27491">
        <ele>142</ele>
        <time>2014-05-30T10:32:19Z</time>
      </trkpt>
      <trkpt lat="44.39167" lon="4.2749">
        <ele>141</ele>
      </trkpt>
      <trkpt lat="44.39223" lon="4.27553">
        <ele>137</ele>
      </trkpt>
      <trkpt lat="44.39268" lon="4.27634">
        <ele>133</ele>
      </trkpt>
      <trkpt lat="44.39302" lon="4.27729">
        <ele>134</ele>
        <time>2014-05-30T10:33:34Z</time>
      </trkpt>
      <trkpt lat="44.39285" lon="4.27761">
        <ele>136</ele>
        <time>2014-05-30T10:33:43Z</time>
      </trkpt>
      <trkpt lat="44.39266" lon="4.27786">
        <ele>136</ele>
        <time>2014-05-30T10:33:50Z</time>
      </trkpt>
      <trkpt lat="44.39249" lon="4.27812">
        <ele>138</ele>
        <time>2014-05-30T10:33:58Z</time>
      </trkpt>
      <trkpt lat="44.39222" lon="4.27828">
        <ele>138</ele>
        <time>2014-05-30T10:34:09Z</time>
      </trkpt>
      <trkpt lat="44.392" lon="4.27846">
        <ele>140</ele>
        <time>2014-05-30T10:34:21Z</time>
      </trkpt>
      <trkpt lat="44.39195" lon="4.2788">
        <ele>140</ele>
        <time>2014-05-30T10:34:28Z</time>
      </trkpt>
      <trkpt lat="44.39188" lon="4.2791">
        <ele>140</ele>
        <time>2014-05-30T10:34:36Z</time>
      </trkpt>
      <trkpt lat="44.39183" lon="4.27941">
        <ele>142</ele>
        <time>2014-05-30T10:34:44Z</time>
      </trkpt>
      <trkpt lat="44.3918" lon="4.27971">
        <ele>142</ele>
        <time>2014-05-30T10:34:52Z</time>
      </trkpt>
      <trkpt lat="44.39175" lon="4.27998">
        <ele>143</ele>
        <time>2014-05-30T10:35:00Z</time>
      </trkpt>
      <trkpt lat="44.39097" lon="4.28207">
        <ele>150</ele>
      </trkpt>
      <trkpt lat="44.39024" lon="4.28454">
        <ele>160</ele>
      </trkpt>
      <trkpt lat="44.39004" lon="4.28647">
        <ele>167</ele>
        <time>2014-05-30T10:38:28Z</time>
      </trkpt>
      <trkpt lat="44.38995" lon="4.2872">
        <ele>176</ele>
        <time>2014-05-30T10:38:30Z</time>
      </trkpt>
      <trkpt lat="44.38955" lon="4.28767">
        <ele>181</ele>
        <time>2014-05-30T10:38:32Z</time>
      </trkpt>
      <trkpt lat="44.38936" lon="4.28831">
        <ele>182</ele>
        <time>2014-05-30T10:38:44Z</time>
      </trkpt>
      <trkpt lat="44.38915" lon="4.28868">
        <ele>187</ele>
        <time>2014-05-30T10:40:58Z</time>
      </trkpt>
      <trkpt lat="44.38886" lon="4.28932">
        <ele>185</ele>
        <time>2014-05-30T10:42:21Z</time>
      </trkpt>
      <trkpt lat="44.38869" lon="4.28943">
        <ele>187</ele>
        <time>2014-05-30T10:44:25Z</time>
      </trkpt>
      <trkpt lat="44.38858" lon="4.28954">
        <ele>187</ele>
        <time>2014-05-30T10:47:56Z</time>
      </trkpt>
      <trkpt lat="44.3884" lon="4.28973">
        <ele>187</ele>
        <time>2014-05-30T10:48:04Z</time>
      </trkpt>
      <trkpt lat="44.38823" lon="4.28997">
        <ele>193</ele>
        <time>2014-05-30T10:48:13Z</time>
      </trkpt>
      <trkpt lat="44.3881" lon="4.29024">
        <ele>196</ele>
        <time>2014-05-30T10:48:22Z</time>
      </trkpt>
      <trkpt lat="44.38797" lon="4.2905">
        <ele>198</ele>
        <time>2014-05-30T10:48:32Z</time>
      </trkpt>
      <trkpt lat="44.38781" lon="4.29061">
        <ele>200</ele>
        <time>2014-05-30T10:48:43Z</time>
      </trkpt>
      <trkpt lat="44.38767" lon="4.29078">
        <ele>202</ele>
        <time>2014-05-30T10:48:52Z</time>
      </trkpt>
      <trkpt lat="44.38763" lon="4.29078">
        <ele>203</ele>
        <time>2014-05-30T10:49:01Z</time>
      </trkpt>
      <trkpt lat="44.38757" lon="4.29087">
        <ele>204</ele>
        <time>2014-05-30T10:49:11Z</time>
      </trkpt>
      <trkpt lat="44.38741" lon="4.29145">
        <ele>210</ele>
        <time>2014-05-30T10:49:51Z</time>
      </trkpt>
      <trkpt lat="44.38743" lon="4.29162">
        <ele>204</ele>
        <time>2014-05-30T10:50:00Z</time>
      </trkpt>
      <trkpt lat="44.38732" lon="4.29181">
        <ele>207</ele>
        <time>2014-05-30T10:50:10Z</time>
      </trkpt>
      <trkpt lat="44.38718" lon="4.29226">
        <ele>211</ele>
        <time>2014-05-30T10:50:18Z</time>
      </trkpt>
      <trkpt lat="44.38708" lon="4.29269">
        <ele>213</ele>
        <time>2014-05-30T10:50:25Z</time>
      </trkpt>
      <trkpt lat="44.38683" lon="4.29282">
        <ele>215</ele>
        <time>2014-05-30T10:50:35Z</time>
      </trkpt>
      <trkpt lat="44.38668" lon="4.29342">
        <ele>216</ele>
        <time>2014-05-30T10:50:46Z</time>
      </trkpt>
      <trkpt lat="44.3866" lon="4.29385">
        <ele>226</ele>
        <time>2014-05-30T10:50:54Z</time>
      </trkpt>
      <trkpt lat="44.38663" lon="4.29426">
        <ele>223</ele>
        <time>2014-05-30T10:51:02Z</time>
      </trkpt>
      <trkpt lat="44.38675" lon="4.29445">
        <ele>225</ele>
        <time>2014-05-30T10:51:06Z</time>
      </trkpt>
      <trkpt lat="44.38684" lon="4.29473">
        <ele>227</ele>
        <time>2014-05-30T10:51:09Z</time>
      </trkpt>
      <trkpt lat="44.38686" lon="4.29481">
        <ele>227</ele>
        <time>2014-05-30T10:51:14Z</time>
      </trkpt>
      <trkpt lat="44.38686" lon="4.29499">
        <ele>226</ele>
        <time>2014-05-30T10:51:25Z</time>
      </trkpt>
      <trkpt lat="44.38694" lon="4.29505">
        <ele>227</ele>
        <time>2014-05-30T10:51:36Z</time>
      </trkpt>
      <trkpt lat="44.38701" lon="4.2952">
        <ele>229</ele>
        <time>2014-05-30T10:51:45Z</time>
      </trkpt>
      <trkpt lat="44.3871" lon="4.29541">
        <ele>229</ele>
        <time>2014-05-30T10:52:00Z</time>
      </trkpt>
      <trkpt lat="44.38737" lon="4.29565">
        <ele>229</ele>
        <time>2014-05-30T10:52:16Z</time>
      </trkpt>
      <trkpt lat="44.38758" lon="4.29619">
        <ele>239</ele>
        <time>2014-05-30T10:52:32Z</time>
      </trkpt>
      <trkpt lat="44.3875" lon="4.29687">
        <ele>242</ele>
        <time>2014-05-30T10:52:48Z</time>
      </trkpt>
      <trkpt lat="44.38703" lon="4.30385">
        <ele>299</ele>
        <time>2014-05-30T10:57:56Z</time>
      </trkpt>
      <trkpt lat="44.38764" lon="4.305">
        <ele>309</ele>
        <time>2014-05-30T10:58:10Z</time>
      </trkpt>
      <trkpt lat="44.38833" lon="4.30581">
        <ele>315</ele>
        <time>2014-05-30T10:58:32Z</time>
      </trkpt>
      <trkpt lat="44.38866" lon="4.30599">
        <ele>325</ele>
        <time>2014-05-30T10:58:56Z</time>
      </trkpt>
      <trkpt lat="44.38869" lon="4.30717">
        <ele>331</ele>
        <time>2014-05-30T10:59:17Z</time>
      </trkpt>
      <trkpt lat="44.38869" lon="4.30789">
        <ele>334</ele>
        <time>2014-05-30T10:59:32Z</time>
      </trkpt>
      <trkpt lat="44.38877" lon="4.30879">
        <ele>336</ele>
        <time>2014-05-30T10:59:46Z</time>
      </trkpt>
      <trkpt lat="44.38917" lon="4.30942">
        <ele>340</ele>
        <time>2014-05-30T10:59:55Z</time>
      </trkpt>
      <trkpt lat="44.38943" lon="4.30997">
        <ele>341</ele>
        <time>2014-05-30T11:00:09Z</time>
      </trkpt>
      <trkpt lat="44.38966" lon="4.31032">
        <ele>344</ele>
        <time>2014-05-30T11:01:27Z</time>
      </trkpt>
      <trkpt lat="44.38996" lon="4.31079">
        <ele>345</ele>
        <time>2014-05-30T11:02:36Z</time>
      </trkpt>
      <trkpt lat="44.39019" lon="4.31115">
        <ele>348</ele>
        <time>2014-05-30T11:02:43Z</time>
      </trkpt>
      <trkpt lat="44.39044" lon="4.31156">
        <ele>349</ele>
        <time>2014-05-30T11:02:57Z</time>
      </trkpt>
      <trkpt lat="44.39067" lon="4.31182">
        <ele>352</ele>
        <time>2014-05-30T11:03:12Z</time>
      </trkpt>
      <trkpt lat="44.39095" lon="4.31177">
        <ele>352</ele>
        <time>2014-05-30T11:03:41Z</time>
      </trkpt>
      <trkpt lat="44.39122" lon="4.31201">
        <ele>355</ele>
        <time>2014-05-30T11:03:48Z</time>
      </trkpt>
      <trkpt lat="44.39141" lon="4.31205">
        <ele>356</ele>
        <time>2014-05-30T11:03:53Z</time>
      </trkpt>
      <trkpt lat="44.39144" lon="4.3127">
        <ele>358</ele>
        <time>2014-05-30T11:03:55Z</time>
      </trkpt>
      <trkpt lat="44.39139" lon="4.31282">
        <ele>358</ele>
        <time>2014-05-30T11:26:31Z</time>
      </trkpt>
      <trkpt lat="44.3908" lon="4.31349">
        <ele>363</ele>
        <time>2014-05-30T11:27:08Z</time>
      </trkpt>
      <trkpt lat="44.39077" lon="4.31367">
        <ele>365</ele>
        <time>2014-05-30T11:27:16Z</time>
      </trkpt>
      <trkpt lat="44.39072" lon="4.31375">
        <ele>365</ele>
        <time>2014-05-30T11:27:23Z</time>
      </trkpt>
      <trkpt lat="44.39092" lon="4.31345">
        <ele>359</ele>
        <time>2014-05-30T11:27:29Z</time>
      </trkpt>
      <trkpt lat="44.39099" lon="4.31334">
        <ele>359</ele>
        <time>2014-05-30T11:27:33Z</time>
      </trkpt>
      <trkpt lat="44.3911" lon="4.31322">
        <ele>358</ele>
        <time>2014-05-30T11:27:56Z</time>
      </trkpt>
      <trkpt lat="44.39122" lon="4.31313">
        <ele>358</ele>
        <time>2014-05-30T11:28:21Z</time>
      </trkpt>
      <trkpt lat="44.39136" lon="4.31299">
        <ele>357</ele>
        <time>2014-05-30T11:28:55Z</time>
      </trkpt>
      <trkpt lat="44.39142" lon="4.31296">
        <ele>357</ele>
        <time>2014-05-30T11:31:00Z</time>
      </trkpt>
      <trkpt lat="44.39227" lon="4.31285">
        <ele>357</ele>
        <time>2014-05-30T11:32:41Z</time>
      </trkpt>
      <trkpt lat="44.39258" lon="4.31279">
        <ele>356</ele>
        <time>2014-05-30T11:32:53Z</time>
      </trkpt>
      <trkpt lat="44.39288" lon="4.31275">
        <ele>355</ele>
        <time>2014-05-30T11:33:03Z</time>
      </trkpt>
      <trkpt lat="44.39318" lon="4.31272">
        <ele>355</ele>
        <time>2014-05-30T11:33:13Z</time>
      </trkpt>
      <trkpt lat="44.39349" lon="4.31283">
        <ele>352</ele>
        <time>2014-05-30T11:33:23Z</time>
      </trkpt>
      <trkpt lat="44.39379" lon="4.31294">
        <ele>351</ele>
        <time>2014-05-30T11:33:32Z</time>
      </trkpt>
      <trkpt lat="44.39409" lon="4.31305">
        <ele>350</ele>
        <time>2014-05-30T11:33:40Z</time>
      </trkpt>
      <trkpt lat="44.39438" lon="4.31308">
        <ele>347</ele>
        <time>2014-05-30T11:33:49Z</time>
      </trkpt>
      <trkpt lat="44.39464" lon="4.31317">
        <ele>347</ele>
        <time>2014-05-30T11:33:57Z</time>
      </trkpt>
      <trkpt lat="44.39498" lon="4.31329">
        <ele>347</ele>
        <time>2014-05-30T11:34:08Z</time>
      </trkpt>
      <trkpt lat="44.3953" lon="4.31331">
        <ele>344</ele>
        <time>2014-05-30T11:34:16Z</time>
      </trkpt>
      <trkpt lat="44.39562" lon="4.31329">
        <ele>343</ele>
        <time>2014-05-30T11:34:23Z</time>
      </trkpt>
      <trkpt lat="44.39594" lon="4.31329">
        <ele>342</ele>
        <time>2014-05-30T11:34:30Z</time>
      </trkpt>
      <trkpt lat="44.39628" lon="4.31331">
        <ele>340</ele>
        <time>2014-05-30T11:34:37Z</time>
      </trkpt>
      <trkpt lat="44.39661" lon="4.31339">
        <ele>340</ele>
        <time>2014-05-30T11:35:18Z</time>
      </trkpt>
      <trkpt lat="44.39668" lon="4.31351">
        <ele>340</ele>
        <time>2014-05-30T11:36:26Z</time>
      </trkpt>
      <trkpt lat="44.39671" lon="4.31399">
        <ele>339</ele>
        <time>2014-05-30T11:36:45Z</time>
      </trkpt>
      <trkpt lat="44.3967" lon="4.31468">
        <ele>337</ele>
        <time>2014-05-30T11:36:51Z</time>
      </trkpt>
      <trkpt lat="44.39675" lon="4.31496">
        <ele>336</ele>
        <time>2014-05-30T11:36:59Z</time>
      </trkpt>
      <trkpt lat="44.39684" lon="4.31532">
        <ele>335</ele>
        <time>2014-05-30T11:37:06Z</time>
      </trkpt>
      <trkpt lat="44.39686" lon="4.31546">
        <ele>335</ele>
        <time>2014-05-30T11:37:14Z</time>
      </trkpt>
      <trkpt lat="44.39688" lon="4.31555">
        <ele>335</ele>
        <time>2014-05-30T11:37:26Z</time>
      </trkpt>
      <trkpt lat="44.3972" lon="4.31573">
        <ele>334</ele>
        <time>2014-05-30T11:37:35Z</time>
      </trkpt>
      <trkpt lat="44.39746" lon="4.3159">
        <ele>333</ele>
        <time>2014-05-30T11:37:46Z</time>
      </trkpt>
      <trkpt lat="44.39776" lon="4.31605">
        <ele>331</ele>
        <time>2014-05-30T11:37:52Z</time>
      </trkpt>
      <trkpt lat="44.39809" lon="4.31621">
        <ele>330</ele>
        <time>2014-05-30T11:37:58Z</time>
      </trkpt>
      <trkpt lat="44.39832" lon="4.31644">
        <ele>329</ele>
        <time>2014-05-30T11:38:04Z</time>
      </trkpt>
      <trkpt lat="44.39858" lon="4.31662">
        <ele>332</ele>
        <time>2014-05-30T11:38:13Z</time>
      </trkpt>
      <trkpt lat="44.39874" lon="4.31693">
        <ele>329</ele>
        <time>2014-05-30T11:38:26Z</time>
      </trkpt>
      <trkpt lat="44.39865" lon="4.31716">
        <ele>328</ele>
        <time>2014-05-30T11:38:36Z</time>
      </trkpt>
      <trkpt lat="44.39875" lon="4.31739">
        <ele>328</ele>
        <time>2014-05-30T11:38:42Z</time>
      </trkpt>
      <trkpt lat="44.39885" lon="4.31773">
        <ele>325</ele>
        <time>2014-05-30T11:38:48Z</time>
      </trkpt>
      <trkpt lat="44.39894" lon="4.31809">
        <ele>324</ele>
        <time>2014-05-30T11:38:53Z</time>
      </trkpt>
      <trkpt lat="44.39887" lon="4.31842">
        <ele>323</ele>
        <time>2014-05-30T11:38:56Z</time>
      </trkpt>
      <trkpt lat="44.3989" lon="4.31879">
        <ele>323</ele>
        <time>2014-05-30T11:39:02Z</time>
      </trkpt>
      <trkpt lat="44.39906" lon="4.3191">
        <ele>322</ele>
        <time>2014-05-30T11:39:10Z</time>
      </trkpt>
      <trkpt lat="44.39913" lon="4.31943">
        <ele>322</ele>
        <time>2014-05-30T11:39:19Z</time>
      </trkpt>
      <trkpt lat="44.39914" lon="4.31976">
        <ele>322</ele>
        <time>2014-05-30T11:39:26Z</time>
      </trkpt>
      <trkpt lat="44.39917" lon="4.32009">
        <ele>319</ele>
        <time>2014-05-30T11:39:32Z</time>
      </trkpt>
      <trkpt lat="44.39916" lon="4.32038">
        <ele>321</ele>
        <time>2014-05-30T11:39:43Z</time>
      </trkpt>
      <trkpt lat="44.39917" lon="4.32072">
        <ele>318</ele>
        <time>2014-05-30T11:39:53Z</time>
      </trkpt>
      <trkpt lat="44.3993" lon="4.321">
        <ele>318</ele>
        <time>2014-05-30T11:40:00Z</time>
      </trkpt>
      <trkpt lat="44.39967" lon="4.32116">
        <ele>318</ele>
        <time>2014-05-30T11:40:07Z</time>
      </trkpt>
      <trkpt lat="44.39993" lon="4.32134">
        <ele>317</ele>
        <time>2014-05-30T11:40:13Z</time>
      </trkpt>
      <trkpt lat="44.4001" lon="4.32166">
        <ele>316</ele>
        <time>2014-05-30T11:40:19Z</time>
      </trkpt>
      <trkpt lat="44.40022" lon="4.32203">
        <ele>314</ele>
        <time>2014-05-30T11:40:25Z</time>
      </trkpt>
      <trkpt lat="44.40046" lon="4.32225">
        <ele>314</ele>
        <time>2014-05-30T11:40:32Z</time>
      </trkpt>
      <trkpt lat="44.40076" lon="4.32237">
        <ele>311</ele>
        <time>2014-05-30T11:40:38Z</time>
      </trkpt>
      <trkpt lat="44.40108" lon="4.32254">
        <ele>309</ele>
        <time>2014-05-30T11:40:44Z</time>
      </trkpt>
      <trkpt lat="44.4012" lon="4.32288">
        <ele>309</ele>
        <time>2014-05-30T11:40:53Z</time>
      </trkpt>
      <trkpt lat="44.40124" lon="4.32321">
        <ele>309</ele>
        <time>2014-05-30T11:41:01Z</time>
      </trkpt>
      <trkpt lat="44.40121" lon="4.32354">
        <ele>313</ele>
        <time>2014-05-30T11:41:10Z</time>
      </trkpt>
      <trkpt lat="44.40105" lon="4.3238">
        <ele>314</ele>
        <time>2014-05-30T11:41:21Z</time>
      </trkpt>
      <trkpt lat="44.40101" lon="4.3241">
        <ele>315</ele>
        <time>2014-05-30T11:41:33Z</time>
      </trkpt>
      <trkpt lat="44.40114" lon="4.32439">
        <ele>319</ele>
        <time>2014-05-30T11:41:44Z</time>
      </trkpt>
      <trkpt lat="44.40121" lon="4.32467">
        <ele>320</ele>
        <time>2014-05-30T11:41:58Z</time>
      </trkpt>
      <trkpt lat="44.40121" lon="4.32498">
        <ele>321</ele>
        <time>2014-05-30T11:42:15Z</time>
      </trkpt>
      <trkpt lat="44.40104" lon="4.32522">
        <ele>323</ele>
        <time>2014-05-30T11:42:29Z</time>
      </trkpt>
      <trkpt lat="44.40115" lon="4.32528">
        <ele>324</ele>
        <time>2014-05-30T11:42:41Z</time>
      </trkpt>
      <trkpt lat="44.4012" lon="4.32556">
        <ele>325</ele>
        <time>2014-05-30T11:42:54Z</time>
      </trkpt>
      <trkpt lat="44.40097" lon="4.32597">
        <ele>327</ele>
        <time>2014-05-30T11:43:05Z</time>
      </trkpt>
      <trkpt lat="44.40094" lon="4.32637">
        <ele>329</ele>
        <time>2014-05-30T11:43:15Z</time>
      </trkpt>
      <trkpt lat="44.40098" lon="4.32648">
        <ele>329</ele>
        <time>2014-05-30T11:43:23Z</time>
      </trkpt>
      <trkpt lat="44.4011" lon="4.32662">
        <ele>329</ele>
        <time>2014-05-30T11:43:48Z</time>
      </trkpt>
      <trkpt lat="44.40123" lon="4.32675">
        <ele>332</ele>
        <time>2014-05-30T11:43:52Z</time>
      </trkpt>
      <trkpt lat="44.40139" lon="4.32689">
        <ele>331</ele>
        <time>2014-05-30T11:44:11Z</time>
      </trkpt>
      <trkpt lat="44.40144" lon="4.32692">
        <ele>331</ele>
        <time>2014-05-30T11:44:28Z</time>
      </trkpt>
      <trkpt lat="44.40135" lon="4.32685">
        <ele>331</ele>
        <time>2014-05-30T11:44:46Z</time>
      </trkpt>
      <trkpt lat="44.40154" lon="4.32661">
        <ele>328</ele>
        <time>2014-05-30T11:45:02Z</time>
      </trkpt>
      <trkpt lat="44.40185" lon="4.32631">
        <ele>326</ele>
        <time>2014-05-30T11:45:11Z</time>
      </trkpt>
      <trkpt lat="44.40193" lon="4.32634">
        <ele>325</ele>
        <time>2014-05-30T11:45:41Z</time>
      </trkpt>
      <trkpt lat="44.40204" lon="4.32625">
        <ele>325</ele>
        <time>2014-05-30T11:46:07Z</time>
      </trkpt>
      <trkpt lat="44.40188" lon="4.32652">
        <ele>326</ele>
        <time>2014-05-30T11:46:20Z</time>
      </trkpt>
      <trkpt lat="44.40173" lon="4.32677">
        <ele>328</ele>
        <time>2014-05-30T11:46:32Z</time>
      </trkpt>
      <trkpt lat="44.40147" lon="4.32694">
        <ele>331</ele>
        <time>2014-05-30T11:46:46Z</time>
      </trkpt>
      <trkpt lat="44.40124" lon="4.32717">
        <ele>332</ele>
        <time>2014-05-30T11:47:00Z</time>
      </trkpt>
      <trkpt lat="44.40103" lon="4.32742">
        <ele>334</ele>
        <time>2014-05-30T11:47:12Z</time>
      </trkpt>
      <trkpt lat="44.40079" lon="4.32762">
        <ele>339</ele>
        <time>2014-05-30T11:47:22Z</time>
      </trkpt>
      <trkpt lat="44.40057" lon="4.32786">
        <ele>342</ele>
        <time>2014-05-30T11:47:31Z</time>
      </trkpt>
      <trkpt lat="44.40038" lon="4.32809">
        <ele>344</ele>
        <time>2014-05-30T11:47:40Z</time>
      </trkpt>
      <trkpt lat="44.40032" lon="4.32838">
        <ele>347</ele>
        <time>2014-05-30T11:47:50Z</time>
      </trkpt>
      <trkpt lat="44.40039" lon="4.32877">
        <ele>347</ele>
        <time>2014-05-30T11:48:00Z</time>
      </trkpt>
      <trkpt lat="44.40036" lon="4.32909">
        <ele>347</ele>
        <time>2014-05-30T11:48:10Z</time>
      </trkpt>
      <trkpt lat="44.40012" lon="4.33">
        <ele>350</ele>
        <time>2014-05-30T11:56:33Z</time>
      </trkpt>
      <trkpt lat="44.39943" lon="4.3309">
        <ele>345</ele>
        <time>2014-05-30T11:56:43Z</time>
      </trkpt>
      <trkpt lat="44.39897" lon="4.33069">
        <ele>359</ele>
        <time>2014-05-30T11:56:52Z</time>
      </trkpt>
      <trkpt lat="44.39854" lon="4.33065">
        <ele>359</ele>
        <time>2014-05-30T11:59:44Z</time>
      </trkpt>
      <trkpt lat="44.39854" lon="4.33074">
        <ele>358</ele>
      </trkpt>
      <trkpt lat="44.39823" lon="4.33088">
        <ele>349</ele>
      </trkpt>
      <trkpt lat="44.39768" lon="4.33082">
        <ele>360</ele>
      </trkpt>
      <trkpt lat="44.39711" lon="4.33103">
        <ele>353</ele>
      </trkpt>
      <trkpt lat="44.39665" lon="4.33138">
        <ele>353</ele>
      </trkpt>
      <trkpt lat="44.39632" lon="4.33144">
        <ele>354</ele>
      </trkpt>
      <trkpt lat="44.3959" lon="4.3314">
        <ele>354</ele>
      </trkpt>
      <trkpt lat="44.39589" lon="4.33176">
        <ele>351</ele>
      </trkpt>
      <trkpt lat="44.39609" lon="4.33206">
        <ele>354</ele>
      </trkpt>
      <trkpt lat="44.39644" lon="4.33213">
        <ele>354</ele>
      </trkpt>
      <trkpt lat="44.39684" lon="4.33202">
        <ele>349</ele>
      </trkpt>
      <trkpt lat="44.39747" lon="4.33193">
        <ele>346</ele>
      </trkpt>
      <trkpt lat="44.39793" lon="4.3321">
        <ele>340</ele>
      </trkpt>
      <trkpt lat="44.39857" lon="4.33268">
        <ele>337</ele>
      </trkpt>
      <trkpt lat="44.39915" lon="4.33294">
        <ele>334</ele>
      </trkpt>
      <trkpt lat="44.39929" lon="4.33371">
        <ele>341</ele>
      </trkpt>
      <trkpt lat="44.39943" lon="4.33406">
        <ele>343</ele>
      </trkpt>
      <trkpt lat="44.39969" lon="4.33367">
        <ele>340</ele>
      </trkpt>
      <trkpt lat="44.40044" lon="4.33315">
        <ele>331</ele>
      </trkpt>
      <trkpt lat="44.40079" lon="4.33324">
        <ele>335</ele>
      </trkpt>
      <trkpt lat="44.40109" lon="4.33257">
        <ele>333</ele>
      </trkpt>
      <trkpt lat="44.40178" lon="4.3324">
        <ele>333</ele>
      </trkpt>
      <trkpt lat="44.40231" lon="4.33227">
        <ele>331</ele>
      </trkpt>
      <trkpt lat="44.40236" lon="4.33268">
        <ele>336</ele>
      </trkpt>
      <trkpt lat="44.40236" lon="4.33324">
        <ele>337</ele>
      </trkpt>
      <trkpt lat="44.40251" lon="4.33365">
        <ele>322</ele>
      </trkpt>
      <trkpt lat="44.40225" lon="4.33427">
        <ele>337</ele>
      </trkpt>
      <trkpt lat="44.40222" lon="4.33487">
        <ele>336</ele>
      </trkpt>
      <trkpt lat="44.40248" lon="4.33526">
        <ele>331</ele>
      </trkpt>
      <trkpt lat="44.40236" lon="4.33581">
        <ele>330</ele>
      </trkpt>
      <trkpt lat="44.40231" lon="4.33626">
        <ele>340</ele>
      </trkpt>
      <trkpt lat="44.40283" lon="4.33656">
        <ele>318</ele>
      </trkpt>
      <trkpt lat="44.40297" lon="4.33716">
        <ele>331</ele>
      </trkpt>
      <trkpt lat="44.40337" lon="4.33723">
        <ele>318</ele>
      </trkpt>
      <trkpt lat="44.40375" lon="4.33725">
        <ele>316</ele>
      </trkpt>
      <trkpt lat="44.40398" lon="4.33776">
        <ele>323</ele>
      </trkpt>
      <trkpt lat="44.40406" lon="4.3386">
        <ele>329</ele>
      </trkpt>
      <trkpt lat="44.40393" lon="4.33933">
        <ele>339</ele>
      </trkpt>
      <trkpt lat="44.4045" lon="4.33952">
        <ele>328</ele>
      </trkpt>
      <trkpt lat="44.4049" lon="4.33946">
        <ele>324</ele>
      </trkpt>
      <trkpt lat="44.40539" lon="4.33959">
        <ele>318</ele>
        <time>2014-05-30T12:02:43Z</time>
      </trkpt>
      <trkpt lat="44.40525" lon="4.33979">
        <ele>320</ele>
        <time>2014-05-30T12:03:02Z</time>
      </trkpt>
      <trkpt lat="44.40537" lon="4.33965">
        <ele>318</ele>
        <time>2014-05-30T12:03:41Z</time>
      </trkpt>
      <trkpt lat="44.40506" lon="4.33985">
        <ele>323</ele>
        <time>2014-05-30T12:04:20Z</time>
      </trkpt>
      <trkpt lat="44.40478" lon="4.33995">
        <ele>329</ele>
        <time>2014-05-30T12:04:43Z</time>
      </trkpt>
      <trkpt lat="44.40449" lon="4.34002">
        <ele>340</ele>
        <time>2014-05-30T12:05:03Z</time>
      </trkpt>
      <trkpt lat="44.4042" lon="4.34006">
        <ele>342</ele>
        <time>2014-05-30T12:05:21Z</time>
      </trkpt>
      <trkpt lat="44.40364" lon="4.34004">
        <ele>356</ele>
        <time>2014-05-30T12:14:00Z</time>
      </trkpt>
      <trkpt lat="44.40381" lon="4.34038">
        <ele>354</ele>
        <time>2014-05-30T12:22:28Z</time>
      </trkpt>
      <trkpt lat="44.40361" lon="4.34">
        <ele>351</ele>
        <time>2014-05-30T12:22:30Z</time>
      </trkpt>
      <trkpt lat="44.40324" lon="4.33909">
        <ele>356</ele>
        <time>2014-05-30T12:22:32Z</time>
      </trkpt>
      <trkpt lat="44.40297" lon="4.33845">
        <ele>357</ele>
        <time>2014-05-30T12:22:34Z</time>
      </trkpt>
      <trkpt lat="44.40223" lon="4.33824">
        <ele>363</ele>
        <time>2014-05-30T12:22:36Z</time>
      </trkpt>
      <trkpt lat="44.40211" lon="4.33797">
        <ele>362</ele>
      </trkpt>
      <trkpt lat="44.40183" lon="4.33751">
        <ele>364</ele>
      </trkpt>
      <trkpt lat="44.4015" lon="4.33708">
        <ele>365</ele>
      </trkpt>
      <trkpt lat="44.4011" lon="4.33686">
        <ele>367</ele>
      </trkpt>
      <trkpt lat="44.40061" lon="4.33699">
        <ele>367</ele>
      </trkpt>
      <trkpt lat="44.40018" lon="4.33717">
        <ele>365</ele>
      </trkpt>
      <trkpt lat="44.39978" lon="4.33691">
        <ele>361</ele>
      </trkpt>
      <trkpt lat="44.39944" lon="4.33652">
        <ele>363</ele>
      </trkpt>
      <trkpt lat="44.39895" lon="4.33592">
        <ele>352</ele>
      </trkpt>
      <trkpt lat="44.39843" lon="4.33562">
        <ele>356</ele>
      </trkpt>
      <trkpt lat="44.39794" lon="4.33494">
        <ele>367</ele>
      </trkpt>
      <trkpt lat="44.39742" lon="4.33459">
        <ele>368</ele>
      </trkpt>
      <trkpt lat="44.39702" lon="4.33417">
        <ele>370</ele>
      </trkpt>
      <trkpt lat="44.39635" lon="4.33339">
        <ele>370</ele>
      </trkpt>
      <trkpt lat="44.39558" lon="4.33331">
        <ele>374</ele>
      </trkpt>
      <trkpt lat="44.395" lon="4.33335">
        <ele>385</ele>
      </trkpt>
      <trkpt lat="44.3946" lon="4.33356">
        <ele>386</ele>
      </trkpt>
      <trkpt lat="44.39395" lon="4.33369">
        <ele>397</ele>
      </trkpt>
      <trkpt lat="44.39328" lon="4.33363">
        <ele>408</ele>
        <time>2014-05-30T12:23:46Z</time>
      </trkpt>
      <trkpt lat="44.39328" lon="4.33335">
        <ele>409</ele>
        <time>2014-05-30T12:23:48Z</time>
      </trkpt>
      <trkpt lat="44.39326" lon="4.33367">
        <ele>407</ele>
        <time>2014-05-30T12:23:53Z</time>
      </trkpt>
      <trkpt lat="44.3932" lon="4.33311">
        <ele>408</ele>
        <time>2014-05-30T12:24:38Z</time>
      </trkpt>
      <trkpt lat="44.39317" lon="4.3333">
        <ele>409</ele>
        <time>2014-05-30T12:25:46Z</time>
      </trkpt>
      <trkpt lat="44.39314" lon="4.33338">
        <ele>409</ele>
        <time>2014-05-30T12:26:53Z</time>
      </trkpt>
      <trkpt lat="44.39303" lon="4.33357">
        <ele>408</ele>
        <time>2014-05-30T12:27:33Z</time>
      </trkpt>
      <trkpt lat="44.39289" lon="4.33371">
        <ele>408</ele>
        <time>2014-05-30T12:28:31Z</time>
      </trkpt>
      <trkpt lat="44.39263" lon="4.33346">
        <ele>410</ele>
      </trkpt>
      <trkpt lat="44.39237" lon="4.33292">
        <ele>408</ele>
        <time>2014-05-30T13:15:39Z</time>
      </trkpt>
      <trkpt lat="44.39231" lon="4.33292">
        <ele>407</ele>
      </trkpt>
      <trkpt lat="44.39217" lon="4.33273">
        <ele>407</ele>
      </trkpt>
      <trkpt lat="44.3919" lon="4.33236">
        <ele>411</ele>
      </trkpt>
      <trkpt lat="44.39168" lon="4.33198">
        <ele>414</ele>
      </trkpt>
      <trkpt lat="44.39147" lon="4.33157">
        <ele>422</ele>
      </trkpt>
      <trkpt lat="44.39135" lon="4.33112">
        <ele>425</ele>
      </trkpt>
      <trkpt lat="44.39138" lon="4.3305">
        <ele>430</ele>
      </trkpt>
      <trkpt lat="44.39149" lon="4.32979">
        <ele>428</ele>
      </trkpt>
      <trkpt lat="44.3917" lon="4.32923">
        <ele>434</ele>
      </trkpt>
      <trkpt lat="44.39212" lon="4.32846">
        <ele>439</ele>
      </trkpt>
      <trkpt lat="44.39218" lon="4.32775">
        <ele>448</ele>
      </trkpt>
      <trkpt lat="44.39202" lon="4.32752">
        <ele>448</ele>
      </trkpt>
      <trkpt lat="44.39172" lon="4.32722">
        <ele>447</ele>
      </trkpt>
      <trkpt lat="44.39144" lon="4.3266">
        <ele>447</ele>
      </trkpt>
      <trkpt lat="44.39132" lon="4.3266">
        <ele>446</ele>
      </trkpt>
      <trkpt lat="44.39103" lon="4.32679">
        <ele>435</ele>
      </trkpt>
      <trkpt lat="44.3908" lon="4.32666">
        <ele>435</ele>
      </trkpt>
      <trkpt lat="44.39057" lon="4.32655">
        <ele>439</ele>
      </trkpt>
      <trkpt lat="44.39028" lon="4.32619">
        <ele>443</ele>
      </trkpt>
      <trkpt lat="44.3898" lon="4.3258">
        <ele>455</ele>
      </trkpt>
      <trkpt lat="44.38951" lon="4.3255">
        <ele>457</ele>
      </trkpt>
      <trkpt lat="44.38923" lon="4.32535">
        <ele>458</ele>
      </trkpt>
      <trkpt lat="44.38887" lon="4.3252">
        <ele>448</ele>
      </trkpt>
      <trkpt lat="44.38858" lon="4.32522">
        <ele>444</ele>
      </trkpt>
      <trkpt lat="44.38841" lon="4.32488">
        <ele>458</ele>
      </trkpt>
      <trkpt lat="44.38825" lon="4.32465">
        <ele>455</ele>
      </trkpt>
      <trkpt lat="44.38802" lon="4.32471">
        <ele>452</ele>
      </trkpt>
      <trkpt lat="44.38781" lon="4.32473">
        <ele>449</ele>
      </trkpt>
      <trkpt lat="44.38762" lon="4.32473">
        <ele>446</ele>
      </trkpt>
      <trkpt lat="44.3875" lon="4.32467">
        <ele>448</ele>
      </trkpt>
      <trkpt lat="44.38732" lon="4.32475">
        <ele>437</ele>
      </trkpt>
      <trkpt lat="44.38723" lon="4.3245">
        <ele>443</ele>
      </trkpt>
      <trkpt lat="44.38713" lon="4.32426">
        <ele>447</ele>
      </trkpt>
      <trkpt lat="44.387" lon="4.3245">
        <ele>442</ele>
      </trkpt>
      <trkpt lat="44.38686" lon="4.32452">
        <ele>441</ele>
      </trkpt>
      <trkpt lat="44.38657" lon="4.32463">
        <ele>429</ele>
      </trkpt>
      <trkpt lat="44.38601" lon="4.32465">
        <ele>424</ele>
      </trkpt>
      <trkpt lat="44.38588" lon="4.32435">
        <ele>426</ele>
      </trkpt>
      <trkpt lat="44.38568" lon="4.32405">
        <ele>422</ele>
      </trkpt>
      <trkpt lat="44.38539" lon="4.32364">
        <ele>419</ele>
      </trkpt>
      <trkpt lat="44.3852" lon="4.3234">
        <ele>416</ele>
      </trkpt>
      <trkpt lat="44.38502" lon="4.32259">
        <ele>429</ele>
      </trkpt>
      <trkpt lat="44.38476" lon="4.32203">
        <ele>427</ele>
      </trkpt>
      <trkpt lat="44.38448" lon="4.32143">
        <ele>444</ele>
      </trkpt>
      <trkpt lat="44.3843" lon="4.32066">
        <ele>465</ele>
      </trkpt>
      <trkpt lat="44.3839" lon="4.32049">
        <ele>450</ele>
      </trkpt>
      <trkpt lat="44.3835" lon="4.32051">
        <ele>443</ele>
      </trkpt>
      <trkpt lat="44.38323" lon="4.3204">
        <ele>427</ele>
      </trkpt>
      <trkpt lat="44.38306" lon="4.32047">
        <ele>424</ele>
      </trkpt>
      <trkpt lat="44.38281" lon="4.32047">
        <ele>420</ele>
      </trkpt>
      <trkpt lat="44.3825" lon="4.32038">
        <ele>418</ele>
      </trkpt>
      <trkpt lat="44.38255" lon="4.32077">
        <ele>408</ele>
      </trkpt>
      <trkpt lat="44.3827" lon="4.32107">
        <ele>403</ele>
      </trkpt>
      <trkpt lat="44.38295" lon="4.32109">
        <ele>406</ele>
      </trkpt>
      <trkpt lat="44.38283" lon="4.32126">
        <ele>402</ele>
      </trkpt>
      <trkpt lat="44.38257" lon="4.32141">
        <ele>396</ele>
      </trkpt>
      <trkpt lat="44.38229" lon="4.32154">
        <ele>381</ele>
      </trkpt>
      <trkpt lat="44.38207" lon="4.3215">
        <ele>379</ele>
      </trkpt>
      <trkpt lat="44.38191" lon="4.32139">
        <ele>378</ele>
      </trkpt>
      <trkpt lat="44.38183" lon="4.32105">
        <ele>381</ele>
      </trkpt>
      <trkpt lat="44.38174" lon="4.32043">
        <ele>394</ele>
      </trkpt>
      <trkpt lat="44.38158" lon="4.32053">
        <ele>386</ele>
      </trkpt>
      <trkpt lat="44.38148" lon="4.32088">
        <ele>377</ele>
      </trkpt>
      <trkpt lat="44.38122" lon="4.32115">
        <ele>375</ele>
      </trkpt>
      <trkpt lat="44.38074" lon="4.32146">
        <ele>370</ele>
      </trkpt>
      <trkpt lat="44.38023" lon="4.32173">
        <ele>357</ele>
      </trkpt>
      <trkpt lat="44.37997" lon="4.32203">
        <ele>350</ele>
      </trkpt>
      <trkpt lat="44.37974" lon="4.32244">
        <ele>344</ele>
      </trkpt>
      <trkpt lat="44.37953" lon="4.32264">
        <ele>332</ele>
      </trkpt>
      <trkpt lat="44.37921" lon="4.32287">
        <ele>329</ele>
      </trkpt>
      <trkpt lat="44.3789" lon="4.32289">
        <ele>326</ele>
      </trkpt>
      <trkpt lat="44.37868" lon="4.32272">
        <ele>326</ele>
      </trkpt>
      <trkpt lat="44.37829" lon="4.32242">
        <ele>324</ele>
      </trkpt>
      <trkpt lat="44.37801" lon="4.32204">
        <ele>322</ele>
      </trkpt>
      <trkpt lat="44.37787" lon="4.3221">
        <ele>321</ele>
      </trkpt>
      <trkpt lat="44.37769" lon="4.32178">
        <ele>321</ele>
      </trkpt>
      <trkpt lat="44.3775" lon="4.32195">
        <ele>320</ele>
      </trkpt>
      <trkpt lat="44.3772" lon="4.32227">
        <ele>311</ele>
      </trkpt>
      <trkpt lat="44.37686" lon="4.32229">
        <ele>310</ele>
      </trkpt>
      <trkpt lat="44.37638" lon="4.3221">
        <ele>307</ele>
      </trkpt>
      <trkpt lat="44.37602" lon="4.32189">
        <ele>306</ele>
      </trkpt>
      <trkpt lat="44.37559" lon="4.32167">
        <ele>301</ele>
      </trkpt>
      <trkpt lat="44.375" lon="4.32137">
        <ele>301</ele>
      </trkpt>
      <trkpt lat="44.37473" lon="4.32094">
        <ele>295</ele>
      </trkpt>
      <trkpt lat="44.37457" lon="4.32047">
        <ele>299</ele>
      </trkpt>
      <trkpt lat="44.37433" lon="4.32069">
        <ele>296</ele>
      </trkpt>
      <trkpt lat="44.37402" lon="4.32075">
        <ele>291</ele>
      </trkpt>
      <trkpt lat="44.37382" lon="4.32056">
        <ele>291</ele>
      </trkpt>
      <trkpt lat="44.37346" lon="4.32026">
        <ele>291</ele>
      </trkpt>
      <trkpt lat="44.37313" lon="4.31981">
        <ele>290</ele>
      </trkpt>
      <trkpt lat="44.37283" lon="4.31962">
        <ele>289</ele>
      </trkpt>
      <trkpt lat="44.37247" lon="4.31947">
        <ele>286</ele>
      </trkpt>
      <trkpt lat="44.37231" lon="4.31979">
        <ele>284</ele>
      </trkpt>
      <trkpt lat="44.37188" lon="4.31949">
        <ele>285</ele>
      </trkpt>
      <trkpt lat="44.37149" lon="4.31934">
        <ele>286</ele>
      </trkpt>
      <trkpt lat="44.37136" lon="4.31872">
        <ele>287</ele>
      </trkpt>
      <trkpt lat="44.37109" lon="4.31835">
        <ele>286</ele>
      </trkpt>
      <trkpt lat="44.37063" lon="4.31827">
        <ele>285</ele>
      </trkpt>
      <trkpt lat="44.37034" lon="4.31783">
        <ele>285</ele>
        <time>2014-05-30T13:43:59Z</time>
      </trkpt>
      <trkpt lat="44.3704" lon="4.31784">
        <ele>285</ele>
        <time>2014-05-30T13:44:18Z</time>
      </trkpt>
      <trkpt lat="44.37035" lon="4.31785">
        <ele>285</ele>
        <time>2014-05-30T13:44:32Z</time>
      </trkpt>
      <trkpt lat="44.36984" lon="4.31771">
        <ele>282</ele>
        <time>2014-05-30T13:44:38Z</time>
      </trkpt>
      <trkpt lat="44.36949" lon="4.3176">
        <ele>281</ele>
        <time>2014-05-30T13:44:43Z</time>
      </trkpt>
      <trkpt lat="44.36915" lon="4.31751">
        <ele>279</ele>
        <time>2014-05-30T13:44:49Z</time>
      </trkpt>
      <trkpt lat="44.36881" lon="4.31748">
        <ele>278</ele>
        <time>2014-05-30T13:44:56Z</time>
      </trkpt>
      <trkpt lat="44.36852" lon="4.3173">
        <ele>277</ele>
        <time>2014-05-30T13:45:06Z</time>
      </trkpt>
      <trkpt lat="44.3683" lon="4.3171">
        <ele>274</ele>
        <time>2014-05-30T13:45:17Z</time>
      </trkpt>
      <trkpt lat="44.3681" lon="4.31677">
        <ele>274</ele>
        <time>2014-05-30T13:45:25Z</time>
      </trkpt>
      <trkpt lat="44.36807" lon="4.31645">
        <ele>272</ele>
        <time>2014-05-30T13:45:30Z</time>
      </trkpt>
      <trkpt lat="44.3682" lon="4.31646">
        <ele>273</ele>
        <time>2014-05-30T13:45:58Z</time>
      </trkpt>
      <trkpt lat="44.36831" lon="4.31635">
        <ele>272</ele>
        <time>2014-05-30T13:47:09Z</time>
      </trkpt>
      <trkpt lat="44.36829" lon="4.31596">
        <ele>270</ele>
        <time>2014-05-30T13:47:17Z</time>
      </trkpt>
      <trkpt lat="44.36799" lon="4.31588">
        <ele>270</ele>
        <time>2014-05-30T13:47:24Z</time>
      </trkpt>
      <trkpt lat="44.36766" lon="4.31605">
        <ele>270</ele>
        <time>2014-05-30T13:47:31Z</time>
      </trkpt>
      <trkpt lat="44.36734" lon="4.31618">
        <ele>269</ele>
        <time>2014-05-30T13:47:41Z</time>
      </trkpt>
      <trkpt lat="44.36721" lon="4.31611">
        <ele>270</ele>
        <time>2014-05-30T13:48:19Z</time>
      </trkpt>
      <trkpt lat="44.36719" lon="4.31576">
        <ele>271</ele>
        <time>2014-05-30T13:48:36Z</time>
      </trkpt>
      <trkpt lat="44.36719" lon="4.31546">
        <ele>272</ele>
        <time>2014-05-30T13:48:46Z</time>
      </trkpt>
      <trkpt lat="44.36721" lon="4.31516">
        <ele>272</ele>
        <time>2014-05-30T13:48:58Z</time>
      </trkpt>
      <trkpt lat="44.36727" lon="4.31484">
        <ele>272</ele>
        <time>2014-05-30T13:49:10Z</time>
      </trkpt>
      <trkpt lat="44.36714" lon="4.31457">
        <ele>273</ele>
        <time>2014-05-30T13:49:22Z</time>
      </trkpt>
      <trkpt lat="44.36694" lon="4.31435">
        <ele>272</ele>
        <time>2014-05-30T13:49:32Z</time>
      </trkpt>
      <trkpt lat="44.36686" lon="4.31401">
        <ele>273</ele>
        <time>2014-05-30T13:49:41Z</time>
      </trkpt>
      <trkpt lat="44.36668" lon="4.31372">
        <ele>274</ele>
        <time>2014-05-30T13:49:49Z</time>
      </trkpt>
      <trkpt lat="44.3664" lon="4.31354">
        <ele>274</ele>
        <time>2014-05-30T13:49:59Z</time>
      </trkpt>
      <trkpt lat="44.36618" lon="4.31332">
        <ele>276</ele>
        <time>2014-05-30T13:50:09Z</time>
      </trkpt>
      <trkpt lat="44.36593" lon="4.3131">
        <ele>276</ele>
        <time>2014-05-30T13:50:18Z</time>
      </trkpt>
      <trkpt lat="44.36582" lon="4.3128">
        <ele>277</ele>
        <time>2014-05-30T13:50:27Z</time>
      </trkpt>
      <trkpt lat="44.36589" lon="4.31258">
        <ele>277</ele>
        <time>2014-05-30T13:50:44Z</time>
      </trkpt>
      <trkpt lat="44.36602" lon="4.31238">
        <ele>279</ele>
        <time>2014-05-30T13:50:59Z</time>
      </trkpt>
      <trkpt lat="44.36622" lon="4.31211">
        <ele>279</ele>
        <time>2014-05-30T13:51:09Z</time>
      </trkpt>
      <trkpt lat="44.36632" lon="4.31182">
        <ele>280</ele>
        <time>2014-05-30T13:51:18Z</time>
      </trkpt>
      <trkpt lat="44.36643" lon="4.31152">
        <ele>283</ele>
        <time>2014-05-30T13:51:28Z</time>
      </trkpt>
      <trkpt lat="44.36655" lon="4.3112">
        <ele>283</ele>
        <time>2014-05-30T13:51:41Z</time>
      </trkpt>
      <trkpt lat="44.36666" lon="4.3109">
        <ele>285</ele>
        <time>2014-05-30T13:51:52Z</time>
      </trkpt>
      <trkpt lat="44.36679" lon="4.31061">
        <ele>288</ele>
        <time>2014-05-30T13:52:05Z</time>
      </trkpt>
      <trkpt lat="44.3669" lon="4.31033">
        <ele>289</ele>
        <time>2014-05-30T13:52:16Z</time>
      </trkpt>
      <trkpt lat="44.36694" lon="4.31001">
        <ele>290</ele>
        <time>2014-05-30T13:52:27Z</time>
      </trkpt>
      <trkpt lat="44.36701" lon="4.30969">
        <ele>294</ele>
        <time>2014-05-30T13:52:36Z</time>
      </trkpt>
      <trkpt lat="44.36711" lon="4.30936">
        <ele>296</ele>
        <time>2014-05-30T13:52:48Z</time>
      </trkpt>
      <trkpt lat="44.36712" lon="4.30909">
        <ele>302</ele>
        <time>2014-05-30T13:53:15Z</time>
      </trkpt>
      <trkpt lat="44.36694" lon="4.30882">
        <ele>302</ele>
        <time>2014-05-30T13:53:31Z</time>
      </trkpt>
      <trkpt lat="44.36676" lon="4.30854">
        <ele>303</ele>
        <time>2014-05-30T13:53:40Z</time>
      </trkpt>
      <trkpt lat="44.36656" lon="4.30829">
        <ele>303</ele>
        <time>2014-05-30T13:53:48Z</time>
      </trkpt>
      <trkpt lat="44.36634" lon="4.30807">
        <ele>303</ele>
        <time>2014-05-30T13:53:59Z</time>
      </trkpt>
      <trkpt lat="44.36613" lon="4.30785">
        <ele>303</ele>
        <time>2014-05-30T13:54:10Z</time>
      </trkpt>
      <trkpt lat="44.3659" lon="4.30767">
        <ele>302</ele>
        <time>2014-05-30T13:54:22Z</time>
      </trkpt>
      <trkpt lat="44.36598" lon="4.30743">
        <ele>304</ele>
        <time>2014-05-30T13:54:44Z</time>
      </trkpt>
      <trkpt lat="44.36624" lon="4.30731">
        <ele>307</ele>
        <time>2014-05-30T13:55:17Z</time>
      </trkpt>
      <trkpt lat="44.36648" lon="4.30713">
        <ele>309</ele>
        <time>2014-05-30T13:55:36Z</time>
      </trkpt>
      <trkpt lat="44.36672" lon="4.30694">
        <ele>320</ele>
        <time>2014-05-30T13:55:47Z</time>
      </trkpt>
      <trkpt lat="44.36691" lon="4.30667">
        <ele>321</ele>
        <time>2014-05-30T13:55:55Z</time>
      </trkpt>
      <trkpt lat="44.36683" lon="4.30646">
        <ele>324</ele>
        <time>2014-05-30T13:56:07Z</time>
      </trkpt>
      <trkpt lat="44.36656" lon="4.30633">
        <ele>315</ele>
        <time>2014-05-30T13:56:23Z</time>
      </trkpt>
      <trkpt lat="44.36629" lon="4.30616">
        <ele>315</ele>
        <time>2014-05-30T13:56:35Z</time>
      </trkpt>
      <trkpt lat="44.36605" lon="4.30597">
        <ele>313</ele>
        <time>2014-05-30T13:56:48Z</time>
      </trkpt>
      <trkpt lat="44.36598" lon="4.3057">
        <ele>317</ele>
        <time>2014-05-30T13:57:05Z</time>
      </trkpt>
      <trkpt lat="44.36604" lon="4.30535">
        <ele>320</ele>
        <time>2014-05-30T13:57:14Z</time>
      </trkpt>
      <trkpt lat="44.3661" lon="4.305">
        <ele>322</ele>
        <time>2014-05-30T13:57:22Z</time>
      </trkpt>
      <trkpt lat="44.36622" lon="4.30466">
        <ele>325</ele>
        <time>2014-05-30T13:57:31Z</time>
      </trkpt>
      <trkpt lat="44.36633" lon="4.30434">
        <ele>326</ele>
        <time>2014-05-30T13:57:40Z</time>
      </trkpt>
      <trkpt lat="44.36646" lon="4.30406">
        <ele>329</ele>
        <time>2014-05-30T13:57:49Z</time>
      </trkpt>
      <trkpt lat="44.36653" lon="4.30374">
        <ele>329</ele>
        <time>2014-05-30T13:57:58Z</time>
      </trkpt>
      <trkpt lat="44.36629" lon="4.3036">
        <ele>329</ele>
        <time>2014-05-30T13:58:10Z</time>
      </trkpt>
      <trkpt lat="44.366" lon="4.30371">
        <ele>329</ele>
        <time>2014-05-30T13:58:28Z</time>
      </trkpt>
      <trkpt lat="44.36579" lon="4.30383">
        <ele>326</ele>
        <time>2014-05-30T13:58:47Z</time>
      </trkpt>
      <trkpt lat="44.3656" lon="4.30381">
        <ele>326</ele>
        <time>2014-05-30T13:59:13Z</time>
      </trkpt>
      <trkpt lat="44.36555" lon="4.30357">
        <ele>328</ele>
        <time>2014-05-30T13:59:43Z</time>
      </trkpt>
      <trkpt lat="44.36567" lon="4.3033">
        <ele>334</ele>
        <time>2014-05-30T14:00:09Z</time>
      </trkpt>
      <trkpt lat="44.36574" lon="4.30301">
        <ele>336</ele>
        <time>2014-05-30T14:00:36Z</time>
      </trkpt>
      <trkpt lat="44.36579" lon="4.3027">
        <ele>340</ele>
        <time>2014-05-30T14:01:02Z</time>
      </trkpt>
      <trkpt lat="44.36584" lon="4.30241">
        <ele>349</ele>
        <time>2014-05-30T14:01:22Z</time>
      </trkpt>
      <trkpt lat="44.3659" lon="4.30211">
        <ele>351</ele>
        <time>2014-05-30T14:01:34Z</time>
      </trkpt>
      <trkpt lat="44.36599" lon="4.30182">
        <ele>353</ele>
        <time>2014-05-30T14:01:46Z</time>
      </trkpt>
      <trkpt lat="44.3661" lon="4.30155">
        <ele>360</ele>
        <time>2014-05-30T14:01:58Z</time>
      </trkpt>
      <trkpt lat="44.36614" lon="4.30123">
        <ele>362</ele>
        <time>2014-05-30T14:02:11Z</time>
      </trkpt>
      <trkpt lat="44.366" lon="4.30096">
        <ele>362</ele>
        <time>2014-05-30T14:02:23Z</time>
      </trkpt>
      <trkpt lat="44.3658" lon="4.30075">
        <ele>358</ele>
        <time>2014-05-30T14:02:34Z</time>
      </trkpt>
      <trkpt lat="44.36565" lon="4.3005">
        <ele>356</ele>
        <time>2014-05-30T14:02:44Z</time>
      </trkpt>
      <trkpt lat="44.36557" lon="4.3002">
        <ele>358</ele>
        <time>2014-05-30T14:02:53Z</time>
      </trkpt>
      <trkpt lat="44.3655" lon="4.2999">
        <ele>361</ele>
        <time>2014-05-30T14:03:00Z</time>
      </trkpt>
      <trkpt lat="44.36535" lon="4.29962">
        <ele>359</ele>
        <time>2014-05-30T14:03:06Z</time>
      </trkpt>
      <trkpt lat="44.36518" lon="4.29934">
        <ele>357</ele>
        <time>2014-05-30T14:03:17Z</time>
      </trkpt>
      <trkpt lat="44.36515" lon="4.29924">
        <ele>356</ele>
        <time>2014-05-30T14:04:17Z</time>
      </trkpt>
      <trkpt lat="44.36515" lon="4.2991">
        <ele>355</ele>
        <time>2014-05-30T14:05:35Z</time>
      </trkpt>
      <trkpt lat="44.36529" lon="4.2988">
        <ele>357</ele>
        <time>2014-05-30T14:05:53Z</time>
      </trkpt>
      <trkpt lat="44.36551" lon="4.29853">
        <ele>358</ele>
        <time>2014-05-30T14:06:06Z</time>
      </trkpt>
      <trkpt lat="44.36576" lon="4.29833">
        <ele>357</ele>
        <time>2014-05-30T14:06:18Z</time>
      </trkpt>
      <trkpt lat="44.36602" lon="4.29816">
        <ele>360</ele>
        <time>2014-05-30T14:06:32Z</time>
      </trkpt>
      <trkpt lat="44.36634" lon="4.29807">
        <ele>361</ele>
        <time>2014-05-30T14:06:42Z</time>
      </trkpt>
      <trkpt lat="44.36663" lon="4.29806">
        <ele>363</ele>
        <time>2014-05-30T14:06:53Z</time>
      </trkpt>
      <trkpt lat="44.36677" lon="4.29782">
        <ele>372</ele>
        <time>2014-05-30T14:07:03Z</time>
      </trkpt>
      <trkpt lat="44.36681" lon="4.29752">
        <ele>369</ele>
        <time>2014-05-30T14:07:15Z</time>
      </trkpt>
      <trkpt lat="44.36657" lon="4.29734">
        <ele>362</ele>
        <time>2014-05-30T14:07:25Z</time>
      </trkpt>
      <trkpt lat="44.36633" lon="4.29709">
        <ele>363</ele>
        <time>2014-05-30T14:07:34Z</time>
      </trkpt>
      <trkpt lat="44.3661" lon="4.29688">
        <ele>363</ele>
        <time>2014-05-30T14:07:42Z</time>
      </trkpt>
      <trkpt lat="44.36585" lon="4.29669">
        <ele>363</ele>
        <time>2014-05-30T14:07:52Z</time>
      </trkpt>
      <trkpt lat="44.36558" lon="4.29651">
        <ele>364</ele>
        <time>2014-05-30T14:08:03Z</time>
      </trkpt>
      <trkpt lat="44.36536" lon="4.2963">
        <ele>364</ele>
        <time>2014-05-30T14:08:15Z</time>
      </trkpt>
      <trkpt lat="44.36517" lon="4.29607">
        <ele>365</ele>
        <time>2014-05-30T14:08:26Z</time>
      </trkpt>
      <trkpt lat="44.36498" lon="4.29583">
        <ele>368</ele>
        <time>2014-05-30T14:08:38Z</time>
      </trkpt>
      <trkpt lat="44.36475" lon="4.29571">
        <ele>367</ele>
        <time>2014-05-30T14:08:53Z</time>
      </trkpt>
      <trkpt lat="44.36448" lon="4.29579">
        <ele>366</ele>
        <time>2014-05-30T14:09:14Z</time>
      </trkpt>
      <trkpt lat="44.36417" lon="4.29575">
        <ele>366</ele>
        <time>2014-05-30T14:09:28Z</time>
      </trkpt>
      <trkpt lat="44.36396" lon="4.29556">
        <ele>360</ele>
        <time>2014-05-30T14:09:40Z</time>
      </trkpt>
      <trkpt lat="44.36383" lon="4.29527">
        <ele>357</ele>
        <time>2014-05-30T14:09:53Z</time>
      </trkpt>
      <trkpt lat="44.36373" lon="4.29497">
        <ele>349</ele>
        <time>2014-05-30T14:10:03Z</time>
      </trkpt>
      <trkpt lat="44.3636" lon="4.29468">
        <ele>347</ele>
        <time>2014-05-30T14:10:11Z</time>
      </trkpt>
      <trkpt lat="44.36341" lon="4.29441">
        <ele>344</ele>
        <time>2014-05-30T14:10:19Z</time>
      </trkpt>
      <trkpt lat="44.36323" lon="4.29418">
        <ele>336</ele>
        <time>2014-05-30T14:10:28Z</time>
      </trkpt>
      <trkpt lat="44.36315" lon="4.29406">
        <ele>333</ele>
        <time>2014-05-30T14:10:47Z</time>
      </trkpt>
      <trkpt lat="44.36296" lon="4.29379">
        <ele>330</ele>
        <time>2014-05-30T14:10:58Z</time>
      </trkpt>
      <trkpt lat="44.3627" lon="4.29361">
        <ele>329</ele>
        <time>2014-05-30T14:11:10Z</time>
      </trkpt>
      <trkpt lat="44.36246" lon="4.2934">
        <ele>327</ele>
        <time>2014-05-30T14:11:23Z</time>
      </trkpt>
      <trkpt lat="44.36235" lon="4.29325">
        <ele>329</ele>
        <time>2014-05-30T14:13:09Z</time>
      </trkpt>
      <trkpt lat="44.36211" lon="4.29301">
        <ele>329</ele>
        <time>2014-05-30T14:14:48Z</time>
      </trkpt>
      <trkpt lat="44.3619" lon="4.29275">
        <ele>330</ele>
        <time>2014-05-30T14:15:01Z</time>
      </trkpt>
      <trkpt lat="44.36173" lon="4.29248">
        <ele>335</ele>
        <time>2014-05-30T14:15:19Z</time>
      </trkpt>
      <trkpt lat="44.3615" lon="4.29231">
        <ele>341</ele>
        <time>2014-05-30T14:15:46Z</time>
      </trkpt>
      <trkpt lat="44.36123" lon="4.2922">
        <ele>344</ele>
        <time>2014-05-30T14:16:17Z</time>
      </trkpt>
      <trkpt lat="44.36106" lon="4.29198">
        <ele>347</ele>
        <time>2014-05-30T14:16:47Z</time>
      </trkpt>
      <trkpt lat="44.36093" lon="4.29171">
        <ele>353</ele>
        <time>2014-05-30T14:17:13Z</time>
      </trkpt>
      <trkpt lat="44.36087" lon="4.29163">
        <ele>357</ele>
        <time>2014-05-30T14:18:10Z</time>
      </trkpt>
      <trkpt lat="44.36079" lon="4.29149">
        <ele>364</ele>
        <time>2014-05-30T14:18:31Z</time>
      </trkpt>
      <trkpt lat="44.36054" lon="4.29131">
        <ele>369</ele>
        <time>2014-05-30T14:18:59Z</time>
      </trkpt>
      <trkpt lat="44.36041" lon="4.29123">
        <ele>370</ele>
        <time>2014-05-30T14:19:28Z</time>
      </trkpt>
      <trkpt lat="44.36021" lon="4.29102">
        <ele>374</ele>
        <time>2014-05-30T14:19:57Z</time>
      </trkpt>
      <trkpt lat="44.36009" lon="4.29096">
        <ele>377</ele>
        <time>2014-05-30T14:20:42Z</time>
      </trkpt>
      <trkpt lat="44.35982" lon="4.29084">
        <ele>376</ele>
        <time>2014-05-30T14:20:58Z</time>
      </trkpt>
      <trkpt lat="44.35962" lon="4.29057">
        <ele>383</ele>
        <time>2014-05-30T14:21:11Z</time>
      </trkpt>
      <trkpt lat="44.35945" lon="4.29033">
        <ele>384</ele>
        <time>2014-05-30T14:21:26Z</time>
      </trkpt>
      <trkpt lat="44.35919" lon="4.29015">
        <ele>386</ele>
        <time>2014-05-30T14:21:39Z</time>
      </trkpt>
      <trkpt lat="44.35905" lon="4.29012">
        <ele>384</ele>
        <time>2014-05-30T14:22:10Z</time>
      </trkpt>
      <trkpt lat="44.35878" lon="4.29004">
        <ele>383</ele>
        <time>2014-05-30T14:22:43Z</time>
      </trkpt>
      <trkpt lat="44.35857" lon="4.28984">
        <ele>397</ele>
        <time>2014-05-30T14:23:10Z</time>
      </trkpt>
      <trkpt lat="44.35829" lon="4.28981">
        <ele>391</ele>
        <time>2014-05-30T14:23:25Z</time>
      </trkpt>
      <trkpt lat="44.35796" lon="4.28986">
        <ele>389</ele>
        <time>2014-05-30T14:23:34Z</time>
      </trkpt>
      <trkpt lat="44.3577" lon="4.28968">
        <ele>389</ele>
        <time>2014-05-30T14:23:41Z</time>
      </trkpt>
      <trkpt lat="44.35755" lon="4.2894">
        <ele>390</ele>
        <time>2014-05-30T14:23:49Z</time>
      </trkpt>
      <trkpt lat="44.35732" lon="4.28922">
        <ele>382</ele>
        <time>2014-05-30T14:23:57Z</time>
      </trkpt>
      <trkpt lat="44.35728" lon="4.28909">
        <ele>383</ele>
        <time>2014-05-30T14:24:16Z</time>
      </trkpt>
      <trkpt lat="44.35737" lon="4.28876">
        <ele>383</ele>
        <time>2014-05-30T14:24:26Z</time>
      </trkpt>
      <trkpt lat="44.35741" lon="4.28844">
        <ele>388</ele>
        <time>2014-05-30T14:24:38Z</time>
      </trkpt>
      <trkpt lat="44.3572" lon="4.28826">
        <ele>386</ele>
        <time>2014-05-30T14:25:01Z</time>
      </trkpt>
      <trkpt lat="44.35693" lon="4.28805">
        <ele>380</ele>
        <time>2014-05-30T14:25:15Z</time>
      </trkpt>
      <trkpt lat="44.35663" lon="4.28789">
        <ele>361</ele>
        <time>2014-05-30T14:25:25Z</time>
      </trkpt>
      <trkpt lat="44.35643" lon="4.28766">
        <ele>362</ele>
        <time>2014-05-30T14:25:35Z</time>
      </trkpt>
      <trkpt lat="44.35637" lon="4.28738">
        <ele>364</ele>
        <time>2014-05-30T14:25:51Z</time>
      </trkpt>
      <trkpt lat="44.3564" lon="4.28707">
        <ele>365</ele>
        <time>2014-05-30T14:26:12Z</time>
      </trkpt>
      <trkpt lat="44.35635" lon="4.28676">
        <ele>365</ele>
        <time>2014-05-30T14:26:22Z</time>
      </trkpt>
      <trkpt lat="44.35622" lon="4.28643">
        <ele>366</ele>
        <time>2014-05-30T14:26:31Z</time>
      </trkpt>
      <trkpt lat="44.35615" lon="4.28613">
        <ele>366</ele>
        <time>2014-05-30T14:26:41Z</time>
      </trkpt>
      <trkpt lat="44.35614" lon="4.28582">
        <ele>368</ele>
        <time>2014-05-30T14:26:51Z</time>
      </trkpt>
      <trkpt lat="44.35616" lon="4.2855">
        <ele>369</ele>
        <time>2014-05-30T14:26:59Z</time>
      </trkpt>
      <trkpt lat="44.35621" lon="4.28519">
        <ele>369</ele>
        <time>2014-05-30T14:27:07Z</time>
      </trkpt>
      <trkpt lat="44.35625" lon="4.28489">
        <ele>370</ele>
        <time>2014-05-30T14:27:15Z</time>
      </trkpt>
      <trkpt lat="44.35617" lon="4.28456">
        <ele>368</ele>
        <time>2014-05-30T14:27:23Z</time>
      </trkpt>
      <trkpt lat="44.35603" lon="4.28424">
        <ele>363</ele>
        <time>2014-05-30T14:27:30Z</time>
      </trkpt>
      <trkpt lat="44.35591" lon="4.28391">
        <ele>366</ele>
        <time>2014-05-30T14:27:36Z</time>
      </trkpt>
      <trkpt lat="44.35584" lon="4.2836">
        <ele>368</ele>
        <time>2014-05-30T14:27:42Z</time>
      </trkpt>
      <trkpt lat="44.35576" lon="4.28328">
        <ele>364</ele>
        <time>2014-05-30T14:27:49Z</time>
      </trkpt>
      <trkpt lat="44.35557" lon="4.28299">
        <ele>365</ele>
        <time>2014-05-30T14:27:56Z</time>
      </trkpt>
      <trkpt lat="44.35533" lon="4.28278">
        <ele>365</ele>
        <time>2014-05-30T14:28:06Z</time>
      </trkpt>
      <trkpt lat="44.35508" lon="4.28263">
        <ele>366</ele>
        <time>2014-05-30T14:28:22Z</time>
      </trkpt>
      <trkpt lat="44.35482" lon="4.28244">
        <ele>369</ele>
        <time>2014-05-30T14:28:36Z</time>
      </trkpt>
      <trkpt lat="44.35458" lon="4.28224">
        <ele>369</ele>
        <time>2014-05-30T14:28:48Z</time>
      </trkpt>
      <trkpt lat="44.35443" lon="4.28197">
        <ele>370</ele>
        <time>2014-05-30T14:28:58Z</time>
      </trkpt>
      <trkpt lat="44.3542" lon="4.28178">
        <ele>371</ele>
        <time>2014-05-30T14:29:13Z</time>
      </trkpt>
      <trkpt lat="44.35393" lon="4.2817">
        <ele>370</ele>
        <time>2014-05-30T14:29:31Z</time>
      </trkpt>
      <trkpt lat="44.35362" lon="4.28171">
        <ele>372</ele>
        <time>2014-05-30T14:29:49Z</time>
      </trkpt>
      <trkpt lat="44.35337" lon="4.28186">
        <ele>373</ele>
        <time>2014-05-30T14:30:05Z</time>
      </trkpt>
      <trkpt lat="44.35308" lon="4.28195">
        <ele>373</ele>
        <time>2014-05-30T14:30:17Z</time>
      </trkpt>
      <trkpt lat="44.35276" lon="4.28192">
        <ele>373</ele>
        <time>2014-05-30T14:30:29Z</time>
      </trkpt>
      <trkpt lat="44.35246" lon="4.28181">
        <ele>374</ele>
        <time>2014-05-30T14:30:42Z</time>
      </trkpt>
      <trkpt lat="44.35219" lon="4.28167">
        <ele>373</ele>
        <time>2014-05-30T14:30:52Z</time>
      </trkpt>
      <trkpt lat="44.35194" lon="4.28144">
        <ele>373</ele>
        <time>2014-05-30T14:31:00Z</time>
      </trkpt>
      <trkpt lat="44.35177" lon="4.2812">
        <ele>372</ele>
        <time>2014-05-30T14:31:06Z</time>
      </trkpt>
      <trkpt lat="44.3516" lon="4.2809">
        <ele>371</ele>
        <time>2014-05-30T14:31:13Z</time>
      </trkpt>
      <trkpt lat="44.35144" lon="4.28058">
        <ele>365</ele>
        <time>2014-05-30T14:31:19Z</time>
      </trkpt>
      <trkpt lat="44.35131" lon="4.28025">
        <ele>363</ele>
        <time>2014-05-30T14:31:26Z</time>
      </trkpt>
      <trkpt lat="44.35127" lon="4.27991">
        <ele>360</ele>
        <time>2014-05-30T14:31:32Z</time>
      </trkpt>
      <trkpt lat="44.35127" lon="4.2796">
        <ele>360</ele>
        <time>2014-05-30T14:31:35Z</time>
      </trkpt>
      <trkpt lat="44.3513" lon="4.27928">
        <ele>360</ele>
        <time>2014-05-30T14:31:40Z</time>
      </trkpt>
      <trkpt lat="44.35131" lon="4.27895">
        <ele>364</ele>
        <time>2014-05-30T14:31:47Z</time>
      </trkpt>
      <trkpt lat="44.35131" lon="4.27864">
        <ele>366</ele>
        <time>2014-05-30T14:31:57Z</time>
      </trkpt>
      <trkpt lat="44.35123" lon="4.27837">
        <ele>366</ele>
        <time>2014-05-30T14:32:07Z</time>
      </trkpt>
      <trkpt lat="44.35108" lon="4.27809">
        <ele>370</ele>
        <time>2014-05-30T14:32:16Z</time>
      </trkpt>
      <trkpt lat="44.35085" lon="4.27782">
        <ele>370</ele>
        <time>2014-05-30T14:32:24Z</time>
      </trkpt>
      <trkpt lat="44.35057" lon="4.27767">
        <ele>367</ele>
        <time>2014-05-30T14:32:32Z</time>
      </trkpt>
      <trkpt lat="44.35029" lon="4.27757">
        <ele>367</ele>
        <time>2014-05-30T14:32:41Z</time>
      </trkpt>
      <trkpt lat="44.34999" lon="4.27762">
        <ele>369</ele>
        <time>2014-05-30T14:32:52Z</time>
      </trkpt>
      <trkpt lat="44.3497" lon="4.27774">
        <ele>369</ele>
        <time>2014-05-30T14:33:08Z</time>
      </trkpt>
      <trkpt lat="44.34942" lon="4.27786">
        <ele>370</ele>
        <time>2014-05-30T14:33:26Z</time>
      </trkpt>
      <trkpt lat="44.34916" lon="4.27785">
        <ele>370</ele>
        <time>2014-05-30T14:33:41Z</time>
      </trkpt>
      <trkpt lat="44.34902" lon="4.2775">
        <ele>371</ele>
        <time>2014-05-30T14:33:49Z</time>
      </trkpt>
      <trkpt lat="44.34892" lon="4.27723">
        <ele>370</ele>
        <time>2014-05-30T14:33:53Z</time>
      </trkpt>
      <trkpt lat="44.34887" lon="4.27708">
        <ele>369</ele>
        <time>2014-05-30T14:33:55Z</time>
      </trkpt>
      <trkpt lat="44.34883" lon="4.27694">
        <ele>369</ele>
        <time>2014-05-30T14:33:56Z</time>
      </trkpt>
      <trkpt lat="44.34877" lon="4.27678">
        <ele>369</ele>
        <time>2014-05-30T14:33:59Z</time>
      </trkpt>
      <trkpt lat="44.34868" lon="4.27664">
        <ele>371</ele>
        <time>2014-05-30T14:34:02Z</time>
      </trkpt>
      <trkpt lat="44.34859" lon="4.27651">
        <ele>371</ele>
        <time>2014-05-30T14:34:08Z</time>
      </trkpt>
      <trkpt lat="44.34852" lon="4.27638">
        <ele>372</ele>
        <time>2014-05-30T14:34:14Z</time>
      </trkpt>
      <trkpt lat="44.34844" lon="4.27623">
        <ele>372</ele>
        <time>2014-05-30T14:34:21Z</time>
      </trkpt>
      <trkpt lat="44.34834" lon="4.27609">
        <ele>374</ele>
        <time>2014-05-30T14:34:27Z</time>
      </trkpt>
      <trkpt lat="44.34826" lon="4.27594">
        <ele>374</ele>
        <time>2014-05-30T14:34:33Z</time>
      </trkpt>
      <trkpt lat="44.34821" lon="4.27579">
        <ele>374</ele>
        <time>2014-05-30T14:34:38Z</time>
      </trkpt>
      <trkpt lat="44.3482" lon="4.27567">
        <ele>373</ele>
        <time>2014-05-30T14:34:41Z</time>
      </trkpt>
      <trkpt lat="44.34822" lon="4.27547">
        <ele>372</ele>
        <time>2014-05-30T14:35:05Z</time>
      </trkpt>
      <trkpt lat="44.34822" lon="4.27531">
        <ele>371</ele>
        <time>2014-05-30T14:35:10Z</time>
      </trkpt>
      <trkpt lat="44.3482" lon="4.27514">
        <ele>371</ele>
        <time>2014-05-30T14:35:13Z</time>
      </trkpt>
      <trkpt lat="44.34819" lon="4.27499">
        <ele>369</ele>
        <time>2014-05-30T14:35:16Z</time>
      </trkpt>
      <trkpt lat="44.34822" lon="4.27482">
        <ele>368</ele>
        <time>2014-05-30T14:35:19Z</time>
      </trkpt>
      <trkpt lat="44.34825" lon="4.27465">
        <ele>367</ele>
        <time>2014-05-30T14:35:22Z</time>
      </trkpt>
      <trkpt lat="44.34827" lon="4.2745">
        <ele>367</ele>
        <time>2014-05-30T14:35:24Z</time>
      </trkpt>
      <trkpt lat="44.34826" lon="4.27435">
        <ele>367</ele>
        <time>2014-05-30T14:35:25Z</time>
      </trkpt>
      <trkpt lat="44.34826" lon="4.2742">
        <ele>369</ele>
        <time>2014-05-30T14:35:28Z</time>
      </trkpt>
      <trkpt lat="44.34828" lon="4.27403">
        <ele>367</ele>
        <time>2014-05-30T14:35:30Z</time>
      </trkpt>
      <trkpt lat="44.34828" lon="4.27387">
        <ele>365</ele>
        <time>2014-05-30T14:35:33Z</time>
      </trkpt>
      <trkpt lat="44.34826" lon="4.27372">
        <ele>365</ele>
        <time>2014-05-30T14:35:36Z</time>
      </trkpt>
      <trkpt lat="44.34827" lon="4.27357">
        <ele>366</ele>
        <time>2014-05-30T14:35:40Z</time>
      </trkpt>
      <trkpt lat="44.34826" lon="4.27341">
        <ele>369</ele>
        <time>2014-05-30T14:35:44Z</time>
      </trkpt>
      <trkpt lat="44.34821" lon="4.27324">
        <ele>368</ele>
        <time>2014-05-30T14:35:48Z</time>
      </trkpt>
      <trkpt lat="44.34813" lon="4.27308">
        <ele>367</ele>
        <time>2014-05-30T14:35:51Z</time>
      </trkpt>
      <trkpt lat="44.34809" lon="4.27295">
        <ele>366</ele>
        <time>2014-05-30T14:35:54Z</time>
      </trkpt>
      <trkpt lat="44.34811" lon="4.27278">
        <ele>367</ele>
        <time>2014-05-30T14:35:57Z</time>
      </trkpt>
      <trkpt lat="44.34816" lon="4.27261">
        <ele>369</ele>
        <time>2014-05-30T14:36:02Z</time>
      </trkpt>
      <trkpt lat="44.34819" lon="4.27245">
        <ele>370</ele>
        <time>2014-05-30T14:36:06Z</time>
      </trkpt>
      <trkpt lat="44.34822" lon="4.27227">
        <ele>369</ele>
        <time>2014-05-30T14:36:09Z</time>
      </trkpt>
      <trkpt lat="44.34824" lon="4.27211">
        <ele>369</ele>
        <time>2014-05-30T14:36:14Z</time>
      </trkpt>
      <trkpt lat="44.34824" lon="4.27195">
        <ele>370</ele>
        <time>2014-05-30T14:36:18Z</time>
      </trkpt>
      <trkpt lat="44.34823" lon="4.27179">
        <ele>371</ele>
        <time>2014-05-30T14:36:22Z</time>
      </trkpt>
      <trkpt lat="44.34822" lon="4.27164">
        <ele>371</ele>
        <time>2014-05-30T14:36:27Z</time>
      </trkpt>
      <trkpt lat="44.34824" lon="4.27148">
        <ele>369</ele>
        <time>2014-05-30T14:36:31Z</time>
      </trkpt>
      <trkpt lat="44.34829" lon="4.27131">
        <ele>367</ele>
        <time>2014-05-30T14:36:35Z</time>
      </trkpt>
      <trkpt lat="44.34833" lon="4.27114">
        <ele>367</ele>
        <time>2014-05-30T14:36:39Z</time>
      </trkpt>
      <trkpt lat="44.34837" lon="4.27094">
        <ele>375</ele>
        <time>2014-05-30T14:36:42Z</time>
      </trkpt>
      <trkpt lat="44.34839" lon="4.27078">
        <ele>373</ele>
        <time>2014-05-30T14:36:45Z</time>
      </trkpt>
      <trkpt lat="44.34839" lon="4.27061">
        <ele>373</ele>
        <time>2014-05-30T14:36:48Z</time>
      </trkpt>
      <trkpt lat="44.34837" lon="4.27045">
        <ele>372</ele>
        <time>2014-05-30T14:36:51Z</time>
      </trkpt>
      <trkpt lat="44.34835" lon="4.2703">
        <ele>370</ele>
        <time>2014-05-30T14:36:54Z</time>
      </trkpt>
      <trkpt lat="44.34836" lon="4.27014">
        <ele>368</ele>
        <time>2014-05-30T14:36:57Z</time>
      </trkpt>
      <trkpt lat="44.34843" lon="4.27001">
        <ele>367</ele>
        <time>2014-05-30T14:37:00Z</time>
      </trkpt>
      <trkpt lat="44.34849" lon="4.26987">
        <ele>366</ele>
        <time>2014-05-30T14:37:03Z</time>
      </trkpt>
      <trkpt lat="44.34853" lon="4.26972">
        <ele>367</ele>
        <time>2014-05-30T14:37:06Z</time>
      </trkpt>
      <trkpt lat="44.34849" lon="4.26958">
        <ele>368</ele>
        <time>2014-05-30T14:37:09Z</time>
      </trkpt>
      <trkpt lat="44.34837" lon="4.26944">
        <ele>368</ele>
        <time>2014-05-30T14:37:13Z</time>
      </trkpt>
      <trkpt lat="44.34823" lon="4.26931">
        <ele>363</ele>
        <time>2014-05-30T14:37:18Z</time>
      </trkpt>
      <trkpt lat="44.34813" lon="4.26916">
        <ele>370</ele>
        <time>2014-05-30T14:37:22Z</time>
      </trkpt>
      <trkpt lat="44.34805" lon="4.269">
        <ele>371</ele>
        <time>2014-05-30T14:37:26Z</time>
      </trkpt>
      <trkpt lat="44.34797" lon="4.26884">
        <ele>372</ele>
        <time>2014-05-30T14:37:29Z</time>
      </trkpt>
      <trkpt lat="44.3479" lon="4.26871">
        <ele>373</ele>
        <time>2014-05-30T14:37:32Z</time>
      </trkpt>
      <trkpt lat="44.34782" lon="4.26859">
        <ele>373</ele>
        <time>2014-05-30T14:37:35Z</time>
      </trkpt>
      <trkpt lat="44.3477" lon="4.26846">
        <ele>373</ele>
        <time>2014-05-30T14:37:40Z</time>
      </trkpt>
      <trkpt lat="44.34757" lon="4.26834">
        <ele>374</ele>
        <time>2014-05-30T14:37:45Z</time>
      </trkpt>
      <trkpt lat="44.34744" lon="4.26823">
        <ele>377</ele>
        <time>2014-05-30T14:37:49Z</time>
      </trkpt>
      <trkpt lat="44.3473" lon="4.26812">
        <ele>379</ele>
        <time>2014-05-30T14:37:53Z</time>
      </trkpt>
      <trkpt lat="44.34718" lon="4.268">
        <ele>381</ele>
        <time>2014-05-30T14:37:59Z</time>
      </trkpt>
      <trkpt lat="44.34704" lon="4.26794">
        <ele>381</ele>
        <time>2014-05-30T14:38:04Z</time>
      </trkpt>
      <trkpt lat="44.3469" lon="4.26789">
        <ele>380</ele>
        <time>2014-05-30T14:38:12Z</time>
      </trkpt>
      <trkpt lat="44.34675" lon="4.26793">
        <ele>379</ele>
        <time>2014-05-30T14:38:19Z</time>
      </trkpt>
      <trkpt lat="44.34661" lon="4.26802">
        <ele>373</ele>
        <time>2014-05-30T14:38:25Z</time>
      </trkpt>
      <trkpt lat="44.34648" lon="4.26811">
        <ele>372</ele>
        <time>2014-05-30T14:38:31Z</time>
      </trkpt>
      <trkpt lat="44.34634" lon="4.26817">
        <ele>371</ele>
        <time>2014-05-30T14:38:36Z</time>
      </trkpt>
      <trkpt lat="44.34626" lon="4.26801">
        <ele>372</ele>
        <time>2014-05-30T14:38:41Z</time>
      </trkpt>
      <trkpt lat="44.34623" lon="4.26784">
        <ele>373</ele>
        <time>2014-05-30T14:38:44Z</time>
      </trkpt>
      <trkpt lat="44.3462" lon="4.2677">
        <ele>373</ele>
        <time>2014-05-30T14:38:47Z</time>
      </trkpt>
      <trkpt lat="44.34615" lon="4.26755">
        <ele>374</ele>
        <time>2014-05-30T14:38:51Z</time>
      </trkpt>
      <trkpt lat="44.34609" lon="4.26741">
        <ele>375</ele>
        <time>2014-05-30T14:38:55Z</time>
      </trkpt>
      <trkpt lat="44.34599" lon="4.26728">
        <ele>375</ele>
        <time>2014-05-30T14:39:00Z</time>
      </trkpt>
      <trkpt lat="44.34585" lon="4.26719">
        <ele>374</ele>
        <time>2014-05-30T14:39:05Z</time>
      </trkpt>
      <trkpt lat="44.34571" lon="4.26711">
        <ele>370</ele>
        <time>2014-05-30T14:39:09Z</time>
      </trkpt>
      <trkpt lat="44.34556" lon="4.26705">
        <ele>369</ele>
        <time>2014-05-30T14:39:14Z</time>
      </trkpt>
      <trkpt lat="44.34541" lon="4.26695">
        <ele>369</ele>
        <time>2014-05-30T14:39:19Z</time>
      </trkpt>
      <trkpt lat="44.34531" lon="4.26682">
        <ele>368</ele>
        <time>2014-05-30T14:39:23Z</time>
      </trkpt>
      <trkpt lat="44.34523" lon="4.2667">
        <ele>368</ele>
        <time>2014-05-30T14:39:27Z</time>
      </trkpt>
      <trkpt lat="44.34516" lon="4.26657">
        <ele>364</ele>
        <time>2014-05-30T14:39:31Z</time>
      </trkpt>
      <trkpt lat="44.34506" lon="4.26642">
        <ele>364</ele>
        <time>2014-05-30T14:39:34Z</time>
      </trkpt>
      <trkpt lat="44.34497" lon="4.26627">
        <ele>360</ele>
        <time>2014-05-30T14:39:37Z</time>
      </trkpt>
      <trkpt lat="44.34486" lon="4.26614">
        <ele>360</ele>
        <time>2014-05-30T14:39:40Z</time>
      </trkpt>
      <trkpt lat="44.34475" lon="4.26602">
        <ele>359</ele>
        <time>2014-05-30T14:39:43Z</time>
      </trkpt>
      <trkpt lat="44.34465" lon="4.26588">
        <ele>359</ele>
        <time>2014-05-30T14:39:46Z</time>
      </trkpt>
      <trkpt lat="44.34454" lon="4.26576">
        <ele>360</ele>
        <time>2014-05-30T14:39:51Z</time>
      </trkpt>
      <trkpt lat="44.34446" lon="4.26562">
        <ele>360</ele>
        <time>2014-05-30T14:39:58Z</time>
      </trkpt>
      <trkpt lat="44.34442" lon="4.2655">
        <ele>360</ele>
        <time>2014-05-30T14:40:04Z</time>
      </trkpt>
      <trkpt lat="44.34437" lon="4.26539">
        <ele>361</ele>
        <time>2014-05-30T14:40:31Z</time>
      </trkpt>
      <trkpt lat="44.34426" lon="4.26525">
        <ele>363</ele>
        <time>2014-05-30T14:40:45Z</time>
      </trkpt>
      <trkpt lat="44.34419" lon="4.26514">
        <ele>365</ele>
        <time>2014-05-30T14:40:58Z</time>
      </trkpt>
      <trkpt lat="44.34412" lon="4.265">
        <ele>368</ele>
        <time>2014-05-30T14:41:08Z</time>
      </trkpt>
      <trkpt lat="44.34407" lon="4.26485">
        <ele>370</ele>
        <time>2014-05-30T14:41:21Z</time>
      </trkpt>
      <trkpt lat="44.34403" lon="4.2647">
        <ele>371</ele>
        <time>2014-05-30T14:41:33Z</time>
      </trkpt>
      <trkpt lat="44.34398" lon="4.26456">
        <ele>372</ele>
        <time>2014-05-30T14:41:46Z</time>
      </trkpt>
      <trkpt lat="44.34389" lon="4.26445">
        <ele>372</ele>
        <time>2014-05-30T14:41:58Z</time>
      </trkpt>
      <trkpt lat="44.34382" lon="4.26433">
        <ele>373</ele>
        <time>2014-05-30T14:42:11Z</time>
      </trkpt>
      <trkpt lat="44.34376" lon="4.26418">
        <ele>374</ele>
        <time>2014-05-30T14:42:24Z</time>
      </trkpt>
      <trkpt lat="44.34372" lon="4.26405">
        <ele>377</ele>
        <time>2014-05-30T14:42:37Z</time>
      </trkpt>
      <trkpt lat="44.34361" lon="4.26393">
        <ele>378</ele>
        <time>2014-05-30T14:42:47Z</time>
      </trkpt>
      <trkpt lat="44.34347" lon="4.26386">
        <ele>378</ele>
        <time>2014-05-30T14:42:52Z</time>
      </trkpt>
      <trkpt lat="44.34334" lon="4.26377">
        <ele>378</ele>
        <time>2014-05-30T14:42:57Z</time>
      </trkpt>
      <trkpt lat="44.34324" lon="4.26366">
        <ele>384</ele>
        <time>2014-05-30T14:43:03Z</time>
      </trkpt>
      <trkpt lat="44.34316" lon="4.26353">
        <ele>385</ele>
        <time>2014-05-30T14:43:09Z</time>
      </trkpt>
      <trkpt lat="44.34307" lon="4.26341">
        <ele>385</ele>
        <time>2014-05-30T14:43:15Z</time>
      </trkpt>
      <trkpt lat="44.34301" lon="4.26327">
        <ele>386</ele>
        <time>2014-05-30T14:43:21Z</time>
      </trkpt>
      <trkpt lat="44.34299" lon="4.2631">
        <ele>386</ele>
        <time>2014-05-30T14:43:26Z</time>
      </trkpt>
      <trkpt lat="44.34298" lon="4.26294">
        <ele>386</ele>
        <time>2014-05-30T14:43:29Z</time>
      </trkpt>
      <trkpt lat="44.34298" lon="4.26278">
        <ele>385</ele>
        <time>2014-05-30T14:43:33Z</time>
      </trkpt>
      <trkpt lat="44.34296" lon="4.26262">
        <ele>385</ele>
        <time>2014-05-30T14:43:36Z</time>
      </trkpt>
      <trkpt lat="44.34294" lon="4.26247">
        <ele>379</ele>
        <time>2014-05-30T14:43:39Z</time>
      </trkpt>
      <trkpt lat="44.34293" lon="4.26231">
        <ele>378</ele>
        <time>2014-05-30T14:43:42Z</time>
      </trkpt>
      <trkpt lat="44.34294" lon="4.26218">
        <ele>378</ele>
        <time>2014-05-30T14:43:45Z</time>
      </trkpt>
      <trkpt lat="44.34296" lon="4.26202">
        <ele>376</ele>
        <time>2014-05-30T14:43:48Z</time>
      </trkpt>
      <trkpt lat="44.34293" lon="4.26184">
        <ele>375</ele>
        <time>2014-05-30T14:43:55Z</time>
      </trkpt>
      <trkpt lat="44.34276" lon="4.26196">
        <ele>376</ele>
        <time>2014-05-30T14:44:03Z</time>
      </trkpt>
      <trkpt lat="44.34263" lon="4.26209">
        <ele>378</ele>
        <time>2014-05-30T14:44:07Z</time>
      </trkpt>
      <trkpt lat="44.3425" lon="4.26219">
        <ele>381</ele>
        <time>2014-05-30T14:44:10Z</time>
      </trkpt>
      <trkpt lat="44.34235" lon="4.26228">
        <ele>382</ele>
        <time>2014-05-30T14:44:13Z</time>
      </trkpt>
      <trkpt lat="44.3422" lon="4.26237">
        <ele>382</ele>
        <time>2014-05-30T14:44:17Z</time>
      </trkpt>
      <trkpt lat="44.34206" lon="4.26237">
        <ele>382</ele>
        <time>2014-05-30T14:44:20Z</time>
      </trkpt>
      <trkpt lat="44.34189" lon="4.26238">
        <ele>383</ele>
        <time>2014-05-30T14:44:24Z</time>
      </trkpt>
      <trkpt lat="44.34175" lon="4.26234">
        <ele>384</ele>
        <time>2014-05-30T14:44:27Z</time>
      </trkpt>
      <trkpt lat="44.3416" lon="4.26227">
        <ele>382</ele>
        <time>2014-05-30T14:44:32Z</time>
      </trkpt>
      <trkpt lat="44.34148" lon="4.26219">
        <ele>380</ele>
        <time>2014-05-30T14:44:37Z</time>
      </trkpt>
      <trkpt lat="44.34136" lon="4.26207">
        <ele>379</ele>
        <time>2014-05-30T14:44:42Z</time>
      </trkpt>
      <trkpt lat="44.34125" lon="4.26195">
        <ele>378</ele>
        <time>2014-05-30T14:44:45Z</time>
      </trkpt>
      <trkpt lat="44.34112" lon="4.26185">
        <ele>377</ele>
        <time>2014-05-30T14:44:50Z</time>
      </trkpt>
      <trkpt lat="44.34099" lon="4.26176">
        <ele>377</ele>
        <time>2014-05-30T14:44:54Z</time>
      </trkpt>
      <trkpt lat="44.34083" lon="4.26168">
        <ele>376</ele>
        <time>2014-05-30T14:44:58Z</time>
      </trkpt>
      <trkpt lat="44.34068" lon="4.2616">
        <ele>372</ele>
        <time>2014-05-30T14:45:03Z</time>
      </trkpt>
      <trkpt lat="44.34058" lon="4.26145">
        <ele>370</ele>
        <time>2014-05-30T14:45:07Z</time>
      </trkpt>
      <trkpt lat="44.34062" lon="4.2613">
        <ele>369</ele>
        <time>2014-05-30T14:45:13Z</time>
      </trkpt>
      <trkpt lat="44.3407" lon="4.26115">
        <ele>369</ele>
        <time>2014-05-30T14:45:20Z</time>
      </trkpt>
      <trkpt lat="44.34072" lon="4.26099">
        <ele>368</ele>
        <time>2014-05-30T14:45:26Z</time>
      </trkpt>
      <trkpt lat="44.3408" lon="4.26092">
        <ele>368</ele>
        <time>2014-05-30T14:45:34Z</time>
      </trkpt>
      <trkpt lat="44.34096" lon="4.26098">
        <ele>365</ele>
        <time>2014-05-30T14:45:43Z</time>
      </trkpt>
      <trkpt lat="44.3411" lon="4.26104">
        <ele>364</ele>
        <time>2014-05-30T14:45:50Z</time>
      </trkpt>
      <trkpt lat="44.34126" lon="4.26108">
        <ele>363</ele>
        <time>2014-05-30T14:45:56Z</time>
      </trkpt>
      <trkpt lat="44.3414" lon="4.26115">
        <ele>362</ele>
        <time>2014-05-30T14:46:01Z</time>
      </trkpt>
      <trkpt lat="44.34155" lon="4.26124">
        <ele>362</ele>
        <time>2014-05-30T14:46:05Z</time>
      </trkpt>
      <trkpt lat="44.3417" lon="4.26134">
        <ele>360</ele>
        <time>2014-05-30T14:46:08Z</time>
      </trkpt>
      <trkpt lat="44.34184" lon="4.26144">
        <ele>361</ele>
        <time>2014-05-30T14:46:13Z</time>
      </trkpt>
      <trkpt lat="44.34199" lon="4.26138">
        <ele>360</ele>
        <time>2014-05-30T14:46:16Z</time>
      </trkpt>
      <trkpt lat="44.34207" lon="4.26124">
        <ele>358</ele>
        <time>2014-05-30T14:46:20Z</time>
      </trkpt>
      <trkpt lat="44.34213" lon="4.26108">
        <ele>357</ele>
        <time>2014-05-30T14:46:25Z</time>
      </trkpt>
      <trkpt lat="44.3422" lon="4.2609">
        <ele>355</ele>
        <time>2014-05-30T14:46:28Z</time>
      </trkpt>
      <trkpt lat="44.34226" lon="4.26074">
        <ele>344</ele>
        <time>2014-05-30T14:46:31Z</time>
      </trkpt>
      <trkpt lat="44.34234" lon="4.26058">
        <ele>342</ele>
        <time>2014-05-30T14:46:34Z</time>
      </trkpt>
      <trkpt lat="44.34241" lon="4.26045">
        <ele>341</ele>
        <time>2014-05-30T14:46:37Z</time>
      </trkpt>
      <trkpt lat="44.34249" lon="4.26032">
        <ele>339</ele>
        <time>2014-05-30T14:46:40Z</time>
      </trkpt>
      <trkpt lat="44.34259" lon="4.26018">
        <ele>343</ele>
        <time>2014-05-30T14:46:44Z</time>
      </trkpt>
      <trkpt lat="44.34269" lon="4.26005">
        <ele>343</ele>
        <time>2014-05-30T14:46:47Z</time>
      </trkpt>
      <trkpt lat="44.34281" lon="4.25997">
        <ele>336</ele>
        <time>2014-05-30T14:46:51Z</time>
      </trkpt>
      <trkpt lat="44.34294" lon="4.25988">
        <ele>337</ele>
        <time>2014-05-30T14:46:54Z</time>
      </trkpt>
      <trkpt lat="44.34309" lon="4.25974">
        <ele>337</ele>
        <time>2014-05-30T14:46:57Z</time>
      </trkpt>
      <trkpt lat="44.3432" lon="4.25958">
        <ele>336</ele>
        <time>2014-05-30T14:47:00Z</time>
      </trkpt>
      <trkpt lat="44.34328" lon="4.25939">
        <ele>335</ele>
        <time>2014-05-30T14:47:03Z</time>
      </trkpt>
      <trkpt lat="44.34331" lon="4.25921">
        <ele>336</ele>
        <time>2014-05-30T14:47:05Z</time>
      </trkpt>
      <trkpt lat="44.34327" lon="4.25905">
        <ele>331</ele>
        <time>2014-05-30T14:47:08Z</time>
      </trkpt>
      <trkpt lat="44.34318" lon="4.25886">
        <ele>328</ele>
        <time>2014-05-30T14:47:11Z</time>
      </trkpt>
      <trkpt lat="44.3431" lon="4.25869">
        <ele>327</ele>
        <time>2014-05-30T14:47:14Z</time>
      </trkpt>
      <trkpt lat="44.34302" lon="4.25849">
        <ele>326</ele>
        <time>2014-05-30T14:47:17Z</time>
      </trkpt>
      <trkpt lat="44.34297" lon="4.25829">
        <ele>325</ele>
        <time>2014-05-30T14:47:20Z</time>
      </trkpt>
      <trkpt lat="44.34295" lon="4.2581">
        <ele>324</ele>
        <time>2014-05-30T14:47:23Z</time>
      </trkpt>
      <trkpt lat="44.34295" lon="4.25791">
        <ele>324</ele>
        <time>2014-05-30T14:47:26Z</time>
      </trkpt>
      <trkpt lat="44.34294" lon="4.25772">
        <ele>324</ele>
        <time>2014-05-30T14:47:29Z</time>
      </trkpt>
      <trkpt lat="44.34292" lon="4.25752">
        <ele>324</ele>
        <time>2014-05-30T14:47:32Z</time>
      </trkpt>
      <trkpt lat="44.34289" lon="4.25733">
        <ele>324</ele>
        <time>2014-05-30T14:47:35Z</time>
      </trkpt>
      <trkpt lat="44.34284" lon="4.25715">
        <ele>323</ele>
        <time>2014-05-30T14:47:38Z</time>
      </trkpt>
      <trkpt lat="44.34277" lon="4.25698">
        <ele>322</ele>
        <time>2014-05-30T14:47:41Z</time>
      </trkpt>
      <trkpt lat="44.34273" lon="4.25681">
        <ele>321</ele>
        <time>2014-05-30T14:47:43Z</time>
      </trkpt>
      <trkpt lat="44.3427" lon="4.25666">
        <ele>319</ele>
        <time>2014-05-30T14:47:45Z</time>
      </trkpt>
      <trkpt lat="44.34267" lon="4.25652">
        <ele>319</ele>
        <time>2014-05-30T14:47:48Z</time>
      </trkpt>
      <trkpt lat="44.34263" lon="4.25635">
        <ele>320</ele>
        <time>2014-05-30T14:47:50Z</time>
      </trkpt>
      <trkpt lat="44.34258" lon="4.25616">
        <ele>319</ele>
        <time>2014-05-30T14:47:53Z</time>
      </trkpt>
      <trkpt lat="44.34253" lon="4.25597">
        <ele>316</ele>
        <time>2014-05-30T14:47:56Z</time>
      </trkpt>
      <trkpt lat="44.3425" lon="4.25579">
        <ele>309</ele>
        <time>2014-05-30T14:47:59Z</time>
      </trkpt>
      <trkpt lat="44.34251" lon="4.25563">
        <ele>313</ele>
        <time>2014-05-30T14:48:02Z</time>
      </trkpt>
      <trkpt lat="44.34256" lon="4.2555">
        <ele>313</ele>
        <time>2014-05-30T14:48:06Z</time>
      </trkpt>
      <trkpt lat="44.34265" lon="4.25537">
        <ele>312</ele>
        <time>2014-05-30T14:48:09Z</time>
      </trkpt>
      <trkpt lat="44.34279" lon="4.25526">
        <ele>312</ele>
        <time>2014-05-30T14:48:14Z</time>
      </trkpt>
      <trkpt lat="44.34294" lon="4.25521">
        <ele>313</ele>
        <time>2014-05-30T14:48:18Z</time>
      </trkpt>
      <trkpt lat="44.34314" lon="4.25521">
        <ele>314</ele>
        <time>2014-05-30T14:48:22Z</time>
      </trkpt>
      <trkpt lat="44.34327" lon="4.25512">
        <ele>313</ele>
        <time>2014-05-30T14:48:41Z</time>
      </trkpt>
      <trkpt lat="44.3434" lon="4.25513">
        <ele>315</ele>
        <time>2014-05-30T14:49:01Z</time>
      </trkpt>
      <trkpt lat="44.34357" lon="4.25519">
        <ele>316</ele>
        <time>2014-05-30T14:49:08Z</time>
      </trkpt>
      <trkpt lat="44.34371" lon="4.25522">
        <ele>316</ele>
        <time>2014-05-30T14:49:13Z</time>
      </trkpt>
      <trkpt lat="44.34385" lon="4.25526">
        <ele>315</ele>
        <time>2014-05-30T14:49:18Z</time>
      </trkpt>
      <trkpt lat="44.34401" lon="4.25528">
        <ele>314</ele>
        <time>2014-05-30T14:49:23Z</time>
      </trkpt>
      <trkpt lat="44.34414" lon="4.2552">
        <ele>312</ele>
        <time>2014-05-30T14:49:29Z</time>
      </trkpt>
      <trkpt lat="44.34424" lon="4.25509">
        <ele>307</ele>
        <time>2014-05-30T14:49:36Z</time>
      </trkpt>
      <trkpt lat="44.34434" lon="4.25497">
        <ele>303</ele>
        <time>2014-05-30T14:49:43Z</time>
      </trkpt>
      <trkpt lat="44.34443" lon="4.25485">
        <ele>301</ele>
        <time>2014-05-30T14:49:47Z</time>
      </trkpt>
      <trkpt lat="44.34454" lon="4.25473">
        <ele>300</ele>
        <time>2014-05-30T14:49:51Z</time>
      </trkpt>
      <trkpt lat="44.34464" lon="4.25461">
        <ele>300</ele>
        <time>2014-05-30T14:49:54Z</time>
      </trkpt>
      <trkpt lat="44.34472" lon="4.25447">
        <ele>299</ele>
        <time>2014-05-30T14:49:57Z</time>
      </trkpt>
      <trkpt lat="44.34482" lon="4.25433">
        <ele>299</ele>
        <time>2014-05-30T14:50:00Z</time>
      </trkpt>
      <trkpt lat="44.34493" lon="4.25423">
        <ele>299</ele>
        <time>2014-05-30T14:50:03Z</time>
      </trkpt>
      <trkpt lat="44.34505" lon="4.25412">
        <ele>297</ele>
        <time>2014-05-30T14:50:08Z</time>
      </trkpt>
      <trkpt lat="44.3452" lon="4.25405">
        <ele>294</ele>
        <time>2014-05-30T14:50:13Z</time>
      </trkpt>
      <trkpt lat="44.34537" lon="4.25402">
        <ele>291</ele>
        <time>2014-05-30T14:50:17Z</time>
      </trkpt>
      <trkpt lat="44.34553" lon="4.25399">
        <ele>290</ele>
        <time>2014-05-30T14:50:22Z</time>
      </trkpt>
      <trkpt lat="44.34568" lon="4.25397">
        <ele>288</ele>
        <time>2014-05-30T14:50:29Z</time>
      </trkpt>
      <trkpt lat="44.34584" lon="4.25395">
        <ele>281</ele>
        <time>2014-05-30T14:50:35Z</time>
      </trkpt>
      <trkpt lat="44.34599" lon="4.25398">
        <ele>280</ele>
        <time>2014-05-30T14:50:39Z</time>
      </trkpt>
      <trkpt lat="44.34616" lon="4.25401">
        <ele>278</ele>
        <time>2014-05-30T14:50:42Z</time>
      </trkpt>
      <trkpt lat="44.34632" lon="4.25396">
        <ele>277</ele>
        <time>2014-05-30T14:50:47Z</time>
      </trkpt>
      <trkpt lat="44.34646" lon="4.25388">
        <ele>276</ele>
        <time>2014-05-30T14:50:51Z</time>
      </trkpt>
      <trkpt lat="44.34662" lon="4.25387">
        <ele>275</ele>
        <time>2014-05-30T14:50:54Z</time>
      </trkpt>
      <trkpt lat="44.3468" lon="4.25388">
        <ele>266</ele>
        <time>2014-05-30T14:50:59Z</time>
      </trkpt>
      <trkpt lat="44.34694" lon="4.25386">
        <ele>264</ele>
        <time>2014-05-30T14:51:05Z</time>
      </trkpt>
      <trkpt lat="44.34708" lon="4.25386">
        <ele>263</ele>
        <time>2014-05-30T14:51:11Z</time>
      </trkpt>
      <trkpt lat="44.34719" lon="4.25375">
        <ele>262</ele>
        <time>2014-05-30T14:51:17Z</time>
      </trkpt>
      <trkpt lat="44.34731" lon="4.25369">
        <ele>261</ele>
        <time>2014-05-30T14:51:25Z</time>
      </trkpt>
      <trkpt lat="44.34744" lon="4.25361">
        <ele>260</ele>
        <time>2014-05-30T14:51:32Z</time>
      </trkpt>
      <trkpt lat="44.34759" lon="4.25353">
        <ele>251</ele>
        <time>2014-05-30T14:51:37Z</time>
      </trkpt>
      <trkpt lat="44.34774" lon="4.25347">
        <ele>250</ele>
        <time>2014-05-30T14:51:42Z</time>
      </trkpt>
      <trkpt lat="44.34789" lon="4.25348">
        <ele>248</ele>
        <time>2014-05-30T14:51:47Z</time>
      </trkpt>
      <trkpt lat="44.34801" lon="4.2534">
        <ele>247</ele>
        <time>2014-05-30T14:51:52Z</time>
      </trkpt>
      <trkpt lat="44.34815" lon="4.25331">
        <ele>244</ele>
        <time>2014-05-30T14:51:56Z</time>
      </trkpt>
      <trkpt lat="44.3483" lon="4.25328">
        <ele>243</ele>
        <time>2014-05-30T14:51:59Z</time>
      </trkpt>
      <trkpt lat="44.34843" lon="4.2532">
        <ele>238</ele>
        <time>2014-05-30T14:52:03Z</time>
      </trkpt>
      <trkpt lat="44.34854" lon="4.25308">
        <ele>236</ele>
        <time>2014-05-30T14:52:06Z</time>
      </trkpt>
      <trkpt lat="44.34868" lon="4.25295">
        <ele>234</ele>
        <time>2014-05-30T14:52:09Z</time>
      </trkpt>
      <trkpt lat="44.34881" lon="4.25284">
        <ele>233</ele>
        <time>2014-05-30T14:52:12Z</time>
      </trkpt>
      <trkpt lat="44.34894" lon="4.25274">
        <ele>232</ele>
        <time>2014-05-30T14:52:16Z</time>
      </trkpt>
      <trkpt lat="44.34904" lon="4.25261">
        <ele>231</ele>
        <time>2014-05-30T14:52:20Z</time>
      </trkpt>
      <trkpt lat="44.34916" lon="4.2525">
        <ele>229</ele>
        <time>2014-05-30T14:52:23Z</time>
      </trkpt>
      <trkpt lat="44.34929" lon="4.2524">
        <ele>226</ele>
        <time>2014-05-30T14:52:28Z</time>
      </trkpt>
      <trkpt lat="44.34943" lon="4.25231">
        <ele>225</ele>
        <time>2014-05-30T14:52:31Z</time>
      </trkpt>
      <trkpt lat="44.34959" lon="4.25226">
        <ele>224</ele>
        <time>2014-05-30T14:52:35Z</time>
      </trkpt>
      <trkpt lat="44.34973" lon="4.25222">
        <ele>223</ele>
        <time>2014-05-30T14:52:39Z</time>
      </trkpt>
      <trkpt lat="44.34988" lon="4.25227">
        <ele>223</ele>
        <time>2014-05-30T14:52:43Z</time>
      </trkpt>
      <trkpt lat="44.35004" lon="4.25227">
        <ele>218</ele>
        <time>2014-05-30T14:52:47Z</time>
      </trkpt>
      <trkpt lat="44.35019" lon="4.25231">
        <ele>217</ele>
        <time>2014-05-30T14:52:50Z</time>
      </trkpt>
      <trkpt lat="44.35033" lon="4.25233">
        <ele>216</ele>
        <time>2014-05-30T14:52:55Z</time>
      </trkpt>
      <trkpt lat="44.35049" lon="4.25233">
        <ele>214</ele>
        <time>2014-05-30T14:52:59Z</time>
      </trkpt>
      <trkpt lat="44.35065" lon="4.25234">
        <ele>213</ele>
        <time>2014-05-30T14:53:04Z</time>
      </trkpt>
      <trkpt lat="44.3508" lon="4.25232">
        <ele>212</ele>
        <time>2014-05-30T14:53:10Z</time>
      </trkpt>
      <trkpt lat="44.35094" lon="4.25228">
        <ele>204</ele>
        <time>2014-05-30T14:53:14Z</time>
      </trkpt>
      <trkpt lat="44.35104" lon="4.25212">
        <ele>204</ele>
        <time>2014-05-30T14:53:20Z</time>
      </trkpt>
      <trkpt lat="44.35113" lon="4.25196">
        <ele>204</ele>
        <time>2014-05-30T14:53:24Z</time>
      </trkpt>
      <trkpt lat="44.35121" lon="4.2518">
        <ele>203</ele>
        <time>2014-05-30T14:53:27Z</time>
      </trkpt>
      <trkpt lat="44.35129" lon="4.25164">
        <ele>201</ele>
        <time>2014-05-30T14:53:31Z</time>
      </trkpt>
      <trkpt lat="44.35132" lon="4.25148">
        <ele>201</ele>
        <time>2014-05-30T14:53:33Z</time>
      </trkpt>
      <trkpt lat="44.35134" lon="4.2513">
        <ele>200</ele>
        <time>2014-05-30T14:53:35Z</time>
      </trkpt>
      <trkpt lat="44.35137" lon="4.25111">
        <ele>199</ele>
        <time>2014-05-30T14:53:38Z</time>
      </trkpt>
      <trkpt lat="44.35148" lon="4.25101">
        <ele>197</ele>
        <time>2014-05-30T14:53:41Z</time>
      </trkpt>
      <trkpt lat="44.35163" lon="4.25107">
        <ele>196</ele>
        <time>2014-05-30T14:53:45Z</time>
      </trkpt>
      <trkpt lat="44.35178" lon="4.25107">
        <ele>188</ele>
        <time>2014-05-30T14:53:48Z</time>
      </trkpt>
      <trkpt lat="44.35192" lon="4.25099">
        <ele>187</ele>
        <time>2014-05-30T14:53:51Z</time>
      </trkpt>
      <trkpt lat="44.352" lon="4.25084">
        <ele>186</ele>
        <time>2014-05-30T14:53:54Z</time>
      </trkpt>
      <trkpt lat="44.35209" lon="4.25068">
        <ele>184</ele>
        <time>2014-05-30T14:53:57Z</time>
      </trkpt>
      <trkpt lat="44.35224" lon="4.25057">
        <ele>182</ele>
        <time>2014-05-30T14:54:00Z</time>
      </trkpt>
      <trkpt lat="44.35239" lon="4.25047">
        <ele>182</ele>
        <time>2014-05-30T14:54:03Z</time>
      </trkpt>
      <trkpt lat="44.35252" lon="4.25038">
        <ele>176</ele>
        <time>2014-05-30T14:54:06Z</time>
      </trkpt>
      <trkpt lat="44.35267" lon="4.25029">
        <ele>176</ele>
        <time>2014-05-30T14:54:09Z</time>
      </trkpt>
      <trkpt lat="44.35272" lon="4.25027">
        <ele>176</ele>
        <time>2014-05-30T14:54:35Z</time>
      </trkpt>
      <trkpt lat="44.35299" lon="4.25017">
        <ele>175</ele>
        <time>2014-05-30T14:55:19Z</time>
      </trkpt>
      <trkpt lat="44.35314" lon="4.25008">
        <ele>174</ele>
        <time>2014-05-30T14:55:23Z</time>
      </trkpt>
      <trkpt lat="44.35322" lon="4.24994">
        <ele>174</ele>
        <time>2014-05-30T14:55:27Z</time>
      </trkpt>
      <trkpt lat="44.35333" lon="4.24981">
        <ele>174</ele>
        <time>2014-05-30T14:55:30Z</time>
      </trkpt>
      <trkpt lat="44.35342" lon="4.24968">
        <ele>171</ele>
        <time>2014-05-30T14:55:33Z</time>
      </trkpt>
      <trkpt lat="44.35351" lon="4.24955">
        <ele>171</ele>
        <time>2014-05-30T14:55:36Z</time>
      </trkpt>
      <trkpt lat="44.35362" lon="4.24943">
        <ele>171</ele>
        <time>2014-05-30T14:55:39Z</time>
      </trkpt>
      <trkpt lat="44.35371" lon="4.24929">
        <ele>171</ele>
        <time>2014-05-30T14:55:42Z</time>
      </trkpt>
      <trkpt lat="44.35378" lon="4.24913">
        <ele>173</ele>
        <time>2014-05-30T14:55:45Z</time>
      </trkpt>
      <trkpt lat="44.35388" lon="4.24898">
        <ele>173</ele>
        <time>2014-05-30T14:55:48Z</time>
      </trkpt>
      <trkpt lat="44.35398" lon="4.24886">
        <ele>173</ele>
        <time>2014-05-30T14:55:53Z</time>
      </trkpt>
      <trkpt lat="44.35408" lon="4.24874">
        <ele>173</ele>
        <time>2014-05-30T14:55:57Z</time>
      </trkpt>
      <trkpt lat="44.35418" lon="4.24864">
        <ele>170</ele>
        <time>2014-05-30T14:56:01Z</time>
      </trkpt>
      <trkpt lat="44.35428" lon="4.24849">
        <ele>171</ele>
        <time>2014-05-30T14:56:05Z</time>
      </trkpt>
      <trkpt lat="44.35436" lon="4.24836">
        <ele>171</ele>
        <time>2014-05-30T14:56:08Z</time>
      </trkpt>
      <trkpt lat="44.35448" lon="4.24823">
        <ele>170</ele>
        <time>2014-05-30T14:56:12Z</time>
      </trkpt>
      <trkpt lat="44.35458" lon="4.2481">
        <ele>170</ele>
        <time>2014-05-30T14:56:15Z</time>
      </trkpt>
      <trkpt lat="44.35465" lon="4.24797">
        <ele>169</ele>
        <time>2014-05-30T14:56:18Z</time>
      </trkpt>
      <trkpt lat="44.3547" lon="4.24782">
        <ele>169</ele>
        <time>2014-05-30T14:56:21Z</time>
      </trkpt>
      <trkpt lat="44.35476" lon="4.24769">
        <ele>169</ele>
        <time>2014-05-30T14:56:24Z</time>
      </trkpt>
      <trkpt lat="44.35482" lon="4.24756">
        <ele>169</ele>
        <time>2014-05-30T14:56:27Z</time>
      </trkpt>
      <trkpt lat="44.35491" lon="4.24741">
        <ele>168</ele>
        <time>2014-05-30T14:56:30Z</time>
      </trkpt>
      <trkpt lat="44.35496" lon="4.24724">
        <ele>168</ele>
        <time>2014-05-30T14:56:33Z</time>
      </trkpt>
      <trkpt lat="44.35499" lon="4.24706">
        <ele>168</ele>
        <time>2014-05-30T14:56:36Z</time>
      </trkpt>
      <trkpt lat="44.35504" lon="4.24686">
        <ele>165</ele>
        <time>2014-05-30T14:56:39Z</time>
      </trkpt>
      <trkpt lat="44.3551" lon="4.24669">
        <ele>166</ele>
        <time>2014-05-30T14:56:42Z</time>
      </trkpt>
      <trkpt lat="44.35513" lon="4.24655">
        <ele>165</ele>
        <time>2014-05-30T14:56:44Z</time>
      </trkpt>
      <trkpt lat="44.35518" lon="4.24638">
        <ele>164</ele>
        <time>2014-05-30T14:56:46Z</time>
      </trkpt>
      <trkpt lat="44.35519" lon="4.24627">
        <ele>163</ele>
        <time>2014-05-30T14:56:55Z</time>
      </trkpt>
      <trkpt lat="44.35504" lon="4.24613">
        <ele>163</ele>
        <time>2014-05-30T14:57:04Z</time>
      </trkpt>
      <trkpt lat="44.35493" lon="4.24607">
        <ele>163</ele>
        <time>2014-05-30T14:57:10Z</time>
      </trkpt>
      <trkpt lat="44.35476" lon="4.24602">
        <ele>163</ele>
        <time>2014-05-30T14:57:16Z</time>
      </trkpt>
      <trkpt lat="44.35459" lon="4.24598">
        <ele>164</ele>
        <time>2014-05-30T14:57:20Z</time>
      </trkpt>
      <trkpt lat="44.35442" lon="4.24595">
        <ele>164</ele>
        <time>2014-05-30T14:57:23Z</time>
      </trkpt>
      <trkpt lat="44.35429" lon="4.24586">
        <ele>164</ele>
        <time>2014-05-30T14:57:26Z</time>
      </trkpt>
      <trkpt lat="44.35417" lon="4.24573">
        <ele>161</ele>
        <time>2014-05-30T14:57:29Z</time>
      </trkpt>
      <trkpt lat="44.35405" lon="4.2456">
        <ele>164</ele>
        <time>2014-05-30T14:57:32Z</time>
      </trkpt>
      <trkpt lat="44.35394" lon="4.24545">
        <ele>164</ele>
        <time>2014-05-30T14:57:35Z</time>
      </trkpt>
      <trkpt lat="44.35384" lon="4.2453">
        <ele>163</ele>
        <time>2014-05-30T14:57:37Z</time>
      </trkpt>
      <trkpt lat="44.35376" lon="4.24517">
        <ele>163</ele>
        <time>2014-05-30T14:57:40Z</time>
      </trkpt>
      <trkpt lat="44.35372" lon="4.24502">
        <ele>163</ele>
        <time>2014-05-30T14:57:42Z</time>
      </trkpt>
      <trkpt lat="44.35368" lon="4.24486">
        <ele>158</ele>
        <time>2014-05-30T14:57:43Z</time>
      </trkpt>
      <trkpt lat="44.35365" lon="4.24469">
        <ele>158</ele>
        <time>2014-05-30T14:57:46Z</time>
      </trkpt>
      <trkpt lat="44.35362" lon="4.24453">
        <ele>157</ele>
        <time>2014-05-30T14:57:48Z</time>
      </trkpt>
      <trkpt lat="44.35358" lon="4.24438">
        <ele>157</ele>
        <time>2014-05-30T14:57:49Z</time>
      </trkpt>
      <trkpt lat="44.35355" lon="4.24423">
        <ele>157</ele>
        <time>2014-05-30T14:57:52Z</time>
      </trkpt>
      <trkpt lat="44.35352" lon="4.24407">
        <ele>156</ele>
        <time>2014-05-30T14:57:54Z</time>
      </trkpt>
      <trkpt lat="44.35349" lon="4.24389">
        <ele>155</ele>
        <time>2014-05-30T14:57:56Z</time>
      </trkpt>
      <trkpt lat="44.35347" lon="4.2437">
        <ele>155</ele>
        <time>2014-05-30T14:57:59Z</time>
      </trkpt>
      <trkpt lat="44.35347" lon="4.24353">
        <ele>156</ele>
        <time>2014-05-30T14:58:01Z</time>
      </trkpt>
      <trkpt lat="44.35349" lon="4.24338">
        <ele>156</ele>
        <time>2014-05-30T14:58:03Z</time>
      </trkpt>
      <trkpt lat="44.3535" lon="4.24322">
        <ele>155</ele>
        <time>2014-05-30T14:58:06Z</time>
      </trkpt>
      <trkpt lat="44.35352" lon="4.24306">
        <ele>154</ele>
        <time>2014-05-30T14:58:07Z</time>
      </trkpt>
      <trkpt lat="44.35353" lon="4.2429">
        <ele>153</ele>
        <time>2014-05-30T14:58:09Z</time>
      </trkpt>
      <trkpt lat="44.35355" lon="4.24273">
        <ele>153</ele>
        <time>2014-05-30T14:58:12Z</time>
      </trkpt>
      <trkpt lat="44.35357" lon="4.24255">
        <ele>153</ele>
        <time>2014-05-30T14:58:14Z</time>
      </trkpt>
      <trkpt lat="44.35359" lon="4.24236">
        <ele>151</ele>
        <time>2014-05-30T14:58:15Z</time>
      </trkpt>
      <trkpt lat="44.35361" lon="4.24216">
        <ele>151</ele>
        <time>2014-05-30T14:58:18Z</time>
      </trkpt>
      <trkpt lat="44.35363" lon="4.24196">
        <ele>150</ele>
        <time>2014-05-30T14:58:20Z</time>
      </trkpt>
      <trkpt lat="44.35365" lon="4.24177">
        <ele>150</ele>
        <time>2014-05-30T14:58:21Z</time>
      </trkpt>
      <trkpt lat="44.35368" lon="4.24158">
        <ele>149</ele>
        <time>2014-05-30T14:58:24Z</time>
      </trkpt>
      <trkpt lat="44.3537" lon="4.24138">
        <ele>148</ele>
        <time>2014-05-30T14:58:26Z</time>
      </trkpt>
      <trkpt lat="44.35372" lon="4.24119">
        <ele>148</ele>
        <time>2014-05-30T14:58:27Z</time>
      </trkpt>
      <trkpt lat="44.35374" lon="4.241">
        <ele>147</ele>
        <time>2014-05-30T14:58:30Z</time>
      </trkpt>
      <trkpt lat="44.35376" lon="4.24081">
        <ele>146</ele>
        <time>2014-05-30T14:58:32Z</time>
      </trkpt>
      <trkpt lat="44.35378" lon="4.24062">
        <ele>146</ele>
        <time>2014-05-30T14:58:33Z</time>
      </trkpt>
      <trkpt lat="44.3538" lon="4.24043">
        <ele>146</ele>
        <time>2014-05-30T14:58:35Z</time>
      </trkpt>
      <trkpt lat="44.35383" lon="4.24025">
        <ele>145</ele>
        <time>2014-05-30T14:58:38Z</time>
      </trkpt>
      <trkpt lat="44.35385" lon="4.24007">
        <ele>145</ele>
        <time>2014-05-30T14:58:39Z</time>
      </trkpt>
      <trkpt lat="44.35387" lon="4.23989">
        <ele>144</ele>
        <time>2014-05-30T14:58:41Z</time>
      </trkpt>
      <trkpt lat="44.35389" lon="4.23971">
        <ele>144</ele>
        <time>2014-05-30T14:58:44Z</time>
      </trkpt>
      <trkpt lat="44.35391" lon="4.23953">
        <ele>144</ele>
        <time>2014-05-30T14:58:46Z</time>
      </trkpt>
      <trkpt lat="44.35392" lon="4.23934">
        <ele>144</ele>
        <time>2014-05-30T14:58:48Z</time>
      </trkpt>
      <trkpt lat="44.35393" lon="4.2392">
        <ele>144</ele>
        <time>2014-05-30T14:58:57Z</time>
      </trkpt>
      <trkpt lat="44.3541" lon="4.23909">
        <ele>142</ele>
        <time>2014-05-30T14:59:07Z</time>
      </trkpt>
      <trkpt lat="44.35424" lon="4.23899">
        <ele>141</ele>
        <time>2014-05-30T14:59:10Z</time>
      </trkpt>
      <trkpt lat="44.35437" lon="4.23888">
        <ele>141</ele>
        <time>2014-05-30T14:59:13Z</time>
      </trkpt>
      <trkpt lat="44.35451" lon="4.23877">
        <ele>141</ele>
        <time>2014-05-30T14:59:16Z</time>
      </trkpt>
      <trkpt lat="44.35465" lon="4.23866">
        <ele>141</ele>
        <time>2014-05-30T14:59:19Z</time>
      </trkpt>
      <trkpt lat="44.35479" lon="4.23855">
        <ele>140</ele>
        <time>2014-05-30T14:59:22Z</time>
      </trkpt>
      <trkpt lat="44.35494" lon="4.23844">
        <ele>140</ele>
        <time>2014-05-30T14:59:25Z</time>
      </trkpt>
      <trkpt lat="44.35509" lon="4.23833">
        <ele>139</ele>
        <time>2014-05-30T14:59:28Z</time>
      </trkpt>
      <trkpt lat="44.35524" lon="4.23824">
        <ele>139</ele>
        <time>2014-05-30T14:59:31Z</time>
      </trkpt>
      <trkpt lat="44.3554" lon="4.23818">
        <ele>139</ele>
        <time>2014-05-30T14:59:34Z</time>
      </trkpt>
      <trkpt lat="44.35556" lon="4.23814">
        <ele>139</ele>
        <time>2014-05-30T14:59:37Z</time>
      </trkpt>
      <trkpt lat="44.35572" lon="4.23808">
        <ele>139</ele>
        <time>2014-05-30T14:59:40Z</time>
      </trkpt>
      <trkpt lat="44.35588" lon="4.23807">
        <ele>139</ele>
        <time>2014-05-30T14:59:43Z</time>
      </trkpt>
      <trkpt lat="44.35605" lon="4.23807">
        <ele>139</ele>
        <time>2014-05-30T14:59:46Z</time>
      </trkpt>
      <trkpt lat="44.3562" lon="4.23808">
        <ele>139</ele>
        <time>2014-05-30T14:59:49Z</time>
      </trkpt>
      <trkpt lat="44.35635" lon="4.23804">
        <ele>139</ele>
        <time>2014-05-30T14:59:52Z</time>
      </trkpt>
      <trkpt lat="44.35651" lon="4.23795">
        <ele>139</ele>
        <time>2014-05-30T14:59:55Z</time>
      </trkpt>
      <trkpt lat="44.35663" lon="4.23782">
        <ele>140</ele>
        <time>2014-05-30T14:59:57Z</time>
      </trkpt>
      <trkpt lat="44.35669" lon="4.23769">
        <ele>141</ele>
        <time>2014-05-30T15:00:00Z</time>
      </trkpt>
      <trkpt lat="44.35672" lon="4.23754">
        <ele>140</ele>
        <time>2014-05-30T15:00:02Z</time>
      </trkpt>
      <trkpt lat="44.35674" lon="4.23735">
        <ele>141</ele>
        <time>2014-05-30T15:00:04Z</time>
      </trkpt>
      <trkpt lat="44.35678" lon="4.23716">
        <ele>141</ele>
        <time>2014-05-30T15:00:07Z</time>
      </trkpt>
      <trkpt lat="44.35685" lon="4.23697">
        <ele>141</ele>
        <time>2014-05-30T15:00:10Z</time>
      </trkpt>
      <trkpt lat="44.35693" lon="4.2368">
        <ele>141</ele>
        <time>2014-05-30T15:00:13Z</time>
      </trkpt>
      <trkpt lat="44.35702" lon="4.23665">
        <ele>141</ele>
        <time>2014-05-30T15:00:16Z</time>
      </trkpt>
      <trkpt lat="44.35711" lon="4.23651">
        <ele>141</ele>
        <time>2014-05-30T15:00:20Z</time>
      </trkpt>
      <trkpt lat="44.35724" lon="4.23643">
        <ele>141</ele>
        <time>2014-05-30T15:00:24Z</time>
      </trkpt>
      <trkpt lat="44.3574" lon="4.23641">
        <ele>142</ele>
        <time>2014-05-30T15:00:28Z</time>
      </trkpt>
      <trkpt lat="44.35757" lon="4.2364">
        <ele>144</ele>
        <time>2014-05-30T15:00:33Z</time>
      </trkpt>
      <trkpt lat="44.35774" lon="4.23638">
        <ele>145</ele>
        <time>2014-05-30T15:00:37Z</time>
      </trkpt>
      <trkpt lat="44.3579" lon="4.23636">
        <ele>145</ele>
        <time>2014-05-30T15:00:40Z</time>
      </trkpt>
      <trkpt lat="44.35804" lon="4.23632">
        <ele>145</ele>
        <time>2014-05-30T15:00:44Z</time>
      </trkpt>
      <trkpt lat="44.35821" lon="4.23622">
        <ele>146</ele>
        <time>2014-05-30T15:00:49Z</time>
      </trkpt>
      <trkpt lat="44.35835" lon="4.23611">
        <ele>148</ele>
        <time>2014-05-30T15:00:53Z</time>
      </trkpt>
      <trkpt lat="44.35848" lon="4.236">
        <ele>147</ele>
        <time>2014-05-30T15:00:57Z</time>
      </trkpt>
      <trkpt lat="44.35861" lon="4.23589">
        <ele>148</ele>
        <time>2014-05-30T15:01:00Z</time>
      </trkpt>
      <trkpt lat="44.35871" lon="4.23578">
        <ele>147</ele>
        <time>2014-05-30T15:01:05Z</time>
      </trkpt>
      <trkpt lat="44.3588" lon="4.23566">
        <ele>147</ele>
        <time>2014-05-30T15:01:09Z</time>
      </trkpt>
      <trkpt lat="44.35888" lon="4.23553">
        <ele>148</ele>
        <time>2014-05-30T15:01:12Z</time>
      </trkpt>
      <trkpt lat="44.35896" lon="4.23538">
        <ele>148</ele>
        <time>2014-05-30T15:01:17Z</time>
      </trkpt>
      <trkpt lat="44.35899" lon="4.23524">
        <ele>148</ele>
        <time>2014-05-30T15:01:22Z</time>
      </trkpt>
      <trkpt lat="44.35901" lon="4.23506">
        <ele>149</ele>
        <time>2014-05-30T15:01:25Z</time>
      </trkpt>
      <trkpt lat="44.35905" lon="4.23489">
        <ele>147</ele>
        <time>2014-05-30T15:01:29Z</time>
      </trkpt>
      <trkpt lat="44.35908" lon="4.23473">
        <ele>146</ele>
        <time>2014-05-30T15:01:32Z</time>
      </trkpt>
      <trkpt lat="44.35918" lon="4.23462">
        <ele>148</ele>
        <time>2014-05-30T15:01:37Z</time>
      </trkpt>
      <trkpt lat="44.35934" lon="4.23462">
        <ele>148</ele>
        <time>2014-05-30T15:01:43Z</time>
      </trkpt>
      <trkpt lat="44.35947" lon="4.2345">
        <ele>148</ele>
        <time>2014-05-30T15:01:47Z</time>
      </trkpt>
      <trkpt lat="44.35954" lon="4.23434">
        <ele>147</ele>
        <time>2014-05-30T15:01:50Z</time>
      </trkpt>
      <trkpt lat="44.35962" lon="4.23419">
        <ele>148</ele>
        <time>2014-05-30T15:01:55Z</time>
      </trkpt>
      <trkpt lat="44.35969" lon="4.23406">
        <ele>146</ele>
        <time>2014-05-30T15:01:59Z</time>
      </trkpt>
      <trkpt lat="44.3598" lon="4.23393">
        <ele>146</ele>
        <time>2014-05-30T15:02:03Z</time>
      </trkpt>
      <trkpt lat="44.35991" lon="4.23383">
        <ele>146</ele>
        <time>2014-05-30T15:02:08Z</time>
      </trkpt>
      <trkpt lat="44.36004" lon="4.23378">
        <ele>148</ele>
        <time>2014-05-30T15:02:12Z</time>
      </trkpt>
      <trkpt lat="44.36023" lon="4.23373">
        <ele>148</ele>
        <time>2014-05-30T15:02:17Z</time>
      </trkpt>
      <trkpt lat="44.36035" lon="4.23363">
        <ele>148</ele>
        <time>2014-05-30T15:02:21Z</time>
      </trkpt>
      <trkpt lat="44.3605" lon="4.23353">
        <ele>148</ele>
        <time>2014-05-30T15:02:25Z</time>
      </trkpt>
      <trkpt lat="44.36057" lon="4.23358">
        <ele>148</ele>
        <time>2014-05-30T15:02:32Z</time>
      </trkpt>
      <trkpt lat="44.36052" lon="4.23372">
        <ele>148</ele>
        <time>2014-05-30T15:02:39Z</time>
      </trkpt>
      <trkpt lat="44.36076" lon="4.23341">
        <ele>148</ele>
        <time>2014-05-30T15:15:00Z</time>
      </trkpt>
      <trkpt lat="44.36091" lon="4.23337">
        <ele>147</ele>
        <time>2014-05-30T15:15:05Z</time>
      </trkpt>
      <trkpt lat="44.36106" lon="4.23331">
        <ele>144</ele>
        <time>2014-05-30T15:15:09Z</time>
      </trkpt>
      <trkpt lat="44.3612" lon="4.2332">
        <ele>142</ele>
        <time>2014-05-30T15:15:12Z</time>
      </trkpt>
      <trkpt lat="44.36132" lon="4.23307">
        <ele>142</ele>
        <time>2014-05-30T15:15:15Z</time>
      </trkpt>
      <trkpt lat="44.36145" lon="4.23294">
        <ele>141</ele>
        <time>2014-05-30T15:15:18Z</time>
      </trkpt>
      <trkpt lat="44.36156" lon="4.23282">
        <ele>141</ele>
        <time>2014-05-30T15:15:19Z</time>
      </trkpt>
      <trkpt lat="44.36168" lon="4.23269">
        <ele>138</ele>
        <time>2014-05-30T15:15:21Z</time>
      </trkpt>
      <trkpt lat="44.3618" lon="4.23256">
        <ele>138</ele>
        <time>2014-05-30T15:15:24Z</time>
      </trkpt>
      <trkpt lat="44.36192" lon="4.23244">
        <ele>136</ele>
        <time>2014-05-30T15:15:25Z</time>
      </trkpt>
      <trkpt lat="44.36202" lon="4.23232">
        <ele>136</ele>
        <time>2014-05-30T15:15:27Z</time>
      </trkpt>
      <trkpt lat="44.3621" lon="4.23217">
        <ele>135</ele>
        <time>2014-05-30T15:15:30Z</time>
      </trkpt>
      <trkpt lat="44.36216" lon="4.232">
        <ele>135</ele>
        <time>2014-05-30T15:15:32Z</time>
      </trkpt>
      <trkpt lat="44.36228" lon="4.23191">
        <ele>135</ele>
        <time>2014-05-30T15:15:35Z</time>
      </trkpt>
      <trkpt lat="44.36243" lon="4.23189">
        <ele>135</ele>
        <time>2014-05-30T15:15:38Z</time>
      </trkpt>
      <trkpt lat="44.36258" lon="4.23189">
        <ele>133</ele>
        <time>2014-05-30T15:15:41Z</time>
      </trkpt>
      <trkpt lat="44.36275" lon="4.23189">
        <ele>133</ele>
        <time>2014-05-30T15:15:44Z</time>
      </trkpt>
      <trkpt lat="44.36289" lon="4.23189">
        <ele>132</ele>
        <time>2014-05-30T15:15:47Z</time>
      </trkpt>
      <trkpt lat="44.36306" lon="4.23188">
        <ele>132</ele>
        <time>2014-05-30T15:15:51Z</time>
      </trkpt>
      <trkpt lat="44.3632" lon="4.23185">
        <ele>131</ele>
        <time>2014-05-30T15:15:55Z</time>
      </trkpt>
      <trkpt lat="44.36336" lon="4.23174">
        <ele>130</ele>
        <time>2014-05-30T15:15:58Z</time>
      </trkpt>
      <trkpt lat="44.36351" lon="4.23168">
        <ele>130</ele>
        <time>2014-05-30T15:16:03Z</time>
      </trkpt>
      <trkpt lat="44.36369" lon="4.23169">
        <ele>130</ele>
        <time>2014-05-30T15:16:07Z</time>
      </trkpt>
      <trkpt lat="44.36386" lon="4.23174">
        <ele>130</ele>
        <time>2014-05-30T15:16:10Z</time>
      </trkpt>
      <trkpt lat="44.36398" lon="4.23183">
        <ele>130</ele>
        <time>2014-05-30T15:16:15Z</time>
      </trkpt>
      <trkpt lat="44.36411" lon="4.2319">
        <ele>130</ele>
        <time>2014-05-30T15:16:19Z</time>
      </trkpt>
      <trkpt lat="44.36426" lon="4.23195">
        <ele>130</ele>
        <time>2014-05-30T15:16:23Z</time>
      </trkpt>
      <trkpt lat="44.36441" lon="4.23198">
        <ele>130</ele>
        <time>2014-05-30T15:16:29Z</time>
      </trkpt>
      <trkpt lat="44.36455" lon="4.232">
        <ele>130</ele>
        <time>2014-05-30T15:16:34Z</time>
      </trkpt>
      <trkpt lat="44.36472" lon="4.23203">
        <ele>130</ele>
        <time>2014-05-30T15:16:39Z</time>
      </trkpt>
      <trkpt lat="44.36489" lon="4.23205">
        <ele>130</ele>
        <time>2014-05-30T15:16:42Z</time>
      </trkpt>
      <trkpt lat="44.36505" lon="4.23208">
        <ele>129</ele>
        <time>2014-05-30T15:16:47Z</time>
      </trkpt>
      <trkpt lat="44.36517" lon="4.23203">
        <ele>129</ele>
        <time>2014-05-30T15:16:58Z</time>
      </trkpt>
      <trkpt lat="44.36493" lon="4.232">
        <ele>130</ele>
        <time>2014-05-30T15:17:10Z</time>
      </trkpt>
      <trkpt lat="44.36477" lon="4.23198">
        <ele>130</ele>
        <time>2014-05-30T15:17:15Z</time>
      </trkpt>
      <trkpt lat="44.36461" lon="4.23195">
        <ele>130</ele>
        <time>2014-05-30T15:17:20Z</time>
      </trkpt>
      <trkpt lat="44.36446" lon="4.23194">
        <ele>130</ele>
        <time>2014-05-30T15:17:24Z</time>
      </trkpt>
      <trkpt lat="44.36431" lon="4.23192">
        <ele>130</ele>
        <time>2014-05-30T15:17:27Z</time>
      </trkpt>
      <trkpt lat="44.36416" lon="4.23188">
        <ele>130</ele>
        <time>2014-05-30T15:17:32Z</time>
      </trkpt>
      <trkpt lat="44.36401" lon="4.2318">
        <ele>130</ele>
        <time>2014-05-30T15:17:36Z</time>
      </trkpt>
      <trkpt lat="44.36386" lon="4.23171">
        <ele>130</ele>
        <time>2014-05-30T15:17:39Z</time>
      </trkpt>
      <trkpt lat="44.36371" lon="4.23164">
        <ele>129</ele>
        <time>2014-05-30T15:17:44Z</time>
      </trkpt>
      <trkpt lat="44.36356" lon="4.23157">
        <ele>129</ele>
        <time>2014-05-30T15:17:48Z</time>
      </trkpt>
      <trkpt lat="44.36342" lon="4.23151">
        <ele>129</ele>
        <time>2014-05-30T15:17:51Z</time>
      </trkpt>
      <trkpt lat="44.36327" lon="4.23142">
        <ele>130</ele>
        <time>2014-05-30T15:17:56Z</time>
      </trkpt>
      <trkpt lat="44.36311" lon="4.23135">
        <ele>131</ele>
        <time>2014-05-30T15:17:59Z</time>
      </trkpt>
      <trkpt lat="44.36295" lon="4.23131">
        <ele>131</ele>
        <time>2014-05-30T15:18:04Z</time>
      </trkpt>
      <trkpt lat="44.36278" lon="4.23127">
        <ele>131</ele>
        <time>2014-05-30T15:18:08Z</time>
      </trkpt>
      <trkpt lat="44.36261" lon="4.23121">
        <ele>131</ele>
        <time>2014-05-30T15:18:11Z</time>
      </trkpt>
      <trkpt lat="44.36245" lon="4.23114">
        <ele>131</ele>
        <time>2014-05-30T15:18:16Z</time>
      </trkpt>
      <trkpt lat="44.36234" lon="4.23102">
        <ele>131</ele>
        <time>2014-05-30T15:18:19Z</time>
      </trkpt>
      <trkpt lat="44.36234" lon="4.23083">
        <ele>130</ele>
        <time>2014-05-30T15:18:22Z</time>
      </trkpt>
      <trkpt lat="44.36234" lon="4.23063">
        <ele>130</ele>
        <time>2014-05-30T15:18:25Z</time>
      </trkpt>
      <trkpt lat="44.36235" lon="4.23043">
        <ele>130</ele>
        <time>2014-05-30T15:18:28Z</time>
      </trkpt>
      <trkpt lat="44.36239" lon="4.23025">
        <ele>130</ele>
        <time>2014-05-30T15:18:31Z</time>
      </trkpt>
      <trkpt lat="44.36245" lon="4.2301">
        <ele>129</ele>
        <time>2014-05-30T15:18:34Z</time>
      </trkpt>
      <trkpt lat="44.36254" lon="4.22997">
        <ele>129</ele>
        <time>2014-05-30T15:18:37Z</time>
      </trkpt>
      <trkpt lat="44.36264" lon="4.22983">
        <ele>129</ele>
        <time>2014-05-30T15:18:40Z</time>
      </trkpt>
      <trkpt lat="44.36273" lon="4.22968">
        <ele>129</ele>
        <time>2014-05-30T15:18:43Z</time>
      </trkpt>
      <trkpt lat="44.36281" lon="4.22952">
        <ele>129</ele>
        <time>2014-05-30T15:18:46Z</time>
      </trkpt>
      <trkpt lat="44.36289" lon="4.22934">
        <ele>129</ele>
        <time>2014-05-30T15:18:49Z</time>
      </trkpt>
      <trkpt lat="44.36296" lon="4.22917">
        <ele>128</ele>
        <time>2014-05-30T15:18:52Z</time>
      </trkpt>
      <trkpt lat="44.36305" lon="4.22901">
        <ele>128</ele>
        <time>2014-05-30T15:18:55Z</time>
      </trkpt>
      <trkpt lat="44.36314" lon="4.22886">
        <ele>128</ele>
        <time>2014-05-30T15:18:58Z</time>
      </trkpt>
      <trkpt lat="44.36324" lon="4.2287">
        <ele>128</ele>
        <time>2014-05-30T15:19:01Z</time>
      </trkpt>
      <trkpt lat="44.36333" lon="4.22854">
        <ele>128</ele>
        <time>2014-05-30T15:19:04Z</time>
      </trkpt>
      <trkpt lat="44.3634" lon="4.22836">
        <ele>128</ele>
        <time>2014-05-30T15:19:07Z</time>
      </trkpt>
      <trkpt lat="44.36346" lon="4.22817">
        <ele>128</ele>
        <time>2014-05-30T15:19:10Z</time>
      </trkpt>
      <trkpt lat="44.36352" lon="4.22797">
        <ele>127</ele>
        <time>2014-05-30T15:19:13Z</time>
      </trkpt>
      <trkpt lat="44.36358" lon="4.22779">
        <ele>127</ele>
        <time>2014-05-30T15:19:16Z</time>
      </trkpt>
      <trkpt lat="44.36364" lon="4.2276">
        <ele>127</ele>
        <time>2014-05-30T15:19:19Z</time>
      </trkpt>
      <trkpt lat="44.36371" lon="4.22742">
        <ele>127</ele>
        <time>2014-05-30T15:19:22Z</time>
      </trkpt>
      <trkpt lat="44.36377" lon="4.22724">
        <ele>127</ele>
        <time>2014-05-30T15:19:25Z</time>
      </trkpt>
      <trkpt lat="44.36383" lon="4.22705">
        <ele>127</ele>
        <time>2014-05-30T15:19:28Z</time>
      </trkpt>
      <trkpt lat="44.3639" lon="4.22685">
        <ele>127</ele>
        <time>2014-05-30T15:19:31Z</time>
      </trkpt>
      <trkpt lat="44.36395" lon="4.22668">
        <ele>127</ele>
        <time>2014-05-30T15:19:34Z</time>
      </trkpt>
      <trkpt lat="44.36397" lon="4.22651">
        <ele>127</ele>
        <time>2014-05-30T15:19:36Z</time>
      </trkpt>
      <trkpt lat="44.36388" lon="4.22639">
        <ele>127</ele>
        <time>2014-05-30T15:19:40Z</time>
      </trkpt>
      <trkpt lat="44.36374" lon="4.22628">
        <ele>127</ele>
        <time>2014-05-30T15:19:48Z</time>
      </trkpt>
      <trkpt lat="44.36374" lon="4.22635">
        <ele>127</ele>
        <time>2014-05-30T15:20:01Z</time>
      </trkpt>
      <trkpt lat="44.36404" lon="4.22666">
        <ele>127</ele>
        <time>2014-05-30T15:20:11Z</time>
      </trkpt>
      <trkpt lat="44.3642" lon="4.22673">
        <ele>127</ele>
        <time>2014-05-30T15:20:14Z</time>
      </trkpt>
      <trkpt lat="44.36431" lon="4.22661">
        <ele>128</ele>
        <time>2014-05-30T15:20:17Z</time>
      </trkpt>
      <trkpt lat="44.36439" lon="4.22644">
        <ele>128</ele>
        <time>2014-05-30T15:20:20Z</time>
      </trkpt>
      <trkpt lat="44.36446" lon="4.22627">
        <ele>128</ele>
        <time>2014-05-30T15:20:23Z</time>
      </trkpt>
      <trkpt lat="44.36452" lon="4.22612">
        <ele>128</ele>
        <time>2014-05-30T15:20:26Z</time>
      </trkpt>
      <trkpt lat="44.36458" lon="4.22597">
        <ele>129</ele>
        <time>2014-05-30T15:20:29Z</time>
      </trkpt>
      <trkpt lat="44.36464" lon="4.22582">
        <ele>130</ele>
        <time>2014-05-30T15:20:32Z</time>
      </trkpt>
      <trkpt lat="44.36471" lon="4.22563">
        <ele>130</ele>
        <time>2014-05-30T15:20:37Z</time>
      </trkpt>
      <trkpt lat="44.36475" lon="4.22547">
        <ele>130</ele>
        <time>2014-05-30T15:20:40Z</time>
      </trkpt>
      <trkpt lat="44.3648" lon="4.22533">
        <ele>130</ele>
        <time>2014-05-30T15:20:43Z</time>
      </trkpt>
      <trkpt lat="44.36485" lon="4.22518">
        <ele>130</ele>
        <time>2014-05-30T15:20:46Z</time>
      </trkpt>
      <trkpt lat="44.3649" lon="4.22504">
        <ele>131</ele>
        <time>2014-05-30T15:20:49Z</time>
      </trkpt>
      <trkpt lat="44.36496" lon="4.22491">
        <ele>131</ele>
        <time>2014-05-30T15:20:52Z</time>
      </trkpt>
      <trkpt lat="44.36501" lon="4.22477">
        <ele>132</ele>
        <time>2014-05-30T15:20:55Z</time>
      </trkpt>
      <trkpt lat="44.36507" lon="4.22463">
        <ele>132</ele>
        <time>2014-05-30T15:20:58Z</time>
      </trkpt>
      <trkpt lat="44.36515" lon="4.22448">
        <ele>132</ele>
        <time>2014-05-30T15:21:02Z</time>
      </trkpt>
      <trkpt lat="44.36522" lon="4.22433">
        <ele>133</ele>
        <time>2014-05-30T15:21:05Z</time>
      </trkpt>
      <trkpt lat="44.3653" lon="4.22418">
        <ele>133</ele>
        <time>2014-05-30T15:21:09Z</time>
      </trkpt>
      <trkpt lat="44.36539" lon="4.22402">
        <ele>133</ele>
        <time>2014-05-30T15:21:13Z</time>
      </trkpt>
      <trkpt lat="44.36546" lon="4.22387">
        <ele>133</ele>
        <time>2014-05-30T15:21:16Z</time>
      </trkpt>
      <trkpt lat="44.36554" lon="4.22373">
        <ele>133</ele>
        <time>2014-05-30T15:21:19Z</time>
      </trkpt>
      <trkpt lat="44.36561" lon="4.2236">
        <ele>133</ele>
        <time>2014-05-30T15:21:22Z</time>
      </trkpt>
      <trkpt lat="44.36567" lon="4.22346">
        <ele>134</ele>
        <time>2014-05-30T15:21:25Z</time>
      </trkpt>
      <trkpt lat="44.36574" lon="4.22333">
        <ele>134</ele>
        <time>2014-05-30T15:21:28Z</time>
      </trkpt>
      <trkpt lat="44.36581" lon="4.2232">
        <ele>134</ele>
        <time>2014-05-30T15:21:31Z</time>
      </trkpt>
      <trkpt lat="44.36588" lon="4.22307">
        <ele>134</ele>
        <time>2014-05-30T15:21:34Z</time>
      </trkpt>
      <trkpt lat="44.36595" lon="4.22294">
        <ele>135</ele>
        <time>2014-05-30T15:21:37Z</time>
      </trkpt>
      <trkpt lat="44.36602" lon="4.2228">
        <ele>135</ele>
        <time>2014-05-30T15:21:40Z</time>
      </trkpt>
      <trkpt lat="44.36609" lon="4.22267">
        <ele>135</ele>
        <time>2014-05-30T15:21:43Z</time>
      </trkpt>
      <trkpt lat="44.36617" lon="4.22253">
        <ele>135</ele>
        <time>2014-05-30T15:21:46Z</time>
      </trkpt>
      <trkpt lat="44.36625" lon="4.22239">
        <ele>136</ele>
        <time>2014-05-30T15:21:49Z</time>
      </trkpt>
      <trkpt lat="44.36632" lon="4.22225">
        <ele>136</ele>
        <time>2014-05-30T15:21:52Z</time>
      </trkpt>
      <trkpt lat="44.36641" lon="4.2221">
        <ele>136</ele>
        <time>2014-05-30T15:21:56Z</time>
      </trkpt>
      <trkpt lat="44.36649" lon="4.22197">
        <ele>137</ele>
        <time>2014-05-30T15:21:59Z</time>
      </trkpt>
      <trkpt lat="44.36658" lon="4.22182">
        <ele>137</ele>
        <time>2014-05-30T15:22:02Z</time>
      </trkpt>
      <trkpt lat="44.36666" lon="4.22166">
        <ele>138</ele>
        <time>2014-05-30T15:22:05Z</time>
      </trkpt>
      <trkpt lat="44.36674" lon="4.2215">
        <ele>137</ele>
        <time>2014-05-30T15:22:08Z</time>
      </trkpt>
      <trkpt lat="44.36681" lon="4.22133">
        <ele>137</ele>
        <time>2014-05-30T15:22:11Z</time>
      </trkpt>
      <trkpt lat="44.36689" lon="4.22116">
        <ele>137</ele>
        <time>2014-05-30T15:22:14Z</time>
      </trkpt>
      <trkpt lat="44.36696" lon="4.22099">
        <ele>136</ele>
        <time>2014-05-30T15:22:17Z</time>
      </trkpt>
      <trkpt lat="44.36703" lon="4.22082">
        <ele>136</ele>
        <time>2014-05-30T15:22:20Z</time>
      </trkpt>
      <trkpt lat="44.36716" lon="4.22076">
        <ele>136</ele>
        <time>2014-05-30T15:22:25Z</time>
      </trkpt>
      <trkpt lat="44.36732" lon="4.22081">
        <ele>136</ele>
        <time>2014-05-30T15:22:30Z</time>
      </trkpt>
      <trkpt lat="44.36749" lon="4.22088">
        <ele>136</ele>
        <time>2014-05-30T15:22:33Z</time>
      </trkpt>
      <trkpt lat="44.36766" lon="4.22094">
        <ele>136</ele>
        <time>2014-05-30T15:22:38Z</time>
      </trkpt>
      <trkpt lat="44.36784" lon="4.22102">
        <ele>136</ele>
        <time>2014-05-30T15:22:42Z</time>
      </trkpt>
      <trkpt lat="44.36799" lon="4.22108">
        <ele>136</ele>
        <time>2014-05-30T15:22:45Z</time>
      </trkpt>
      <trkpt lat="44.36813" lon="4.22113">
        <ele>136</ele>
        <time>2014-05-30T15:22:48Z</time>
      </trkpt>
      <trkpt lat="44.36829" lon="4.22119">
        <ele>136</ele>
        <time>2014-05-30T15:22:51Z</time>
      </trkpt>
      <trkpt lat="44.36847" lon="4.22125">
        <ele>136</ele>
        <time>2014-05-30T15:22:56Z</time>
      </trkpt>
      <trkpt lat="44.36864" lon="4.22132">
        <ele>136</ele>
        <time>2014-05-30T15:23:00Z</time>
      </trkpt>
      <trkpt lat="44.36882" lon="4.22138">
        <ele>136</ele>
        <time>2014-05-30T15:23:04Z</time>
      </trkpt>
      <trkpt lat="44.36899" lon="4.22144">
        <ele>136</ele>
        <time>2014-05-30T15:23:08Z</time>
      </trkpt>
      <trkpt lat="44.36916" lon="4.22151">
        <ele>137</ele>
        <time>2014-05-30T15:23:11Z</time>
      </trkpt>
      <trkpt lat="44.36933" lon="4.22157">
        <ele>137</ele>
        <time>2014-05-30T15:23:16Z</time>
      </trkpt>
      <trkpt lat="44.3695" lon="4.22163">
        <ele>138</ele>
        <time>2014-05-30T15:23:20Z</time>
      </trkpt>
      <trkpt lat="44.36966" lon="4.22167">
        <ele>138</ele>
        <time>2014-05-30T15:23:24Z</time>
      </trkpt>
      <trkpt lat="44.36975" lon="4.22151">
        <ele>138</ele>
        <time>2014-05-30T15:23:29Z</time>
      </trkpt>
      <trkpt lat="44.36977" lon="4.22134">
        <ele>138</ele>
        <time>2014-05-30T15:23:32Z</time>
      </trkpt>
      <trkpt lat="44.36978" lon="4.22115">
        <ele>137</ele>
        <time>2014-05-30T15:23:35Z</time>
      </trkpt>
      <trkpt lat="44.36978" lon="4.22096">
        <ele>137</ele>
        <time>2014-05-30T15:23:38Z</time>
      </trkpt>
      <trkpt lat="44.36978" lon="4.22084">
        <ele>137</ele>
        <time>2014-05-30T15:23:47Z</time>
      </trkpt>
      <trkpt lat="44.36974" lon="4.22111">
        <ele>137</ele>
        <time>2014-05-30T15:23:56Z</time>
      </trkpt>
      <trkpt lat="44.36973" lon="4.22127">
        <ele>137</ele>
        <time>2014-05-30T15:24:01Z</time>
      </trkpt>
      <trkpt lat="44.36978" lon="4.22144">
        <ele>138</ele>
        <time>2014-05-30T15:24:09Z</time>
      </trkpt>
      <trkpt lat="44.36995" lon="4.22129">
        <ele>138</ele>
        <time>2014-05-30T15:24:17Z</time>
      </trkpt>
      <trkpt lat="44.37005" lon="4.22117">
        <ele>136</ele>
        <time>2014-05-30T15:24:21Z</time>
      </trkpt>
      <trkpt lat="44.37017" lon="4.22105">
        <ele>136</ele>
        <time>2014-05-30T15:24:26Z</time>
      </trkpt>
      <trkpt lat="44.3703" lon="4.22094">
        <ele>136</ele>
        <time>2014-05-30T15:24:30Z</time>
      </trkpt>
      <trkpt lat="44.37042" lon="4.22081">
        <ele>134</ele>
        <time>2014-05-30T15:24:33Z</time>
      </trkpt>
      <trkpt lat="44.37055" lon="4.22067">
        <ele>134</ele>
        <time>2014-05-30T15:24:37Z</time>
      </trkpt>
      <trkpt lat="44.37067" lon="4.22054">
        <ele>134</ele>
        <time>2014-05-30T15:24:40Z</time>
      </trkpt>
      <trkpt lat="44.37081" lon="4.2204">
        <ele>134</ele>
        <time>2014-05-30T15:24:43Z</time>
      </trkpt>
      <trkpt lat="44.37097" lon="4.22028">
        <ele>132</ele>
        <time>2014-05-30T15:24:46Z</time>
      </trkpt>
      <trkpt lat="44.37113" lon="4.22019">
        <ele>132</ele>
        <time>2014-05-30T15:24:49Z</time>
      </trkpt>
      <trkpt lat="44.37128" lon="4.22011">
        <ele>132</ele>
        <time>2014-05-30T15:24:52Z</time>
      </trkpt>
      <trkpt lat="44.37144" lon="4.22003">
        <ele>132</ele>
        <time>2014-05-30T15:24:55Z</time>
      </trkpt>
      <trkpt lat="44.37163" lon="4.21994">
        <ele>131</ele>
        <time>2014-05-30T15:24:59Z</time>
      </trkpt>
      <trkpt lat="44.37177" lon="4.21987">
        <ele>131</ele>
        <time>2014-05-30T15:25:02Z</time>
      </trkpt>
      <trkpt lat="44.37191" lon="4.21981">
        <ele>131</ele>
        <time>2014-05-30T15:25:05Z</time>
      </trkpt>
      <trkpt lat="44.37206" lon="4.21975">
        <ele>131</ele>
        <time>2014-05-30T15:25:09Z</time>
      </trkpt>
      <trkpt lat="44.37221" lon="4.21967">
        <ele>131</ele>
        <time>2014-05-30T15:25:12Z</time>
      </trkpt>
      <trkpt lat="44.37236" lon="4.2196">
        <ele>130</ele>
        <time>2014-05-30T15:25:16Z</time>
      </trkpt>
      <trkpt lat="44.37255" lon="4.21952">
        <ele>130</ele>
        <time>2014-05-30T15:25:20Z</time>
      </trkpt>
      <trkpt lat="44.37269" lon="4.21946">
        <ele>130</ele>
        <time>2014-05-30T15:25:23Z</time>
      </trkpt>
      <trkpt lat="44.37284" lon="4.21939">
        <ele>130</ele>
        <time>2014-05-30T15:25:27Z</time>
      </trkpt>
      <trkpt lat="44.37301" lon="4.21931">
        <ele>131</ele>
        <time>2014-05-30T15:25:30Z</time>
      </trkpt>
      <trkpt lat="44.37318" lon="4.21924">
        <ele>131</ele>
        <time>2014-05-30T15:25:35Z</time>
      </trkpt>
      <trkpt lat="44.37335" lon="4.21916">
        <ele>132</ele>
        <time>2014-05-30T15:25:39Z</time>
      </trkpt>
      <trkpt lat="44.37352" lon="4.2191">
        <ele>131</ele>
        <time>2014-05-30T15:25:43Z</time>
      </trkpt>
      <trkpt lat="44.37369" lon="4.21906">
        <ele>130</ele>
        <time>2014-05-30T15:25:46Z</time>
      </trkpt>
      <trkpt lat="44.37385" lon="4.21902">
        <ele>130</ele>
        <time>2014-05-30T15:25:49Z</time>
      </trkpt>
      <trkpt lat="44.37403" lon="4.21898">
        <ele>130</ele>
        <time>2014-05-30T15:25:53Z</time>
      </trkpt>
      <trkpt lat="44.3742" lon="4.21895">
        <ele>129</ele>
        <time>2014-05-30T15:25:57Z</time>
      </trkpt>
      <trkpt lat="44.37436" lon="4.21891">
        <ele>129</ele>
        <time>2014-05-30T15:26:01Z</time>
      </trkpt>
      <trkpt lat="44.37454" lon="4.21887">
        <ele>128</ele>
        <time>2014-05-30T15:26:05Z</time>
      </trkpt>
      <trkpt lat="44.37472" lon="4.21883">
        <ele>128</ele>
        <time>2014-05-30T15:26:08Z</time>
      </trkpt>
      <trkpt lat="44.37489" lon="4.2188">
        <ele>128</ele>
        <time>2014-05-30T15:26:13Z</time>
      </trkpt>
      <trkpt lat="44.37505" lon="4.21878">
        <ele>128</ele>
        <time>2014-05-30T15:26:16Z</time>
      </trkpt>
      <trkpt lat="44.37521" lon="4.21875">
        <ele>128</ele>
        <time>2014-05-30T15:26:21Z</time>
      </trkpt>
      <trkpt lat="44.37538" lon="4.21872">
        <ele>128</ele>
        <time>2014-05-30T15:26:24Z</time>
      </trkpt>
      <trkpt lat="44.37554" lon="4.21869">
        <ele>128</ele>
        <time>2014-05-30T15:26:28Z</time>
      </trkpt>
      <trkpt lat="44.37568" lon="4.21871">
        <ele>128</ele>
        <time>2014-05-30T15:26:32Z</time>
      </trkpt>
      <trkpt lat="44.37582" lon="4.21874">
        <ele>128</ele>
        <time>2014-05-30T15:26:35Z</time>
      </trkpt>
      <trkpt lat="44.37592" lon="4.21859">
        <ele>127</ele>
        <time>2014-05-30T15:26:39Z</time>
      </trkpt>
      <trkpt lat="44.37594" lon="4.21839">
        <ele>127</ele>
        <time>2014-05-30T15:26:42Z</time>
      </trkpt>
      <trkpt lat="44.37592" lon="4.21819">
        <ele>126</ele>
        <time>2014-05-30T15:26:45Z</time>
      </trkpt>
      <trkpt lat="44.37588" lon="4.21799">
        <ele>126</ele>
        <time>2014-05-30T15:26:48Z</time>
      </trkpt>
      <trkpt lat="44.37586" lon="4.21781">
        <ele>126</ele>
        <time>2014-05-30T15:26:51Z</time>
      </trkpt>
      <trkpt lat="44.37584" lon="4.21767">
        <ele>125</ele>
        <time>2014-05-30T15:26:53Z</time>
      </trkpt>
      <trkpt lat="44.37581" lon="4.21751">
        <ele>125</ele>
        <time>2014-05-30T15:26:54Z</time>
      </trkpt>
      <trkpt lat="44.37579" lon="4.21737">
        <ele>125</ele>
        <time>2014-05-30T15:26:57Z</time>
      </trkpt>
      <trkpt lat="44.37576" lon="4.21721">
        <ele>125</ele>
        <time>2014-05-30T15:26:59Z</time>
      </trkpt>
      <trkpt lat="44.37573" lon="4.21704">
        <ele>125</ele>
        <time>2014-05-30T15:27:00Z</time>
      </trkpt>
      <trkpt lat="44.3757" lon="4.21686">
        <ele>124</ele>
        <time>2014-05-30T15:27:03Z</time>
      </trkpt>
      <trkpt lat="44.37566" lon="4.21668">
        <ele>124</ele>
        <time>2014-05-30T15:27:05Z</time>
      </trkpt>
      <trkpt lat="44.37562" lon="4.21652">
        <ele>124</ele>
        <time>2014-05-30T15:27:06Z</time>
      </trkpt>
      <trkpt lat="44.37559" lon="4.21636">
        <ele>124</ele>
        <time>2014-05-30T15:27:08Z</time>
      </trkpt>
      <trkpt lat="44.37555" lon="4.21618">
        <ele>124</ele>
        <time>2014-05-30T15:27:11Z</time>
      </trkpt>
      <trkpt lat="44.3755" lon="4.21597">
        <ele>124</ele>
        <time>2014-05-30T15:27:14Z</time>
      </trkpt>
      <trkpt lat="44.37546" lon="4.21579">
        <ele>123</ele>
        <time>2014-05-30T15:27:17Z</time>
      </trkpt>
      <trkpt lat="44.37543" lon="4.21565">
        <ele>123</ele>
        <time>2014-05-30T15:27:18Z</time>
      </trkpt>
      <trkpt lat="44.37538" lon="4.21547">
        <ele>122</ele>
        <time>2014-05-30T15:27:21Z</time>
      </trkpt>
      <trkpt lat="44.37532" lon="4.2153">
        <ele>122</ele>
        <time>2014-05-30T15:27:24Z</time>
      </trkpt>
      <trkpt lat="44.37527" lon="4.21516">
        <ele>122</ele>
        <time>2014-05-30T15:27:25Z</time>
      </trkpt>
      <trkpt lat="44.37523" lon="4.21502">
        <ele>122</ele>
        <time>2014-05-30T15:27:27Z</time>
      </trkpt>
      <trkpt lat="44.37518" lon="4.21487">
        <ele>122</ele>
        <time>2014-05-30T15:27:30Z</time>
      </trkpt>
      <trkpt lat="44.37513" lon="4.21472">
        <ele>122</ele>
        <time>2014-05-30T15:27:31Z</time>
      </trkpt>
      <trkpt lat="44.37509" lon="4.21457">
        <ele>122</ele>
        <time>2014-05-30T15:27:33Z</time>
      </trkpt>
      <trkpt lat="44.37504" lon="4.21442">
        <ele>122</ele>
        <time>2014-05-30T15:27:36Z</time>
      </trkpt>
      <trkpt lat="44.375" lon="4.21428">
        <ele>123</ele>
        <time>2014-05-30T15:27:38Z</time>
      </trkpt>
      <trkpt lat="44.37495" lon="4.21413">
        <ele>123</ele>
        <time>2014-05-30T15:27:39Z</time>
      </trkpt>
      <trkpt lat="44.37491" lon="4.21398">
        <ele>123</ele>
        <time>2014-05-30T15:27:42Z</time>
      </trkpt>
      <trkpt lat="44.37487" lon="4.21382">
        <ele>123</ele>
        <time>2014-05-30T15:27:44Z</time>
      </trkpt>
      <trkpt lat="44.37482" lon="4.21367">
        <ele>123</ele>
        <time>2014-05-30T15:27:45Z</time>
      </trkpt>
      <trkpt lat="44.37477" lon="4.21351">
        <ele>123</ele>
        <time>2014-05-30T15:27:48Z</time>
      </trkpt>
      <trkpt lat="44.37473" lon="4.21335">
        <ele>123</ele>
        <time>2014-05-30T15:27:50Z</time>
      </trkpt>
      <trkpt lat="44.37468" lon="4.21318">
        <ele>122</ele>
        <time>2014-05-30T15:27:51Z</time>
      </trkpt>
      <trkpt lat="44.37463" lon="4.21302">
        <ele>122</ele>
        <time>2014-05-30T15:27:54Z</time>
      </trkpt>
      <trkpt lat="44.37458" lon="4.21285">
        <ele>122</ele>
        <time>2014-05-30T15:27:56Z</time>
      </trkpt>
      <trkpt lat="44.37453" lon="4.21268">
        <ele>122</ele>
        <time>2014-05-30T15:27:57Z</time>
      </trkpt>
      <trkpt lat="44.37449" lon="4.21252">
        <ele>122</ele>
        <time>2014-05-30T15:27:59Z</time>
      </trkpt>
      <trkpt lat="44.37444" lon="4.21235">
        <ele>122</ele>
        <time>2014-05-30T15:28:02Z</time>
      </trkpt>
      <trkpt lat="44.37439" lon="4.21219">
        <ele>122</ele>
        <time>2014-05-30T15:28:03Z</time>
      </trkpt>
      <trkpt lat="44.37434" lon="4.21203">
        <ele>122</ele>
        <time>2014-05-30T15:28:05Z</time>
      </trkpt>
      <trkpt lat="44.3743" lon="4.21187">
        <ele>122</ele>
        <time>2014-05-30T15:28:08Z</time>
      </trkpt>
      <trkpt lat="44.37425" lon="4.21171">
        <ele>122</ele>
        <time>2014-05-30T15:28:09Z</time>
      </trkpt>
      <trkpt lat="44.37421" lon="4.21156">
        <ele>122</ele>
        <time>2014-05-30T15:28:11Z</time>
      </trkpt>
      <trkpt lat="44.37416" lon="4.21142">
        <ele>122</ele>
        <time>2014-05-30T15:28:14Z</time>
      </trkpt>
      <trkpt lat="44.37411" lon="4.21127">
        <ele>123</ele>
        <time>2014-05-30T15:28:16Z</time>
      </trkpt>
      <trkpt lat="44.37405" lon="4.21112">
        <ele>123</ele>
        <time>2014-05-30T15:28:17Z</time>
      </trkpt>
      <trkpt lat="44.37397" lon="4.21099">
        <ele>123</ele>
        <time>2014-05-30T15:28:20Z</time>
      </trkpt>
      <trkpt lat="44.3739" lon="4.21085">
        <ele>123</ele>
        <time>2014-05-30T15:28:22Z</time>
      </trkpt>
      <trkpt lat="44.37387" lon="4.21069">
        <ele>123</ele>
        <time>2014-05-30T15:28:23Z</time>
      </trkpt>
      <trkpt lat="44.37383" lon="4.21054">
        <ele>123</ele>
        <time>2014-05-30T15:28:26Z</time>
      </trkpt>
      <trkpt lat="44.37379" lon="4.21039">
        <ele>123</ele>
        <time>2014-05-30T15:28:28Z</time>
      </trkpt>
      <trkpt lat="44.37374" lon="4.21025">
        <ele>123</ele>
        <time>2014-05-30T15:28:29Z</time>
      </trkpt>
      <trkpt lat="44.37369" lon="4.2101">
        <ele>123</ele>
        <time>2014-05-30T15:28:32Z</time>
      </trkpt>
      <trkpt lat="44.37365" lon="4.20994">
        <ele>123</ele>
        <time>2014-05-30T15:28:34Z</time>
      </trkpt>
      <trkpt lat="44.37359" lon="4.20979">
        <ele>123</ele>
        <time>2014-05-30T15:28:35Z</time>
      </trkpt>
      <trkpt lat="44.37355" lon="4.20962">
        <ele>123</ele>
        <time>2014-05-30T15:28:37Z</time>
      </trkpt>
      <trkpt lat="44.37351" lon="4.20947">
        <ele>123</ele>
        <time>2014-05-30T15:28:40Z</time>
      </trkpt>
      <trkpt lat="44.37347" lon="4.2093">
        <ele>123</ele>
        <time>2014-05-30T15:28:41Z</time>
      </trkpt>
      <trkpt lat="44.37343" lon="4.20913">
        <ele>123</ele>
        <time>2014-05-30T15:28:43Z</time>
      </trkpt>
      <trkpt lat="44.3734" lon="4.20896">
        <ele>123</ele>
        <time>2014-05-30T15:28:46Z</time>
      </trkpt>
      <trkpt lat="44.37337" lon="4.20878">
        <ele>123</ele>
        <time>2014-05-30T15:28:48Z</time>
      </trkpt>
      <trkpt lat="44.37334" lon="4.20861">
        <ele>123</ele>
        <time>2014-05-30T15:28:49Z</time>
      </trkpt>
      <trkpt lat="44.37331" lon="4.20845">
        <ele>123</ele>
        <time>2014-05-30T15:28:52Z</time>
      </trkpt>
      <trkpt lat="44.37328" lon="4.20829">
        <ele>123</ele>
        <time>2014-05-30T15:28:54Z</time>
      </trkpt>
      <trkpt lat="44.37324" lon="4.20813">
        <ele>124</ele>
        <time>2014-05-30T15:28:55Z</time>
      </trkpt>
      <trkpt lat="44.37321" lon="4.20796">
        <ele>124</ele>
        <time>2014-05-30T15:28:58Z</time>
      </trkpt>
      <trkpt lat="44.37318" lon="4.20779">
        <ele>124</ele>
        <time>2014-05-30T15:29:00Z</time>
      </trkpt>
      <trkpt lat="44.37315" lon="4.20762">
        <ele>124</ele>
        <time>2014-05-30T15:29:01Z</time>
      </trkpt>
      <trkpt lat="44.37312" lon="4.20745">
        <ele>126</ele>
        <time>2014-05-30T15:29:04Z</time>
      </trkpt>
      <trkpt lat="44.37309" lon="4.20727">
        <ele>126</ele>
        <time>2014-05-30T15:29:06Z</time>
      </trkpt>
      <trkpt lat="44.37305" lon="4.2071">
        <ele>126</ele>
        <time>2014-05-30T15:29:07Z</time>
      </trkpt>
      <trkpt lat="44.37302" lon="4.20692">
        <ele>126</ele>
        <time>2014-05-30T15:29:09Z</time>
      </trkpt>
      <trkpt lat="44.373" lon="4.20675">
        <ele>127</ele>
        <time>2014-05-30T15:29:12Z</time>
      </trkpt>
      <trkpt lat="44.37299" lon="4.20658">
        <ele>127</ele>
        <time>2014-05-30T15:29:13Z</time>
      </trkpt>
      <trkpt lat="44.37296" lon="4.20643">
        <ele>127</ele>
        <time>2014-05-30T15:29:15Z</time>
      </trkpt>
      <trkpt lat="44.37293" lon="4.20626">
        <ele>127</ele>
        <time>2014-05-30T15:29:18Z</time>
      </trkpt>
      <trkpt lat="44.37296" lon="4.20604">
        <ele>127</ele>
        <time>2014-05-30T15:29:20Z</time>
      </trkpt>
      <trkpt lat="44.37298" lon="4.20588">
        <ele>126</ele>
        <time>2014-05-30T15:29:23Z</time>
      </trkpt>
      <trkpt lat="44.373" lon="4.20573">
        <ele>125</ele>
        <time>2014-05-30T15:29:25Z</time>
      </trkpt>
      <trkpt lat="44.37302" lon="4.20558">
        <ele>125</ele>
        <time>2014-05-30T15:29:26Z</time>
      </trkpt>
      <trkpt lat="44.37304" lon="4.20544">
        <ele>125</ele>
        <time>2014-05-30T15:29:28Z</time>
      </trkpt>
      <trkpt lat="44.37305" lon="4.20529">
        <ele>125</ele>
        <time>2014-05-30T15:29:31Z</time>
      </trkpt>
      <trkpt lat="44.37307" lon="4.20515">
        <ele>125</ele>
        <time>2014-05-30T15:29:32Z</time>
      </trkpt>
      <trkpt lat="44.37309" lon="4.20499">
        <ele>124</ele>
        <time>2014-05-30T15:29:34Z</time>
      </trkpt>
      <trkpt lat="44.3731" lon="4.20484">
        <ele>124</ele>
        <time>2014-05-30T15:29:37Z</time>
      </trkpt>
      <trkpt lat="44.37312" lon="4.20467">
        <ele>124</ele>
        <time>2014-05-30T15:29:39Z</time>
      </trkpt>
      <trkpt lat="44.37313" lon="4.20452">
        <ele>124</ele>
        <time>2014-05-30T15:29:40Z</time>
      </trkpt>
      <trkpt lat="44.37314" lon="4.20436">
        <ele>124</ele>
        <time>2014-05-30T15:29:43Z</time>
      </trkpt>
      <trkpt lat="44.37315" lon="4.2042">
        <ele>124</ele>
        <time>2014-05-30T15:29:45Z</time>
      </trkpt>
      <trkpt lat="44.37314" lon="4.20405">
        <ele>125</ele>
        <time>2014-05-30T15:29:46Z</time>
      </trkpt>
      <trkpt lat="44.37316" lon="4.20389">
        <ele>125</ele>
        <time>2014-05-30T15:29:49Z</time>
      </trkpt>
      <trkpt lat="44.37317" lon="4.20371">
        <ele>125</ele>
        <time>2014-05-30T15:29:51Z</time>
      </trkpt>
      <trkpt lat="44.37319" lon="4.20352">
        <ele>126</ele>
        <time>2014-05-30T15:29:53Z</time>
      </trkpt>
      <trkpt lat="44.37325" lon="4.20334">
        <ele>126</ele>
        <time>2014-05-30T15:29:56Z</time>
      </trkpt>
      <trkpt lat="44.37331" lon="4.20317">
        <ele>127</ele>
        <time>2014-05-30T15:29:59Z</time>
      </trkpt>
      <trkpt lat="44.37339" lon="4.20301">
        <ele>127</ele>
        <time>2014-05-30T15:30:02Z</time>
      </trkpt>
      <trkpt lat="44.37347" lon="4.20287">
        <ele>127</ele>
        <time>2014-05-30T15:30:05Z</time>
      </trkpt>
      <trkpt lat="44.37354" lon="4.20272">
        <ele>127</ele>
        <time>2014-05-30T15:30:08Z</time>
      </trkpt>
      <trkpt lat="44.37362" lon="4.20257">
        <ele>127</ele>
        <time>2014-05-30T15:30:11Z</time>
      </trkpt>
      <trkpt lat="44.37371" lon="4.20242">
        <ele>128</ele>
        <time>2014-05-30T15:30:14Z</time>
      </trkpt>
      <trkpt lat="44.37377" lon="4.20226">
        <ele>128</ele>
        <time>2014-05-30T15:30:17Z</time>
      </trkpt>
      <trkpt lat="44.37385" lon="4.20212">
        <ele>128</ele>
        <time>2014-05-30T15:30:20Z</time>
      </trkpt>
      <trkpt lat="44.37406" lon="4.20199">
        <ele>128</ele>
        <time>2014-05-30T15:30:23Z</time>
      </trkpt>
      <trkpt lat="44.37418" lon="4.20187">
        <ele>129</ele>
        <time>2014-05-30T15:30:26Z</time>
      </trkpt>
      <trkpt lat="44.37427" lon="4.2017">
        <ele>129</ele>
        <time>2014-05-30T15:30:29Z</time>
      </trkpt>
      <trkpt lat="44.37439" lon="4.20167">
        <ele>129</ele>
        <time>2014-05-30T15:30:38Z</time>
      </trkpt>
      <trkpt lat="44.37447" lon="4.20182">
        <ele>128</ele>
        <time>2014-05-30T15:30:46Z</time>
      </trkpt>
      <trkpt lat="44.37522" lon="4.20159">
        <ele>130</ele>
        <time>2014-05-30T15:39:38Z</time>
      </trkpt>
      <trkpt lat="44.37541" lon="4.20158">
        <ele>131</ele>
        <time>2014-05-30T15:39:43Z</time>
      </trkpt>
      <trkpt lat="44.37561" lon="4.20162">
        <ele>131</ele>
        <time>2014-05-30T15:39:46Z</time>
      </trkpt>
      <trkpt lat="44.37533" lon="4.20127">
        <ele>131</ele>
        <time>2014-05-30T15:39:53Z</time>
      </trkpt>
      <trkpt lat="44.37508" lon="4.20121">
        <ele>131</ele>
        <time>2014-05-30T15:39:59Z</time>
      </trkpt>
      <trkpt lat="44.37491" lon="4.20127">
        <ele>130</ele>
        <time>2014-05-30T15:40:04Z</time>
      </trkpt>
      <trkpt lat="44.37475" lon="4.2014">
        <ele>130</ele>
        <time>2014-05-30T15:40:07Z</time>
      </trkpt>
      <trkpt lat="44.37538" lon="4.20176">
        <ele>130</ele>
        <time>2014-05-30T15:40:10Z</time>
      </trkpt>
      <trkpt lat="44.37526" lon="4.20178">
        <ele>130</ele>
        <time>2014-05-30T15:40:28Z</time>
      </trkpt>
      <trkpt lat="44.37511" lon="4.20179">
        <ele>130</ele>
        <time>2014-05-30T15:40:34Z</time>
      </trkpt>
      <trkpt lat="44.37505" lon="4.20181">
        <ele>130</ele>
        <time>2014-05-30T15:40:55Z</time>
      </trkpt>
      <trkpt lat="44.37521" lon="4.20186">
        <ele>130</ele>
        <time>2014-05-30T15:41:30Z</time>
      </trkpt>
      <trkpt lat="44.37497" lon="4.20188">
        <ele>129</ele>
        <time>2014-05-30T15:41:52Z</time>
      </trkpt>
      <trkpt lat="44.37482" lon="4.20187">
        <ele>129</ele>
        <time>2014-05-30T15:42:02Z</time>
      </trkpt>
      <trkpt lat="44.37472" lon="4.2018">
        <ele>129</ele>
        <time>2014-05-30T15:42:16Z</time>
      </trkpt>
      <trkpt lat="44.37456" lon="4.20184">
        <ele>128</ele>
        <time>2014-05-30T15:45:16Z</time>
      </trkpt>
      <trkpt lat="44.37476" lon="4.20147">
        <ele>130</ele>
        <time>2014-05-30T15:49:31Z</time>
      </trkpt>
      <trkpt lat="44.37465" lon="4.20031">
        <ele>132</ele>
        <time>2014-05-30T15:49:36Z</time>
      </trkpt>
      <trkpt lat="44.37478" lon="4.20029">
        <ele>132</ele>
        <time>2014-05-30T15:49:42Z</time>
      </trkpt>
      <trkpt lat="44.37484" lon="4.19994">
        <ele>133</ele>
        <time>2014-05-30T15:49:48Z</time>
      </trkpt>
      <trkpt lat="44.37482" lon="4.19971">
        <ele>133</ele>
        <time>2014-05-30T15:49:54Z</time>
      </trkpt>
      <trkpt lat="44.37475" lon="4.19971">
        <ele>132</ele>
        <time>2014-05-30T15:50:00Z</time>
      </trkpt>
      <trkpt lat="44.37485" lon="4.19949">
        <ele>133</ele>
        <time>2014-05-30T15:50:07Z</time>
      </trkpt>
      <trkpt lat="44.37477" lon="4.19935">
        <ele>133</ele>
        <time>2014-05-30T15:50:13Z</time>
      </trkpt>
      <trkpt lat="44.37477" lon="4.1992">
        <ele>133</ele>
        <time>2014-05-30T15:50:18Z</time>
      </trkpt>
      <trkpt lat="44.37479" lon="4.19904">
        <ele>132</ele>
        <time>2014-05-30T15:50:23Z</time>
      </trkpt>
      <trkpt lat="44.37486" lon="4.1989">
        <ele>132</ele>
        <time>2014-05-30T15:50:28Z</time>
      </trkpt>
      <trkpt lat="44.37489" lon="4.19873">
        <ele>132</ele>
        <time>2014-05-30T15:50:32Z</time>
      </trkpt>
      <trkpt lat="44.37489" lon="4.19856">
        <ele>132</ele>
        <time>2014-05-30T15:50:35Z</time>
      </trkpt>
      <trkpt lat="44.37487" lon="4.19839">
        <ele>132</ele>
        <time>2014-05-30T15:50:40Z</time>
      </trkpt>
      <trkpt lat="44.37487" lon="4.19824">
        <ele>132</ele>
        <time>2014-05-30T15:50:45Z</time>
      </trkpt>
      <trkpt lat="44.37485" lon="4.19808">
        <ele>131</ele>
        <time>2014-05-30T15:50:50Z</time>
      </trkpt>
      <trkpt lat="44.37487" lon="4.19795">
        <ele>131</ele>
        <time>2014-05-30T15:50:55Z</time>
      </trkpt>
      <trkpt lat="44.37489" lon="4.19776">
        <ele>131</ele>
        <time>2014-05-30T15:51:00Z</time>
      </trkpt>
      <trkpt lat="44.3749" lon="4.19764">
        <ele>131</ele>
        <time>2014-05-30T15:51:04Z</time>
      </trkpt>
      <trkpt lat="44.37494" lon="4.19822">
        <ele>132</ele>
        <time>2014-05-30T15:51:53Z</time>
      </trkpt>
      <trkpt lat="44.37498" lon="4.19838">
        <ele>133</ele>
        <time>2014-05-30T15:51:57Z</time>
      </trkpt>
      <trkpt lat="44.375" lon="4.19855">
        <ele>132</ele>
        <time>2014-05-30T15:52:01Z</time>
      </trkpt>
      <trkpt lat="44.37509" lon="4.19868">
        <ele>132</ele>
        <time>2014-05-30T15:52:05Z</time>
      </trkpt>
      <trkpt lat="44.37523" lon="4.1987">
        <ele>132</ele>
        <time>2014-05-30T15:52:09Z</time>
      </trkpt>
      <trkpt lat="44.37539" lon="4.19861">
        <ele>131</ele>
        <time>2014-05-30T15:52:14Z</time>
      </trkpt>
      <trkpt lat="44.37554" lon="4.19852">
        <ele>131</ele>
        <time>2014-05-30T15:52:18Z</time>
      </trkpt>
      <trkpt lat="44.37571" lon="4.19846">
        <ele>131</ele>
        <time>2014-05-30T15:52:21Z</time>
      </trkpt>
      <trkpt lat="44.37587" lon="4.19843">
        <ele>130</ele>
        <time>2014-05-30T15:52:26Z</time>
      </trkpt>
      <trkpt lat="44.37603" lon="4.19838">
        <ele>130</ele>
        <time>2014-05-30T15:52:29Z</time>
      </trkpt>
      <trkpt lat="44.37619" lon="4.19832">
        <ele>131</ele>
        <time>2014-05-30T15:52:33Z</time>
      </trkpt>
      <trkpt lat="44.37633" lon="4.19825">
        <ele>131</ele>
        <time>2014-05-30T15:52:38Z</time>
      </trkpt>
      <trkpt lat="44.37645" lon="4.19818">
        <ele>131</ele>
        <time>2014-05-30T15:52:41Z</time>
      </trkpt>
      <trkpt lat="44.37658" lon="4.19806">
        <ele>131</ele>
        <time>2014-05-30T15:52:46Z</time>
      </trkpt>
      <trkpt lat="44.37669" lon="4.19793">
        <ele>131</ele>
        <time>2014-05-30T15:52:49Z</time>
      </trkpt>
      <trkpt lat="44.37678" lon="4.19782">
        <ele>132</ele>
        <time>2014-05-30T15:52:52Z</time>
      </trkpt>
      <trkpt lat="44.37687" lon="4.1977">
        <ele>132</ele>
        <time>2014-05-30T15:52:55Z</time>
      </trkpt>
      <trkpt lat="44.37695" lon="4.19757">
        <ele>132</ele>
        <time>2014-05-30T15:52:58Z</time>
      </trkpt>
      <trkpt lat="44.37703" lon="4.19745">
        <ele>132</ele>
        <time>2014-05-30T15:53:00Z</time>
      </trkpt>
      <trkpt lat="44.37713" lon="4.19731">
        <ele>132</ele>
        <time>2014-05-30T15:53:04Z</time>
      </trkpt>
      <trkpt lat="44.37724" lon="4.19715">
        <ele>132</ele>
        <time>2014-05-30T15:53:07Z</time>
      </trkpt>
      <trkpt lat="44.37732" lon="4.19704">
        <ele>132</ele>
        <time>2014-05-30T15:53:11Z</time>
      </trkpt>
      <trkpt lat="44.37742" lon="4.19689">
        <ele>132</ele>
        <time>2014-05-30T15:53:15Z</time>
      </trkpt>
      <trkpt lat="44.37751" lon="4.19674">
        <ele>132</ele>
        <time>2014-05-30T15:53:19Z</time>
      </trkpt>
      <trkpt lat="44.37761" lon="4.19659">
        <ele>132</ele>
        <time>2014-05-30T15:53:23Z</time>
      </trkpt>
      <trkpt lat="44.37771" lon="4.19646">
        <ele>133</ele>
        <time>2014-05-30T15:53:26Z</time>
      </trkpt>
      <trkpt lat="44.37782" lon="4.19634">
        <ele>133</ele>
        <time>2014-05-30T15:53:31Z</time>
      </trkpt>
      <trkpt lat="44.37792" lon="4.19621">
        <ele>133</ele>
        <time>2014-05-30T15:53:35Z</time>
      </trkpt>
      <trkpt lat="44.37802" lon="4.19609">
        <ele>133</ele>
        <time>2014-05-30T15:53:39Z</time>
      </trkpt>
      <trkpt lat="44.37812" lon="4.19598">
        <ele>134</ele>
        <time>2014-05-30T15:53:44Z</time>
      </trkpt>
      <trkpt lat="44.37823" lon="4.19586">
        <ele>134</ele>
        <time>2014-05-30T15:53:48Z</time>
      </trkpt>
      <trkpt lat="44.37835" lon="4.19574">
        <ele>136</ele>
        <time>2014-05-30T15:53:53Z</time>
      </trkpt>
      <trkpt lat="44.37844" lon="4.19562">
        <ele>136</ele>
        <time>2014-05-30T15:53:58Z</time>
      </trkpt>
      <trkpt lat="44.37855" lon="4.1955">
        <ele>137</ele>
        <time>2014-05-30T15:54:03Z</time>
      </trkpt>
      <trkpt lat="44.37866" lon="4.1954">
        <ele>137</ele>
        <time>2014-05-30T15:54:10Z</time>
      </trkpt>
      <trkpt lat="44.37879" lon="4.19532">
        <ele>137</ele>
        <time>2014-05-30T15:54:18Z</time>
      </trkpt>
      <trkpt lat="44.3789" lon="4.19523">
        <ele>137</ele>
        <time>2014-05-30T15:54:25Z</time>
      </trkpt>
      <trkpt lat="44.379" lon="4.1951">
        <ele>138</ele>
        <time>2014-05-30T15:54:32Z</time>
      </trkpt>
      <trkpt lat="44.37906" lon="4.19494">
        <ele>138</ele>
        <time>2014-05-30T15:54:38Z</time>
      </trkpt>
      <trkpt lat="44.37914" lon="4.19481">
        <ele>138</ele>
        <time>2014-05-30T15:54:43Z</time>
      </trkpt>
      <trkpt lat="44.37922" lon="4.19468">
        <ele>140</ele>
        <time>2014-05-30T15:54:48Z</time>
      </trkpt>
      <trkpt lat="44.37932" lon="4.19455">
        <ele>140</ele>
        <time>2014-05-30T15:54:53Z</time>
      </trkpt>
      <trkpt lat="44.37941" lon="4.19443">
        <ele>140</ele>
        <time>2014-05-30T15:55:00Z</time>
      </trkpt>
      <trkpt lat="44.37953" lon="4.19431">
        <ele>140</ele>
        <time>2014-05-30T15:55:07Z</time>
      </trkpt>
      <trkpt lat="44.37966" lon="4.1942">
        <ele>141</ele>
        <time>2014-05-30T15:55:21Z</time>
      </trkpt>
      <trkpt lat="44.37963" lon="4.19409">
        <ele>141</ele>
        <time>2014-05-30T15:55:33Z</time>
      </trkpt>
      <trkpt lat="44.37959" lon="4.19392">
        <ele>141</ele>
        <time>2014-05-30T15:55:39Z</time>
      </trkpt>
      <trkpt lat="44.37953" lon="4.19378">
        <ele>142</ele>
        <time>2014-05-30T15:55:45Z</time>
      </trkpt>
      <trkpt lat="44.37947" lon="4.19363">
        <ele>142</ele>
        <time>2014-05-30T15:55:51Z</time>
      </trkpt>
      <trkpt lat="44.3794" lon="4.19349">
        <ele>142</ele>
        <time>2014-05-30T15:55:55Z</time>
      </trkpt>
      <trkpt lat="44.37936" lon="4.19335">
        <ele>142</ele>
        <time>2014-05-30T15:55:59Z</time>
      </trkpt>
      <trkpt lat="44.37933" lon="4.1932">
        <ele>143</ele>
        <time>2014-05-30T15:56:02Z</time>
      </trkpt>
      <trkpt lat="44.37934" lon="4.19299">
        <ele>143</ele>
        <time>2014-05-30T15:56:06Z</time>
      </trkpt>
      <trkpt lat="44.37935" lon="4.19282">
        <ele>143</ele>
        <time>2014-05-30T15:56:09Z</time>
      </trkpt>
      <trkpt lat="44.37936" lon="4.19266">
        <ele>143</ele>
        <time>2014-05-30T15:56:12Z</time>
      </trkpt>
      <trkpt lat="44.37934" lon="4.19251">
        <ele>143</ele>
        <time>2014-05-30T15:56:15Z</time>
      </trkpt>
      <trkpt lat="44.37929" lon="4.19233">
        <ele>143</ele>
        <time>2014-05-30T15:56:20Z</time>
      </trkpt>
      <trkpt lat="44.37926" lon="4.19217">
        <ele>143</ele>
        <time>2014-05-30T15:56:23Z</time>
      </trkpt>
      <trkpt lat="44.37925" lon="4.19201">
        <ele>143</ele>
        <time>2014-05-30T15:56:26Z</time>
      </trkpt>
      <trkpt lat="44.37925" lon="4.19184">
        <ele>143</ele>
        <time>2014-05-30T15:56:29Z</time>
      </trkpt>
      <trkpt lat="44.37925" lon="4.19165">
        <ele>142</ele>
        <time>2014-05-30T15:56:32Z</time>
      </trkpt>
      <trkpt lat="44.37926" lon="4.19149">
        <ele>143</ele>
        <time>2014-05-30T15:56:35Z</time>
      </trkpt>
      <trkpt lat="44.37932" lon="4.19131">
        <ele>143</ele>
        <time>2014-05-30T15:56:39Z</time>
      </trkpt>
      <trkpt lat="44.37933" lon="4.19113">
        <ele>143</ele>
        <time>2014-05-30T15:56:42Z</time>
      </trkpt>
      <trkpt lat="44.37933" lon="4.19098">
        <ele>142</ele>
        <time>2014-05-30T15:56:46Z</time>
      </trkpt>
      <trkpt lat="44.37933" lon="4.1908">
        <ele>142</ele>
        <time>2014-05-30T15:56:50Z</time>
      </trkpt>
      <trkpt lat="44.37932" lon="4.19062">
        <ele>143</ele>
        <time>2014-05-30T15:56:55Z</time>
      </trkpt>
      <trkpt lat="44.3793" lon="4.19044">
        <ele>143</ele>
        <time>2014-05-30T15:56:59Z</time>
      </trkpt>
      <trkpt lat="44.37932" lon="4.19026">
        <ele>144</ele>
        <time>2014-05-30T15:57:02Z</time>
      </trkpt>
      <trkpt lat="44.3793" lon="4.19011">
        <ele>144</ele>
        <time>2014-05-30T15:57:07Z</time>
      </trkpt>
      <trkpt lat="44.37929" lon="4.18992">
        <ele>145</ele>
        <time>2014-05-30T15:57:12Z</time>
      </trkpt>
      <trkpt lat="44.37933" lon="4.18975">
        <ele>145</ele>
        <time>2014-05-30T15:57:17Z</time>
      </trkpt>
      <trkpt lat="44.37935" lon="4.18962">
        <ele>146</ele>
        <time>2014-05-30T15:57:21Z</time>
      </trkpt>
      <trkpt lat="44.37934" lon="4.18945">
        <ele>146</ele>
        <time>2014-05-30T15:57:26Z</time>
      </trkpt>
      <trkpt lat="44.37931" lon="4.1893">
        <ele>146</ele>
        <time>2014-05-30T15:57:30Z</time>
      </trkpt>
      <trkpt lat="44.37927" lon="4.18914">
        <ele>146</ele>
        <time>2014-05-30T15:57:34Z</time>
      </trkpt>
      <trkpt lat="44.37921" lon="4.18896">
        <ele>146</ele>
        <time>2014-05-30T15:57:39Z</time>
      </trkpt>
      <trkpt lat="44.37915" lon="4.1888">
        <ele>144</ele>
        <time>2014-05-30T15:57:43Z</time>
      </trkpt>
      <trkpt lat="44.37907" lon="4.18863">
        <ele>144</ele>
        <time>2014-05-30T15:57:46Z</time>
      </trkpt>
      <trkpt lat="44.37899" lon="4.18847">
        <ele>144</ele>
        <time>2014-05-30T15:57:49Z</time>
      </trkpt>
      <trkpt lat="44.37888" lon="4.18834">
        <ele>144</ele>
        <time>2014-05-30T15:57:53Z</time>
      </trkpt>
      <trkpt lat="44.37879" lon="4.18817">
        <ele>143</ele>
        <time>2014-05-30T15:57:58Z</time>
      </trkpt>
      <trkpt lat="44.3788" lon="4.18811">
        <ele>143</ele>
        <time>2014-05-30T15:58:11Z</time>
      </trkpt>
      <trkpt lat="44.37907" lon="4.18838">
        <ele>144</ele>
        <time>2014-05-30T15:58:25Z</time>
      </trkpt>
      <trkpt lat="44.37917" lon="4.18851">
        <ele>144</ele>
        <time>2014-05-30T15:58:30Z</time>
      </trkpt>
      <trkpt lat="44.37927" lon="4.18864">
        <ele>146</ele>
        <time>2014-05-30T15:58:34Z</time>
      </trkpt>
      <trkpt lat="44.37935" lon="4.18878">
        <ele>147</ele>
        <time>2014-05-30T15:58:38Z</time>
      </trkpt>
      <trkpt lat="44.37941" lon="4.18892">
        <ele>147</ele>
        <time>2014-05-30T15:58:43Z</time>
      </trkpt>
      <trkpt lat="44.37947" lon="4.18906">
        <ele>147</ele>
        <time>2014-05-30T15:58:47Z</time>
      </trkpt>
      <trkpt lat="44.37951" lon="4.18925">
        <ele>147</ele>
        <time>2014-05-30T15:58:52Z</time>
      </trkpt>
      <trkpt lat="44.37962" lon="4.18928">
        <ele>147</ele>
        <time>2014-05-30T15:58:57Z</time>
      </trkpt>
      <trkpt lat="44.37975" lon="4.18917">
        <ele>147</ele>
        <time>2014-05-30T15:59:03Z</time>
      </trkpt>
      <trkpt lat="44.37986" lon="4.18907">
        <ele>148</ele>
        <time>2014-05-30T15:59:09Z</time>
      </trkpt>
      <trkpt lat="44.38" lon="4.18899">
        <ele>148</ele>
        <time>2014-05-30T15:59:15Z</time>
      </trkpt>
      <trkpt lat="44.38011" lon="4.18889">
        <ele>151</ele>
        <time>2014-05-30T15:59:21Z</time>
      </trkpt>
      <trkpt lat="44.3802" lon="4.18876">
        <ele>151</ele>
        <time>2014-05-30T15:59:26Z</time>
      </trkpt>
      <trkpt lat="44.38025" lon="4.18861">
        <ele>151</ele>
        <time>2014-05-30T15:59:30Z</time>
      </trkpt>
      <trkpt lat="44.38027" lon="4.18845">
        <ele>151</ele>
        <time>2014-05-30T15:59:34Z</time>
      </trkpt>
      <trkpt lat="44.3803" lon="4.18828">
        <ele>152</ele>
        <time>2014-05-30T15:59:38Z</time>
      </trkpt>
      <trkpt lat="44.38035" lon="4.18813">
        <ele>152</ele>
        <time>2014-05-30T15:59:43Z</time>
      </trkpt>
      <trkpt lat="44.38039" lon="4.18798">
        <ele>153</ele>
        <time>2014-05-30T15:59:48Z</time>
      </trkpt>
      <trkpt lat="44.38043" lon="4.18784">
        <ele>153</ele>
        <time>2014-05-30T15:59:53Z</time>
      </trkpt>
      <trkpt lat="44.38047" lon="4.18769">
        <ele>153</ele>
        <time>2014-05-30T15:59:59Z</time>
      </trkpt>
      <trkpt lat="44.38051" lon="4.18755">
        <ele>154</ele>
        <time>2014-05-30T16:00:04Z</time>
      </trkpt>
      <trkpt lat="44.38055" lon="4.1874">
        <ele>155</ele>
        <time>2014-05-30T16:00:10Z</time>
      </trkpt>
      <trkpt lat="44.38058" lon="4.18725">
        <ele>155</ele>
        <time>2014-05-30T16:00:17Z</time>
      </trkpt>
      <trkpt lat="44.3806" lon="4.1871">
        <ele>155</ele>
        <time>2014-05-30T16:00:24Z</time>
      </trkpt>
      <trkpt lat="44.3806" lon="4.18693">
        <ele>155</ele>
        <time>2014-05-30T16:00:29Z</time>
      </trkpt>
      <trkpt lat="44.38056" lon="4.18677">
        <ele>155</ele>
        <time>2014-05-30T16:00:36Z</time>
      </trkpt>
      <trkpt lat="44.38051" lon="4.18666">
        <ele>156</ele>
        <time>2014-05-30T16:00:41Z</time>
      </trkpt>
      <trkpt lat="44.38046" lon="4.18649">
        <ele>156</ele>
        <time>2014-05-30T16:00:47Z</time>
      </trkpt>
      <trkpt lat="44.3804" lon="4.18635">
        <ele>156</ele>
        <time>2014-05-30T16:00:51Z</time>
      </trkpt>
      <trkpt lat="44.38031" lon="4.1862">
        <ele>156</ele>
        <time>2014-05-30T16:00:56Z</time>
      </trkpt>
      <trkpt lat="44.38025" lon="4.18607">
        <ele>156</ele>
        <time>2014-05-30T16:00:59Z</time>
      </trkpt>
      <trkpt lat="44.3802" lon="4.18591">
        <ele>155</ele>
        <time>2014-05-30T16:01:03Z</time>
      </trkpt>
      <trkpt lat="44.38028" lon="4.18579">
        <ele>157</ele>
        <time>2014-05-30T16:01:05Z</time>
      </trkpt>
      <trkpt lat="44.38008" lon="4.18544">
        <ele>157</ele>
        <time>2014-05-30T16:04:52Z</time>
      </trkpt>
      <trkpt lat="44.38002" lon="4.18528">
        <ele>157</ele>
        <time>2014-05-30T16:04:58Z</time>
      </trkpt>
      <trkpt lat="44.37998" lon="4.18513">
        <ele>154</ele>
        <time>2014-05-30T16:05:01Z</time>
      </trkpt>
      <trkpt lat="44.37992" lon="4.18498">
        <ele>155</ele>
        <time>2014-05-30T16:05:06Z</time>
      </trkpt>
      <trkpt lat="44.37985" lon="4.18485">
        <ele>155</ele>
        <time>2014-05-30T16:05:09Z</time>
      </trkpt>
      <trkpt lat="44.37978" lon="4.18469">
        <ele>154</ele>
        <time>2014-05-30T16:05:13Z</time>
      </trkpt>
      <trkpt lat="44.3797" lon="4.18453">
        <ele>154</ele>
        <time>2014-05-30T16:05:18Z</time>
      </trkpt>
      <trkpt lat="44.37962" lon="4.18438">
        <ele>154</ele>
        <time>2014-05-30T16:05:22Z</time>
      </trkpt>
      <trkpt lat="44.3795" lon="4.18427">
        <ele>153</ele>
        <time>2014-05-30T16:05:26Z</time>
      </trkpt>
      <trkpt lat="44.37935" lon="4.18426">
        <ele>152</ele>
        <time>2014-05-30T16:05:31Z</time>
      </trkpt>
      <trkpt lat="44.37917" lon="4.1843">
        <ele>152</ele>
        <time>2014-05-30T16:05:35Z</time>
      </trkpt>
      <trkpt lat="44.37901" lon="4.18434">
        <ele>149</ele>
        <time>2014-05-30T16:05:38Z</time>
      </trkpt>
      <trkpt lat="44.37885" lon="4.18436">
        <ele>148</ele>
        <time>2014-05-30T16:05:43Z</time>
      </trkpt>
      <trkpt lat="44.37874" lon="4.18437">
        <ele>148</ele>
        <time>2014-05-30T16:05:45Z</time>
      </trkpt>
      <trkpt lat="44.37907" lon="4.18431">
        <ele>149</ele>
        <time>2014-05-30T16:06:31Z</time>
      </trkpt>
      <trkpt lat="44.37922" lon="4.18427">
        <ele>152</ele>
        <time>2014-05-30T16:06:40Z</time>
      </trkpt>
      <trkpt lat="44.37938" lon="4.18425">
        <ele>153</ele>
        <time>2014-05-30T16:06:49Z</time>
      </trkpt>
      <trkpt lat="44.37952" lon="4.18425">
        <ele>153</ele>
        <time>2014-05-30T16:07:02Z</time>
      </trkpt>
      <trkpt lat="44.37946" lon="4.18403">
        <ele>153</ele>
        <time>2014-05-30T16:07:13Z</time>
      </trkpt>
      <trkpt lat="44.37937" lon="4.18391">
        <ele>153</ele>
        <time>2014-05-30T16:07:19Z</time>
      </trkpt>
      <trkpt lat="44.37928" lon="4.18377">
        <ele>153</ele>
        <time>2014-05-30T16:07:23Z</time>
      </trkpt>
      <trkpt lat="44.37924" lon="4.18364">
        <ele>153</ele>
        <time>2014-05-30T16:07:28Z</time>
      </trkpt>
      <trkpt lat="44.37918" lon="4.18347">
        <ele>152</ele>
        <time>2014-05-30T16:07:33Z</time>
      </trkpt>
      <trkpt lat="44.37914" lon="4.18333">
        <ele>151</ele>
        <time>2014-05-30T16:07:39Z</time>
      </trkpt>
      <trkpt lat="44.37908" lon="4.18318">
        <ele>150</ele>
        <time>2014-05-30T16:07:44Z</time>
      </trkpt>
      <trkpt lat="44.37903" lon="4.18303">
        <ele>150</ele>
        <time>2014-05-30T16:07:48Z</time>
      </trkpt>
      <trkpt lat="44.37897" lon="4.18289">
        <ele>150</ele>
        <time>2014-05-30T16:07:53Z</time>
      </trkpt>
      <trkpt lat="44.37892" lon="4.18275">
        <ele>150</ele>
        <time>2014-05-30T16:07:59Z</time>
      </trkpt>
      <trkpt lat="44.37886" lon="4.1826">
        <ele>150</ele>
        <time>2014-05-30T16:08:04Z</time>
      </trkpt>
      <trkpt lat="44.37878" lon="4.18244">
        <ele>151</ele>
        <time>2014-05-30T16:08:07Z</time>
      </trkpt>
      <trkpt lat="44.37869" lon="4.18229">
        <ele>151</ele>
        <time>2014-05-30T16:08:11Z</time>
      </trkpt>
      <trkpt lat="44.37864" lon="4.18212">
        <ele>151</ele>
        <time>2014-05-30T16:08:16Z</time>
      </trkpt>
      <trkpt lat="44.3786" lon="4.18195">
        <ele>151</ele>
        <time>2014-05-30T16:08:19Z</time>
      </trkpt>
      <trkpt lat="44.37857" lon="4.18181">
        <ele>151</ele>
        <time>2014-05-30T16:08:24Z</time>
      </trkpt>
      <trkpt lat="44.37852" lon="4.18165">
        <ele>152</ele>
        <time>2014-05-30T16:08:28Z</time>
      </trkpt>
      <trkpt lat="44.37848" lon="4.18151">
        <ele>152</ele>
        <time>2014-05-30T16:08:32Z</time>
      </trkpt>
      <trkpt lat="44.37844" lon="4.18136">
        <ele>153</ele>
        <time>2014-05-30T16:08:36Z</time>
      </trkpt>
      <trkpt lat="44.37841" lon="4.18121">
        <ele>153</ele>
        <time>2014-05-30T16:08:41Z</time>
      </trkpt>
      <trkpt lat="44.37837" lon="4.18103">
        <ele>153</ele>
        <time>2014-05-30T16:08:45Z</time>
      </trkpt>
      <trkpt lat="44.37834" lon="4.18089">
        <ele>153</ele>
        <time>2014-05-30T16:08:49Z</time>
      </trkpt>
      <trkpt lat="44.37831" lon="4.18074">
        <ele>153</ele>
        <time>2014-05-30T16:08:54Z</time>
      </trkpt>
      <trkpt lat="44.37827" lon="4.18059">
        <ele>153</ele>
        <time>2014-05-30T16:08:58Z</time>
      </trkpt>
      <trkpt lat="44.37824" lon="4.18043">
        <ele>153</ele>
        <time>2014-05-30T16:09:03Z</time>
      </trkpt>
      <trkpt lat="44.3782" lon="4.18027">
        <ele>154</ele>
        <time>2014-05-30T16:09:08Z</time>
      </trkpt>
      <trkpt lat="44.37814" lon="4.18009">
        <ele>154</ele>
        <time>2014-05-30T16:09:13Z</time>
      </trkpt>
      <trkpt lat="44.37806" lon="4.18">
        <ele>156</ele>
        <time>2014-05-30T16:09:19Z</time>
      </trkpt>
      <trkpt lat="44.37791" lon="4.17992">
        <ele>155</ele>
        <time>2014-05-30T16:09:25Z</time>
      </trkpt>
      <trkpt lat="44.37782" lon="4.17983">
        <ele>155</ele>
        <time>2014-05-30T16:09:30Z</time>
      </trkpt>
      <trkpt lat="44.37775" lon="4.17975">
        <ele>155</ele>
        <time>2014-05-30T16:09:52Z</time>
      </trkpt>
      <trkpt lat="44.37779" lon="4.17958">
        <ele>155</ele>
        <time>2014-05-30T16:10:37Z</time>
      </trkpt>
      <trkpt lat="44.37781" lon="4.17954">
        <ele>156</ele>
        <time>2014-05-30T16:11:08Z</time>
      </trkpt>
      <trkpt lat="44.3774" lon="4.17987">
        <ele>152</ele>
        <time>2014-05-30T16:12:34Z</time>
      </trkpt>
      <trkpt lat="44.37729" lon="4.18">
        <ele>151</ele>
        <time>2014-05-30T16:12:39Z</time>
      </trkpt>
      <trkpt lat="44.37716" lon="4.18009">
        <ele>150</ele>
        <time>2014-05-30T16:12:43Z</time>
      </trkpt>
      <trkpt lat="44.377" lon="4.1801">
        <ele>149</ele>
        <time>2014-05-30T16:12:47Z</time>
      </trkpt>
      <trkpt lat="44.37684" lon="4.18013">
        <ele>149</ele>
        <time>2014-05-30T16:12:50Z</time>
      </trkpt>
      <trkpt lat="44.3767" lon="4.18022">
        <ele>149</ele>
        <time>2014-05-30T16:12:54Z</time>
      </trkpt>
      <trkpt lat="44.37658" lon="4.18033">
        <ele>146</ele>
        <time>2014-05-30T16:12:58Z</time>
      </trkpt>
      <trkpt lat="44.37647" lon="4.18043">
        <ele>146</ele>
        <time>2014-05-30T16:13:02Z</time>
      </trkpt>
      <trkpt lat="44.37636" lon="4.18051">
        <ele>146</ele>
        <time>2014-05-30T16:13:09Z</time>
      </trkpt>
      <trkpt lat="44.37627" lon="4.18029">
        <ele>146</ele>
        <time>2014-05-30T16:13:16Z</time>
      </trkpt>
      <trkpt lat="44.37623" lon="4.18011">
        <ele>146</ele>
        <time>2014-05-30T16:13:20Z</time>
      </trkpt>
      <trkpt lat="44.37619" lon="4.17992">
        <ele>146</ele>
        <time>2014-05-30T16:13:23Z</time>
      </trkpt>
      <trkpt lat="44.37616" lon="4.17977">
        <ele>146</ele>
        <time>2014-05-30T16:13:26Z</time>
      </trkpt>
      <trkpt lat="44.37613" lon="4.17963">
        <ele>146</ele>
        <time>2014-05-30T16:13:29Z</time>
      </trkpt>
      <trkpt lat="44.3761" lon="4.17947">
        <ele>147</ele>
        <time>2014-05-30T16:13:32Z</time>
      </trkpt>
      <trkpt lat="44.37605" lon="4.17929">
        <ele>147</ele>
        <time>2014-05-30T16:13:36Z</time>
      </trkpt>
      <trkpt lat="44.37601" lon="4.17913">
        <ele>148</ele>
        <time>2014-05-30T16:13:41Z</time>
      </trkpt>
      <trkpt lat="44.37598" lon="4.17896">
        <ele>148</ele>
        <time>2014-05-30T16:13:45Z</time>
      </trkpt>
      <trkpt lat="44.37594" lon="4.17881">
        <ele>148</ele>
        <time>2014-05-30T16:13:48Z</time>
      </trkpt>
      <trkpt lat="44.37591" lon="4.17865">
        <ele>149</ele>
        <time>2014-05-30T16:13:53Z</time>
      </trkpt>
      <trkpt lat="44.37589" lon="4.1785">
        <ele>149</ele>
        <time>2014-05-30T16:13:57Z</time>
      </trkpt>
      <trkpt lat="44.37585" lon="4.17833">
        <ele>148</ele>
        <time>2014-05-30T16:14:01Z</time>
      </trkpt>
      <trkpt lat="44.37582" lon="4.17818">
        <ele>148</ele>
        <time>2014-05-30T16:14:06Z</time>
      </trkpt>
      <trkpt lat="44.37579" lon="4.178">
        <ele>148</ele>
        <time>2014-05-30T16:14:11Z</time>
      </trkpt>
      <trkpt lat="44.37575" lon="4.17785">
        <ele>148</ele>
        <time>2014-05-30T16:14:17Z</time>
      </trkpt>
      <trkpt lat="44.37572" lon="4.1777">
        <ele>149</ele>
        <time>2014-05-30T16:14:22Z</time>
      </trkpt>
      <trkpt lat="44.37572" lon="4.17755">
        <ele>150</ele>
        <time>2014-05-30T16:14:28Z</time>
      </trkpt>
      <trkpt lat="44.3757" lon="4.17739">
        <ele>150</ele>
        <time>2014-05-30T16:14:33Z</time>
      </trkpt>
      <trkpt lat="44.37533" lon="4.17753">
        <ele>148</ele>
        <time>2014-05-30T16:15:16Z</time>
      </trkpt>
      <trkpt lat="44.3752" lon="4.17752">
        <ele>147</ele>
        <time>2014-05-30T16:15:37Z</time>
      </trkpt>
      <trkpt lat="44.37545" lon="4.17743">
        <ele>150</ele>
        <time>2014-05-30T16:15:58Z</time>
      </trkpt>
      <trkpt lat="44.3756" lon="4.17739">
        <ele>150</ele>
        <time>2014-05-30T16:16:06Z</time>
      </trkpt>
      <trkpt lat="44.37571" lon="4.17729">
        <ele>150</ele>
        <time>2014-05-30T16:16:11Z</time>
      </trkpt>
      <trkpt lat="44.37573" lon="4.17713">
        <ele>150</ele>
        <time>2014-05-30T16:16:17Z</time>
      </trkpt>
      <trkpt lat="44.37576" lon="4.17698">
        <ele>151</ele>
        <time>2014-05-30T16:16:22Z</time>
      </trkpt>
      <trkpt lat="44.37577" lon="4.17682">
        <ele>151</ele>
        <time>2014-05-30T16:16:27Z</time>
      </trkpt>
      <trkpt lat="44.37576" lon="4.17665">
        <ele>152</ele>
        <time>2014-05-30T16:16:32Z</time>
      </trkpt>
      <trkpt lat="44.37573" lon="4.17647">
        <ele>152</ele>
        <time>2014-05-30T16:16:37Z</time>
      </trkpt>
      <trkpt lat="44.37569" lon="4.17633">
        <ele>152</ele>
        <time>2014-05-30T16:16:42Z</time>
      </trkpt>
      <trkpt lat="44.3756" lon="4.17618">
        <ele>151</ele>
        <time>2014-05-30T16:16:47Z</time>
      </trkpt>
      <trkpt lat="44.37552" lon="4.17606">
        <ele>151</ele>
        <time>2014-05-30T16:16:51Z</time>
      </trkpt>
      <trkpt lat="44.37544" lon="4.1759">
        <ele>151</ele>
        <time>2014-05-30T16:16:56Z</time>
      </trkpt>
      <trkpt lat="44.37537" lon="4.17574">
        <ele>152</ele>
        <time>2014-05-30T16:16:59Z</time>
      </trkpt>
      <trkpt lat="44.37531" lon="4.17559">
        <ele>151</ele>
        <time>2014-05-30T16:17:03Z</time>
      </trkpt>
      <trkpt lat="44.37526" lon="4.17545">
        <ele>152</ele>
        <time>2014-05-30T16:17:07Z</time>
      </trkpt>
      <trkpt lat="44.37527" lon="4.17529">
        <ele>152</ele>
        <time>2014-05-30T16:17:11Z</time>
      </trkpt>
      <trkpt lat="44.3753" lon="4.17513">
        <ele>152</ele>
        <time>2014-05-30T16:17:17Z</time>
      </trkpt>
      <trkpt lat="44.37532" lon="4.17511">
        <ele>152</ele>
        <time>2014-05-30T16:17:20Z</time>
      </trkpt>
      <trkpt lat="44.37532" lon="4.17557">
        <ele>152</ele>
        <time>2014-05-30T16:17:48Z</time>
      </trkpt>
      <trkpt lat="44.3754" lon="4.17574">
        <ele>152</ele>
        <time>2014-05-30T16:17:52Z</time>
      </trkpt>
      <trkpt lat="44.37549" lon="4.17591">
        <ele>151</ele>
        <time>2014-05-30T16:17:56Z</time>
      </trkpt>
      <trkpt lat="44.37559" lon="4.17607">
        <ele>152</ele>
        <time>2014-05-30T16:18:00Z</time>
      </trkpt>
      <trkpt lat="44.37572" lon="4.17616">
        <ele>152</ele>
        <time>2014-05-30T16:18:05Z</time>
      </trkpt>
      <trkpt lat="44.37587" lon="4.17616">
        <ele>155</ele>
        <time>2014-05-30T16:18:10Z</time>
      </trkpt>
      <trkpt lat="44.37603" lon="4.17616">
        <ele>155</ele>
        <time>2014-05-30T16:18:17Z</time>
      </trkpt>
      <trkpt lat="44.3762" lon="4.17618">
        <ele>155</ele>
        <time>2014-05-30T16:18:24Z</time>
      </trkpt>
      <trkpt lat="44.37635" lon="4.17618">
        <ele>156</ele>
        <time>2014-05-30T16:18:31Z</time>
      </trkpt>
      <trkpt lat="44.37649" lon="4.17619">
        <ele>156</ele>
        <time>2014-05-30T16:18:39Z</time>
      </trkpt>
      <trkpt lat="44.37662" lon="4.17628">
        <ele>156</ele>
        <time>2014-05-30T16:18:45Z</time>
      </trkpt>
      <trkpt lat="44.37675" lon="4.17639">
        <ele>160</ele>
        <time>2014-05-30T16:18:52Z</time>
      </trkpt>
      <trkpt lat="44.37687" lon="4.17649">
        <ele>160</ele>
        <time>2014-05-30T16:18:59Z</time>
      </trkpt>
      <trkpt lat="44.37699" lon="4.17656">
        <ele>160</ele>
        <time>2014-05-30T16:19:05Z</time>
      </trkpt>
      <trkpt lat="44.37712" lon="4.17663">
        <ele>161</ele>
        <time>2014-05-30T16:19:11Z</time>
      </trkpt>
      <trkpt lat="44.37728" lon="4.17664">
        <ele>161</ele>
        <time>2014-05-30T16:19:18Z</time>
      </trkpt>
      <trkpt lat="44.37743" lon="4.17665">
        <ele>162</ele>
        <time>2014-05-30T16:19:25Z</time>
      </trkpt>
      <trkpt lat="44.37758" lon="4.17668">
        <ele>163</ele>
        <time>2014-05-30T16:19:31Z</time>
      </trkpt>
      <trkpt lat="44.37774" lon="4.1767">
        <ele>164</ele>
        <time>2014-05-30T16:19:38Z</time>
      </trkpt>
      <trkpt lat="44.37791" lon="4.17666">
        <ele>164</ele>
        <time>2014-05-30T16:19:48Z</time>
      </trkpt>
      <trkpt lat="44.37793" lon="4.17671">
        <ele>164</ele>
        <time>2014-05-30T16:19:56Z</time>
      </trkpt>
      <trkpt lat="44.37778" lon="4.17672">
        <ele>164</ele>
        <time>2014-05-30T16:20:30Z</time>
      </trkpt>
      <trkpt lat="44.37765" lon="4.17668">
        <ele>163</ele>
        <time>2014-05-30T16:20:42Z</time>
      </trkpt>
      <trkpt lat="44.37727" lon="4.17677">
        <ele>161</ele>
        <time>2014-05-30T16:20:50Z</time>
      </trkpt>
      <trkpt lat="44.37711" lon="4.1768">
        <ele>160</ele>
        <time>2014-05-30T16:20:55Z</time>
      </trkpt>
      <trkpt lat="44.37698" lon="4.17674">
        <ele>160</ele>
        <time>2014-05-30T16:21:01Z</time>
      </trkpt>
      <trkpt lat="44.37685" lon="4.17663">
        <ele>159</ele>
        <time>2014-05-30T16:21:05Z</time>
      </trkpt>
      <trkpt lat="44.37672" lon="4.1765">
        <ele>159</ele>
        <time>2014-05-30T16:21:09Z</time>
      </trkpt>
      <trkpt lat="44.37662" lon="4.17639">
        <ele>157</ele>
        <time>2014-05-30T16:21:13Z</time>
      </trkpt>
      <trkpt lat="44.37649" lon="4.17629">
        <ele>156</ele>
        <time>2014-05-30T16:21:18Z</time>
      </trkpt>
      <trkpt lat="44.37635" lon="4.17624">
        <ele>156</ele>
        <time>2014-05-30T16:21:22Z</time>
      </trkpt>
      <trkpt lat="44.37618" lon="4.17626">
        <ele>155</ele>
        <time>2014-05-30T16:21:28Z</time>
      </trkpt>
      <trkpt lat="44.37603" lon="4.17626">
        <ele>155</ele>
        <time>2014-05-30T16:21:33Z</time>
      </trkpt>
      <trkpt lat="44.37594" lon="4.17616">
        <ele>155</ele>
        <time>2014-05-30T16:21:38Z</time>
      </trkpt>
      <trkpt lat="44.37592" lon="4.1761">
        <ele>155</ele>
        <time>2014-05-30T16:21:41Z</time>
      </trkpt>
      <trkpt lat="44.37553" lon="4.17615">
        <ele>151</ele>
        <time>2014-05-30T16:22:36Z</time>
      </trkpt>
      <trkpt lat="44.37545" lon="4.17603">
        <ele>151</ele>
        <time>2014-05-30T16:22:39Z</time>
      </trkpt>
      <trkpt lat="44.37539" lon="4.17585">
        <ele>151</ele>
        <time>2014-05-30T16:22:43Z</time>
      </trkpt>
      <trkpt lat="44.37532" lon="4.17568">
        <ele>151</ele>
        <time>2014-05-30T16:22:47Z</time>
      </trkpt>
      <trkpt lat="44.37526" lon="4.17551">
        <ele>151</ele>
        <time>2014-05-30T16:22:51Z</time>
      </trkpt>
      <trkpt lat="44.37525" lon="4.17534">
        <ele>152</ele>
        <time>2014-05-30T16:22:54Z</time>
      </trkpt>
      <trkpt lat="44.37528" lon="4.17519">
        <ele>152</ele>
        <time>2014-05-30T16:22:57Z</time>
      </trkpt>
      <trkpt lat="44.37533" lon="4.17506">
        <ele>152</ele>
        <time>2014-05-30T16:23:00Z</time>
      </trkpt>
      <trkpt lat="44.37542" lon="4.17492">
        <ele>152</ele>
        <time>2014-05-30T16:23:04Z</time>
      </trkpt>
      <trkpt lat="44.3755" lon="4.17478">
        <ele>152</ele>
        <time>2014-05-30T16:23:07Z</time>
      </trkpt>
      <trkpt lat="44.37559" lon="4.17465">
        <ele>152</ele>
        <time>2014-05-30T16:23:11Z</time>
      </trkpt>
      <trkpt lat="44.37568" lon="4.17449">
        <ele>152</ele>
        <time>2014-05-30T16:23:15Z</time>
      </trkpt>
      <trkpt lat="44.37574" lon="4.17435">
        <ele>153</ele>
        <time>2014-05-30T16:23:19Z</time>
      </trkpt>
      <trkpt lat="44.37581" lon="4.1742">
        <ele>154</ele>
        <time>2014-05-30T16:23:24Z</time>
      </trkpt>
      <trkpt lat="44.37588" lon="4.17406">
        <ele>155</ele>
        <time>2014-05-30T16:23:27Z</time>
      </trkpt>
      <trkpt lat="44.37595" lon="4.1739">
        <ele>157</ele>
        <time>2014-05-30T16:23:31Z</time>
      </trkpt>
      <trkpt lat="44.37602" lon="4.17375">
        <ele>157</ele>
        <time>2014-05-30T16:23:35Z</time>
      </trkpt>
      <trkpt lat="44.37608" lon="4.17361">
        <ele>157</ele>
        <time>2014-05-30T16:23:39Z</time>
      </trkpt>
      <trkpt lat="44.37614" lon="4.17348">
        <ele>158</ele>
        <time>2014-05-30T16:23:43Z</time>
      </trkpt>
      <trkpt lat="44.3762" lon="4.17332">
        <ele>159</ele>
        <time>2014-05-30T16:23:47Z</time>
      </trkpt>
      <trkpt lat="44.37625" lon="4.17314">
        <ele>160</ele>
        <time>2014-05-30T16:23:51Z</time>
      </trkpt>
      <trkpt lat="44.37628" lon="4.17298">
        <ele>160</ele>
        <time>2014-05-30T16:23:55Z</time>
      </trkpt>
      <trkpt lat="44.37632" lon="4.17282">
        <ele>161</ele>
        <time>2014-05-30T16:23:59Z</time>
      </trkpt>
      <trkpt lat="44.37636" lon="4.17265">
        <ele>162</ele>
        <time>2014-05-30T16:24:03Z</time>
      </trkpt>
      <trkpt lat="44.37642" lon="4.17245">
        <ele>163</ele>
        <time>2014-05-30T16:24:08Z</time>
      </trkpt>
      <trkpt lat="44.37648" lon="4.17229">
        <ele>163</ele>
        <time>2014-05-30T16:24:12Z</time>
      </trkpt>
      <trkpt lat="44.37653" lon="4.17213">
        <ele>163</ele>
        <time>2014-05-30T16:24:16Z</time>
      </trkpt>
      <trkpt lat="44.37658" lon="4.17198">
        <ele>163</ele>
        <time>2014-05-30T16:24:20Z</time>
      </trkpt>
      <trkpt lat="44.37664" lon="4.17182">
        <ele>164</ele>
        <time>2014-05-30T16:24:24Z</time>
      </trkpt>
      <trkpt lat="44.37672" lon="4.17166">
        <ele>165</ele>
        <time>2014-05-30T16:24:28Z</time>
      </trkpt>
      <trkpt lat="44.37679" lon="4.17149">
        <ele>165</ele>
        <time>2014-05-30T16:24:31Z</time>
      </trkpt>
      <trkpt lat="44.37685" lon="4.17132">
        <ele>165</ele>
        <time>2014-05-30T16:24:36Z</time>
      </trkpt>
      <trkpt lat="44.37692" lon="4.17114">
        <ele>165</ele>
        <time>2014-05-30T16:24:40Z</time>
      </trkpt>
      <trkpt lat="44.37699" lon="4.17101">
        <ele>165</ele>
        <time>2014-05-30T16:24:43Z</time>
      </trkpt>
      <trkpt lat="44.3771" lon="4.17088">
        <ele>165</ele>
        <time>2014-05-30T16:24:46Z</time>
      </trkpt>
      <trkpt lat="44.37722" lon="4.17075">
        <ele>165</ele>
        <time>2014-05-30T16:24:50Z</time>
      </trkpt>
      <trkpt lat="44.37737" lon="4.17069">
        <ele>165</ele>
        <time>2014-05-30T16:24:53Z</time>
      </trkpt>
      <trkpt lat="44.37753" lon="4.17066">
        <ele>166</ele>
        <time>2014-05-30T16:24:56Z</time>
      </trkpt>
      <trkpt lat="44.37768" lon="4.17061">
        <ele>167</ele>
        <time>2014-05-30T16:25:00Z</time>
      </trkpt>
      <trkpt lat="44.37782" lon="4.17067">
        <ele>168</ele>
        <time>2014-05-30T16:25:04Z</time>
      </trkpt>
      <trkpt lat="44.37792" lon="4.17081">
        <ele>168</ele>
        <time>2014-05-30T16:25:08Z</time>
      </trkpt>
      <trkpt lat="44.37799" lon="4.17094">
        <ele>168</ele>
        <time>2014-05-30T16:25:11Z</time>
      </trkpt>
      <trkpt lat="44.37806" lon="4.17107">
        <ele>168</ele>
        <time>2014-05-30T16:25:14Z</time>
      </trkpt>
      <trkpt lat="44.37814" lon="4.17124">
        <ele>168</ele>
        <time>2014-05-30T16:25:18Z</time>
      </trkpt>
      <trkpt lat="44.37819" lon="4.17141">
        <ele>168</ele>
        <time>2014-05-30T16:25:21Z</time>
      </trkpt>
      <trkpt lat="44.37823" lon="4.17153">
        <ele>168</ele>
        <time>2014-05-30T16:25:24Z</time>
      </trkpt>
      <trkpt lat="44.37826" lon="4.17173">
        <ele>168</ele>
        <time>2014-05-30T16:25:27Z</time>
      </trkpt>
      <trkpt lat="44.3783" lon="4.17189">
        <ele>168</ele>
        <time>2014-05-30T16:25:31Z</time>
      </trkpt>
      <trkpt lat="44.37833" lon="4.17204">
        <ele>168</ele>
        <time>2014-05-30T16:25:34Z</time>
      </trkpt>
      <trkpt lat="44.37835" lon="4.1722">
        <ele>171</ele>
        <time>2014-05-30T16:25:37Z</time>
      </trkpt>
      <trkpt lat="44.3784" lon="4.17234">
        <ele>171</ele>
        <time>2014-05-30T16:25:42Z</time>
      </trkpt>
      <trkpt lat="44.37852" lon="4.17253">
        <ele>172</ele>
        <time>2014-05-30T16:25:46Z</time>
      </trkpt>
      <trkpt lat="44.37862" lon="4.17263">
        <ele>172</ele>
        <time>2014-05-30T16:25:50Z</time>
      </trkpt>
      <trkpt lat="44.37877" lon="4.17267">
        <ele>173</ele>
        <time>2014-05-30T16:25:56Z</time>
      </trkpt>
      <trkpt lat="44.37895" lon="4.17265">
        <ele>174</ele>
        <time>2014-05-30T16:26:00Z</time>
      </trkpt>
      <trkpt lat="44.37912" lon="4.17264">
        <ele>175</ele>
        <time>2014-05-30T16:26:05Z</time>
      </trkpt>
      <trkpt lat="44.3793" lon="4.17262">
        <ele>178</ele>
        <time>2014-05-30T16:26:10Z</time>
      </trkpt>
      <trkpt lat="44.37944" lon="4.17257">
        <ele>178</ele>
        <time>2014-05-30T16:26:15Z</time>
      </trkpt>
      <trkpt lat="44.37952" lon="4.17246">
        <ele>178</ele>
        <time>2014-05-30T16:26:19Z</time>
      </trkpt>
      <trkpt lat="44.37955" lon="4.17231">
        <ele>178</ele>
        <time>2014-05-30T16:26:23Z</time>
      </trkpt>
      <trkpt lat="44.37964" lon="4.17219">
        <ele>178</ele>
        <time>2014-05-30T16:26:27Z</time>
      </trkpt>
      <trkpt lat="44.37986" lon="4.17214">
        <ele>179</ele>
        <time>2014-05-30T16:26:30Z</time>
      </trkpt>
      <trkpt lat="44.37999" lon="4.17204">
        <ele>179</ele>
        <time>2014-05-30T16:26:34Z</time>
      </trkpt>
      <trkpt lat="44.38012" lon="4.1719">
        <ele>181</ele>
        <time>2014-05-30T16:26:38Z</time>
      </trkpt>
      <trkpt lat="44.3802" lon="4.17176">
        <ele>181</ele>
        <time>2014-05-30T16:26:42Z</time>
      </trkpt>
      <trkpt lat="44.38022" lon="4.17159">
        <ele>182</ele>
        <time>2014-05-30T16:26:45Z</time>
      </trkpt>
      <trkpt lat="44.38024" lon="4.17141">
        <ele>183</ele>
        <time>2014-05-30T16:26:49Z</time>
      </trkpt>
      <trkpt lat="44.38028" lon="4.17123">
        <ele>183</ele>
        <time>2014-05-30T16:26:53Z</time>
      </trkpt>
      <trkpt lat="44.38031" lon="4.17104">
        <ele>183</ele>
        <time>2014-05-30T16:26:57Z</time>
      </trkpt>
      <trkpt lat="44.38033" lon="4.17086">
        <ele>183</ele>
        <time>2014-05-30T16:27:01Z</time>
      </trkpt>
      <trkpt lat="44.38037" lon="4.1707">
        <ele>185</ele>
        <time>2014-05-30T16:27:05Z</time>
      </trkpt>
      <trkpt lat="44.3804" lon="4.17054">
        <ele>186</ele>
        <time>2014-05-30T16:27:08Z</time>
      </trkpt>
      <trkpt lat="44.38044" lon="4.17036">
        <ele>186</ele>
        <time>2014-05-30T16:27:12Z</time>
      </trkpt>
      <trkpt lat="44.38047" lon="4.1702">
        <ele>186</ele>
        <time>2014-05-30T16:27:16Z</time>
      </trkpt>
      <trkpt lat="44.38051" lon="4.17002">
        <ele>186</ele>
        <time>2014-05-30T16:27:20Z</time>
      </trkpt>
      <trkpt lat="44.38054" lon="4.16985">
        <ele>188</ele>
        <time>2014-05-30T16:27:25Z</time>
      </trkpt>
      <trkpt lat="44.38058" lon="4.16968">
        <ele>188</ele>
        <time>2014-05-30T16:27:29Z</time>
      </trkpt>
      <trkpt lat="44.3806" lon="4.16953">
        <ele>189</ele>
        <time>2014-05-30T16:27:32Z</time>
      </trkpt>
      <trkpt lat="44.38065" lon="4.16938">
        <ele>189</ele>
        <time>2014-05-30T16:27:35Z</time>
      </trkpt>
      <trkpt lat="44.38069" lon="4.16921">
        <ele>189</ele>
        <time>2014-05-30T16:27:39Z</time>
      </trkpt>
      <trkpt lat="44.38074" lon="4.16905">
        <ele>191</ele>
        <time>2014-05-30T16:27:42Z</time>
      </trkpt>
      <trkpt lat="44.38077" lon="4.16889">
        <ele>192</ele>
        <time>2014-05-30T16:27:46Z</time>
      </trkpt>
      <trkpt lat="44.3808" lon="4.16876">
        <ele>192</ele>
        <time>2014-05-30T16:27:49Z</time>
      </trkpt>
      <trkpt lat="44.38083" lon="4.16861">
        <ele>193</ele>
        <time>2014-05-30T16:27:52Z</time>
      </trkpt>
      <trkpt lat="44.38086" lon="4.16845">
        <ele>193</ele>
        <time>2014-05-30T16:27:55Z</time>
      </trkpt>
      <trkpt lat="44.38089" lon="4.16831">
        <ele>195</ele>
        <time>2014-05-30T16:27:58Z</time>
      </trkpt>
      <trkpt lat="44.38091" lon="4.16816">
        <ele>195</ele>
        <time>2014-05-30T16:28:01Z</time>
      </trkpt>
      <trkpt lat="44.38095" lon="4.16801">
        <ele>196</ele>
        <time>2014-05-30T16:28:04Z</time>
      </trkpt>
      <trkpt lat="44.38103" lon="4.16783">
        <ele>197</ele>
        <time>2014-05-30T16:28:08Z</time>
      </trkpt>
      <trkpt lat="44.38111" lon="4.16766">
        <ele>197</ele>
        <time>2014-05-30T16:28:12Z</time>
      </trkpt>
      <trkpt lat="44.38118" lon="4.16751">
        <ele>197</ele>
        <time>2014-05-30T16:28:16Z</time>
      </trkpt>
      <trkpt lat="44.38125" lon="4.16735">
        <ele>199</ele>
        <time>2014-05-30T16:28:20Z</time>
      </trkpt>
      <trkpt lat="44.38131" lon="4.1672">
        <ele>199</ele>
        <time>2014-05-30T16:28:25Z</time>
      </trkpt>
      <trkpt lat="44.38142" lon="4.16707">
        <ele>199</ele>
        <time>2014-05-30T16:28:29Z</time>
      </trkpt>
      <trkpt lat="44.38155" lon="4.16694">
        <ele>200</ele>
        <time>2014-05-30T16:28:33Z</time>
      </trkpt>
      <trkpt lat="44.38167" lon="4.16682">
        <ele>202</ele>
        <time>2014-05-30T16:28:36Z</time>
      </trkpt>
      <trkpt lat="44.38177" lon="4.16672">
        <ele>202</ele>
        <time>2014-05-30T16:28:40Z</time>
      </trkpt>
      <trkpt lat="44.38187" lon="4.16661">
        <ele>203</ele>
        <time>2014-05-30T16:28:43Z</time>
      </trkpt>
      <trkpt lat="44.38198" lon="4.16648">
        <ele>203</ele>
        <time>2014-05-30T16:28:47Z</time>
      </trkpt>
      <trkpt lat="44.38211" lon="4.16638">
        <ele>203</ele>
        <time>2014-05-30T16:28:51Z</time>
      </trkpt>
      <trkpt lat="44.38222" lon="4.16628">
        <ele>203</ele>
        <time>2014-05-30T16:28:54Z</time>
      </trkpt>
      <trkpt lat="44.38234" lon="4.16617">
        <ele>204</ele>
        <time>2014-05-30T16:28:57Z</time>
      </trkpt>
      <trkpt lat="44.38245" lon="4.16605">
        <ele>204</ele>
        <time>2014-05-30T16:29:01Z</time>
      </trkpt>
      <trkpt lat="44.38258" lon="4.16594">
        <ele>204</ele>
        <time>2014-05-30T16:29:04Z</time>
      </trkpt>
      <trkpt lat="44.38268" lon="4.16578">
        <ele>203</ele>
        <time>2014-05-30T16:29:08Z</time>
      </trkpt>
      <trkpt lat="44.38277" lon="4.16566">
        <ele>202</ele>
        <time>2014-05-30T16:29:12Z</time>
      </trkpt>
      <trkpt lat="44.38287" lon="4.16552">
        <ele>202</ele>
        <time>2014-05-30T16:29:17Z</time>
      </trkpt>
      <trkpt lat="44.38302" lon="4.16544">
        <ele>202</ele>
        <time>2014-05-30T16:29:21Z</time>
      </trkpt>
      <trkpt lat="44.38312" lon="4.16532">
        <ele>202</ele>
        <time>2014-05-30T16:29:25Z</time>
      </trkpt>
      <trkpt lat="44.38328" lon="4.16529">
        <ele>202</ele>
        <time>2014-05-30T16:29:28Z</time>
      </trkpt>
      <trkpt lat="44.38344" lon="4.16518">
        <ele>202</ele>
        <time>2014-05-30T16:29:31Z</time>
      </trkpt>
      <trkpt lat="44.38356" lon="4.16507">
        <ele>203</ele>
        <time>2014-05-30T16:29:34Z</time>
      </trkpt>
      <trkpt lat="44.38366" lon="4.16492">
        <ele>202</ele>
        <time>2014-05-30T16:29:37Z</time>
      </trkpt>
      <trkpt lat="44.38378" lon="4.1648">
        <ele>202</ele>
        <time>2014-05-30T16:29:40Z</time>
      </trkpt>
      <trkpt lat="44.38383" lon="4.16465">
        <ele>202</ele>
        <time>2014-05-30T16:29:43Z</time>
      </trkpt>
      <trkpt lat="44.38386" lon="4.16448">
        <ele>202</ele>
        <time>2014-05-30T16:29:46Z</time>
      </trkpt>
      <trkpt lat="44.38393" lon="4.16433">
        <ele>202</ele>
        <time>2014-05-30T16:29:51Z</time>
      </trkpt>
      <trkpt lat="44.38404" lon="4.16433">
        <ele>202</ele>
        <time>2014-05-30T16:29:55Z</time>
      </trkpt>
      <trkpt lat="44.38408" lon="4.16437">
        <ele>202</ele>
        <time>2014-05-30T16:31:31Z</time>
      </trkpt>
      <trkpt lat="44.38437" lon="4.16417">
        <ele>203</ele>
        <time>2014-05-30T16:32:43Z</time>
      </trkpt>
      <trkpt lat="44.38448" lon="4.16419">
        <ele>204</ele>
        <time>2014-05-30T16:32:46Z</time>
      </trkpt>
      <trkpt lat="44.38456" lon="4.16423">
        <ele>204</ele>
        <time>2014-05-30T16:32:48Z</time>
      </trkpt>
      <trkpt lat="44.38463" lon="4.16402">
        <ele>203</ele>
        <time>2014-05-30T16:32:50Z</time>
      </trkpt>
      <trkpt lat="44.3846" lon="4.16402">
        <ele>203</ele>
        <time>2014-05-30T16:32:53Z</time>
      </trkpt>
      <trkpt lat="44.38476" lon="4.16395">
        <ele>203</ele>
        <time>2014-05-30T16:32:54Z</time>
      </trkpt>
      <trkpt lat="44.38485" lon="4.16397">
        <ele>203</ele>
        <time>2014-05-30T16:32:56Z</time>
      </trkpt>
      <trkpt lat="44.38491" lon="4.16376">
        <ele>203</ele>
        <time>2014-05-30T16:33:03Z</time>
      </trkpt>
      <trkpt lat="44.38503" lon="4.16367">
        <ele>204</ele>
        <time>2014-05-30T16:33:06Z</time>
      </trkpt>
      <trkpt lat="44.38508" lon="4.16354">
        <ele>204</ele>
        <time>2014-05-30T16:33:09Z</time>
      </trkpt>
      <trkpt lat="44.38522" lon="4.16358">
        <ele>204</ele>
        <time>2014-05-30T16:33:12Z</time>
      </trkpt>
      <trkpt lat="44.38534" lon="4.16324">
        <ele>206</ele>
        <time>2014-05-30T16:33:16Z</time>
      </trkpt>
      <trkpt lat="44.38566" lon="4.16318">
        <ele>207</ele>
        <time>2014-05-30T16:33:21Z</time>
      </trkpt>
      <trkpt lat="44.386" lon="4.16257">
        <ele>211</ele>
        <time>2014-05-30T16:33:26Z</time>
      </trkpt>
      <trkpt lat="44.38598" lon="4.16264">
        <ele>211</ele>
        <time>2014-05-30T16:33:51Z</time>
      </trkpt>
      <trkpt lat="44.38666" lon="4.16251">
        <ele>212</ele>
        <time>2014-05-30T16:33:56Z</time>
      </trkpt>
      <trkpt lat="44.38709" lon="4.16201">
        <ele>212</ele>
        <time>2014-05-30T16:34:00Z</time>
      </trkpt>
      <trkpt lat="44.38721" lon="4.16163">
        <ele>209</ele>
        <time>2014-05-30T16:34:04Z</time>
      </trkpt>
      <trkpt lat="44.38716" lon="4.16167">
        <ele>212</ele>
        <time>2014-05-30T16:34:09Z</time>
      </trkpt>
      <trkpt lat="44.38724" lon="4.16145">
        <ele>208</ele>
        <time>2014-05-30T16:34:12Z</time>
      </trkpt>
      <trkpt lat="44.38736" lon="4.16141">
        <ele>208</ele>
        <time>2014-05-30T16:34:17Z</time>
      </trkpt>
      <trkpt lat="44.38736" lon="4.16133">
        <ele>207</ele>
        <time>2014-05-30T16:34:22Z</time>
      </trkpt>
      <trkpt lat="44.38745" lon="4.1613">
        <ele>208</ele>
        <time>2014-05-30T16:34:26Z</time>
      </trkpt>
      <trkpt lat="44.38735" lon="4.16098">
        <ele>206</ele>
        <time>2014-05-30T16:34:29Z</time>
      </trkpt>
      <trkpt lat="44.3875" lon="4.16104">
        <ele>213</ele>
        <time>2014-05-30T16:34:33Z</time>
      </trkpt>
      <trkpt lat="44.38767" lon="4.16109">
        <ele>214</ele>
        <time>2014-05-30T16:34:39Z</time>
      </trkpt>
      <trkpt lat="44.38781" lon="4.16107">
        <ele>215</ele>
        <time>2014-05-30T16:34:44Z</time>
      </trkpt>
      <trkpt lat="44.38765" lon="4.1613">
        <ele>215</ele>
        <time>2014-05-30T16:34:50Z</time>
      </trkpt>
      <trkpt lat="44.38773" lon="4.16139">
        <ele>215</ele>
        <time>2014-05-30T16:34:55Z</time>
      </trkpt>
      <trkpt lat="44.38779" lon="4.16139">
        <ele>216</ele>
        <time>2014-05-30T16:34:59Z</time>
      </trkpt>
      <trkpt lat="44.38787" lon="4.16145">
        <ele>216</ele>
        <time>2014-05-30T16:35:03Z</time>
      </trkpt>
      <trkpt lat="44.38793" lon="4.1615">
        <ele>217</ele>
        <time>2014-05-30T16:35:07Z</time>
      </trkpt>
      <trkpt lat="44.3881" lon="4.1616">
        <ele>218</ele>
        <time>2014-05-30T16:35:11Z</time>
      </trkpt>
      <trkpt lat="44.38819" lon="4.16134">
        <ele>218</ele>
        <time>2014-05-30T16:35:15Z</time>
      </trkpt>
      <trkpt lat="44.38824" lon="4.16119">
        <ele>219</ele>
        <time>2014-05-30T16:35:19Z</time>
      </trkpt>
      <trkpt lat="44.38837" lon="4.16104">
        <ele>226</ele>
        <time>2014-05-30T16:35:23Z</time>
      </trkpt>
      <trkpt lat="44.3884" lon="4.16076">
        <ele>226</ele>
        <time>2014-05-30T16:35:27Z</time>
      </trkpt>
      <trkpt lat="44.38845" lon="4.16068">
        <ele>227</ele>
        <time>2014-05-30T16:35:31Z</time>
      </trkpt>
      <trkpt lat="44.3885" lon="4.16021">
        <ele>227</ele>
        <time>2014-05-30T16:35:34Z</time>
      </trkpt>
      <trkpt lat="44.38851" lon="4.1604">
        <ele>228</ele>
        <time>2014-05-30T16:35:40Z</time>
      </trkpt>
      <trkpt lat="44.3886" lon="4.16018">
        <ele>228</ele>
        <time>2014-05-30T16:35:44Z</time>
      </trkpt>
      <trkpt lat="44.38863" lon="4.16006">
        <ele>228</ele>
        <time>2014-05-30T16:35:49Z</time>
      </trkpt>
      <trkpt lat="44.38877" lon="4.15965">
        <ele>227</ele>
        <time>2014-05-30T16:35:52Z</time>
      </trkpt>
      <trkpt lat="44.38874" lon="4.15969">
        <ele>227</ele>
        <time>2014-05-30T16:35:58Z</time>
      </trkpt>
      <trkpt lat="44.38906" lon="4.15948">
        <ele>230</ele>
        <time>2014-05-30T16:36:03Z</time>
      </trkpt>
      <trkpt lat="44.38948" lon="4.1592">
        <ele>239</ele>
        <time>2014-05-30T16:36:08Z</time>
      </trkpt>
      <trkpt lat="44.38974" lon="4.15889">
        <ele>241</ele>
        <time>2014-05-30T16:36:13Z</time>
      </trkpt>
      <trkpt lat="44.39035" lon="4.15863">
        <ele>244</ele>
        <time>2014-05-30T16:36:17Z</time>
      </trkpt>
      <trkpt lat="44.39067" lon="4.1585">
        <ele>244</ele>
        <time>2014-05-30T16:36:20Z</time>
      </trkpt>
      <trkpt lat="44.39074" lon="4.15842">
        <ele>244</ele>
        <time>2014-05-30T16:36:42Z</time>
      </trkpt>
      <trkpt lat="44.39087" lon="4.15834">
        <ele>245</ele>
        <time>2014-05-30T16:36:46Z</time>
      </trkpt>
      <trkpt lat="44.39082" lon="4.15811">
        <ele>245</ele>
        <time>2014-05-30T16:36:49Z</time>
      </trkpt>
      <trkpt lat="44.39086" lon="4.15796">
        <ele>249</ele>
        <time>2014-05-30T16:36:52Z</time>
      </trkpt>
      <trkpt lat="44.39094" lon="4.15784">
        <ele>249</ele>
        <time>2014-05-30T16:36:56Z</time>
      </trkpt>
      <trkpt lat="44.391" lon="4.15771">
        <ele>249</ele>
        <time>2014-05-30T16:37:00Z</time>
      </trkpt>
      <trkpt lat="44.39107" lon="4.15757">
        <ele>250</ele>
        <time>2014-05-30T16:37:03Z</time>
      </trkpt>
      <trkpt lat="44.39112" lon="4.15741">
        <ele>252</ele>
        <time>2014-05-30T16:37:07Z</time>
      </trkpt>
      <trkpt lat="44.39117" lon="4.15725">
        <ele>253</ele>
        <time>2014-05-30T16:37:11Z</time>
      </trkpt>
      <trkpt lat="44.39124" lon="4.1571">
        <ele>254</ele>
        <time>2014-05-30T16:37:16Z</time>
      </trkpt>
      <trkpt lat="44.39128" lon="4.15692">
        <ele>255</ele>
        <time>2014-05-30T16:37:21Z</time>
      </trkpt>
      <trkpt lat="44.39132" lon="4.15675">
        <ele>255</ele>
        <time>2014-05-30T16:37:26Z</time>
      </trkpt>
      <trkpt lat="44.39137" lon="4.1566">
        <ele>258</ele>
        <time>2014-05-30T16:37:30Z</time>
      </trkpt>
      <trkpt lat="44.39147" lon="4.15648">
        <ele>258</ele>
        <time>2014-05-30T16:37:35Z</time>
      </trkpt>
      <trkpt lat="44.3916" lon="4.15641">
        <ele>258</ele>
        <time>2014-05-30T16:37:42Z</time>
      </trkpt>
      <trkpt lat="44.39171" lon="4.1563">
        <ele>259</ele>
        <time>2014-05-30T16:37:47Z</time>
      </trkpt>
      <trkpt lat="44.3918" lon="4.15618">
        <ele>259</ele>
        <time>2014-05-30T16:37:52Z</time>
      </trkpt>
      <trkpt lat="44.39186" lon="4.15603">
        <ele>259</ele>
        <time>2014-05-30T16:37:57Z</time>
      </trkpt>
      <trkpt lat="44.39191" lon="4.15587">
        <ele>260</ele>
        <time>2014-05-30T16:38:02Z</time>
      </trkpt>
      <trkpt lat="44.39197" lon="4.15571">
        <ele>260</ele>
        <time>2014-05-30T16:38:07Z</time>
      </trkpt>
      <trkpt lat="44.392" lon="4.15553">
        <ele>260</ele>
        <time>2014-05-30T16:38:11Z</time>
      </trkpt>
      <trkpt lat="44.392" lon="4.15534">
        <ele>260</ele>
        <time>2014-05-30T16:38:16Z</time>
      </trkpt>
      <trkpt lat="44.39199" lon="4.15518">
        <ele>261</ele>
        <time>2014-05-30T16:38:19Z</time>
      </trkpt>
      <trkpt lat="44.39198" lon="4.155">
        <ele>261</ele>
        <time>2014-05-30T16:38:23Z</time>
      </trkpt>
      <trkpt lat="44.39197" lon="4.15486">
        <ele>262</ele>
        <time>2014-05-30T16:38:26Z</time>
      </trkpt>
      <trkpt lat="44.39195" lon="4.1547">
        <ele>263</ele>
        <time>2014-05-30T16:38:29Z</time>
      </trkpt>
      <trkpt lat="44.39195" lon="4.15455">
        <ele>263</ele>
        <time>2014-05-30T16:38:31Z</time>
      </trkpt>
      <trkpt lat="44.39194" lon="4.1544">
        <ele>263</ele>
        <time>2014-05-30T16:38:33Z</time>
      </trkpt>
      <trkpt lat="44.39193" lon="4.15425">
        <ele>264</ele>
        <time>2014-05-30T16:38:35Z</time>
      </trkpt>
      <trkpt lat="44.39193" lon="4.1541">
        <ele>265</ele>
        <time>2014-05-30T16:38:37Z</time>
      </trkpt>
      <trkpt lat="44.39191" lon="4.15392">
        <ele>265</ele>
        <time>2014-05-30T16:38:39Z</time>
      </trkpt>
      <trkpt lat="44.3919" lon="4.15375">
        <ele>265</ele>
        <time>2014-05-30T16:38:42Z</time>
      </trkpt>
      <trkpt lat="44.39188" lon="4.15357">
        <ele>266</ele>
        <time>2014-05-30T16:38:45Z</time>
      </trkpt>
      <trkpt lat="44.39187" lon="4.1534">
        <ele>267</ele>
        <time>2014-05-30T16:38:48Z</time>
      </trkpt>
      <trkpt lat="44.39185" lon="4.15326">
        <ele>268</ele>
        <time>2014-05-30T16:38:50Z</time>
      </trkpt>
      <trkpt lat="44.39184" lon="4.15311">
        <ele>268</ele>
        <time>2014-05-30T16:38:53Z</time>
      </trkpt>
      <trkpt lat="44.39184" lon="4.15295">
        <ele>268</ele>
        <time>2014-05-30T16:38:56Z</time>
      </trkpt>
      <trkpt lat="44.39183" lon="4.15279">
        <ele>268</ele>
        <time>2014-05-30T16:38:59Z</time>
      </trkpt>
      <trkpt lat="44.39182" lon="4.15263">
        <ele>269</ele>
        <time>2014-05-30T16:39:03Z</time>
      </trkpt>
      <trkpt lat="44.39181" lon="4.15245">
        <ele>270</ele>
        <time>2014-05-30T16:39:06Z</time>
      </trkpt>
      <trkpt lat="44.39181" lon="4.15225">
        <ele>269</ele>
        <time>2014-05-30T16:39:09Z</time>
      </trkpt>
      <trkpt lat="44.39181" lon="4.15209">
        <ele>269</ele>
        <time>2014-05-30T16:39:11Z</time>
      </trkpt>
      <trkpt lat="44.39179" lon="4.15192">
        <ele>269</ele>
        <time>2014-05-30T16:39:15Z</time>
      </trkpt>
      <trkpt lat="44.39179" lon="4.15174">
        <ele>270</ele>
        <time>2014-05-30T16:39:17Z</time>
      </trkpt>
      <trkpt lat="44.39178" lon="4.15153">
        <ele>270</ele>
        <time>2014-05-30T16:39:21Z</time>
      </trkpt>
      <trkpt lat="44.39178" lon="4.15134">
        <ele>269</ele>
        <time>2014-05-30T16:39:24Z</time>
      </trkpt>
      <trkpt lat="44.39179" lon="4.15116">
        <ele>269</ele>
        <time>2014-05-30T16:39:27Z</time>
      </trkpt>
      <trkpt lat="44.39181" lon="4.151">
        <ele>269</ele>
        <time>2014-05-30T16:39:30Z</time>
      </trkpt>
      <trkpt lat="44.39183" lon="4.15081">
        <ele>269</ele>
        <time>2014-05-30T16:39:33Z</time>
      </trkpt>
      <trkpt lat="44.39185" lon="4.15063">
        <ele>269</ele>
        <time>2014-05-30T16:39:36Z</time>
      </trkpt>
      <trkpt lat="44.39192" lon="4.15046">
        <ele>269</ele>
        <time>2014-05-30T16:39:40Z</time>
      </trkpt>
      <trkpt lat="44.392" lon="4.15032">
        <ele>269</ele>
        <time>2014-05-30T16:39:43Z</time>
      </trkpt>
      <trkpt lat="44.39205" lon="4.15014">
        <ele>268</ele>
        <time>2014-05-30T16:39:47Z</time>
      </trkpt>
      <trkpt lat="44.39211" lon="4.14995">
        <ele>269</ele>
        <time>2014-05-30T16:39:49Z</time>
      </trkpt>
      <trkpt lat="44.39215" lon="4.14977">
        <ele>269</ele>
        <time>2014-05-30T16:39:53Z</time>
      </trkpt>
      <trkpt lat="44.39222" lon="4.14957">
        <ele>269</ele>
        <time>2014-05-30T16:39:55Z</time>
      </trkpt>
      <trkpt lat="44.39231" lon="4.14939">
        <ele>270</ele>
        <time>2014-05-30T16:39:59Z</time>
      </trkpt>
      <trkpt lat="44.3924" lon="4.14921">
        <ele>271</ele>
        <time>2014-05-30T16:40:01Z</time>
      </trkpt>
      <trkpt lat="44.39249" lon="4.14907">
        <ele>271</ele>
        <time>2014-05-30T16:40:05Z</time>
      </trkpt>
      <trkpt lat="44.3926" lon="4.14892">
        <ele>272</ele>
        <time>2014-05-30T16:40:07Z</time>
      </trkpt>
      <trkpt lat="44.39268" lon="4.14879">
        <ele>272</ele>
        <time>2014-05-30T16:40:11Z</time>
      </trkpt>
      <trkpt lat="44.39275" lon="4.14867">
        <ele>272</ele>
        <time>2014-05-30T16:40:14Z</time>
      </trkpt>
      <trkpt lat="44.39281" lon="4.14853">
        <ele>272</ele>
        <time>2014-05-30T16:40:17Z</time>
      </trkpt>
      <trkpt lat="44.39284" lon="4.14837">
        <ele>272</ele>
        <time>2014-05-30T16:40:20Z</time>
      </trkpt>
      <trkpt lat="44.39285" lon="4.14822">
        <ele>273</ele>
        <time>2014-05-30T16:40:23Z</time>
      </trkpt>
      <trkpt lat="44.39287" lon="4.14806">
        <ele>273</ele>
        <time>2014-05-30T16:40:26Z</time>
      </trkpt>
      <trkpt lat="44.39288" lon="4.14789">
        <ele>273</ele>
        <time>2014-05-30T16:40:30Z</time>
      </trkpt>
      <trkpt lat="44.39288" lon="4.14774">
        <ele>273</ele>
        <time>2014-05-30T16:40:33Z</time>
      </trkpt>
      <trkpt lat="44.39286" lon="4.14759">
        <ele>273</ele>
        <time>2014-05-30T16:40:36Z</time>
      </trkpt>
      <trkpt lat="44.39284" lon="4.14745">
        <ele>272</ele>
        <time>2014-05-30T16:40:39Z</time>
      </trkpt>
      <trkpt lat="44.3928" lon="4.14726">
        <ele>272</ele>
        <time>2014-05-30T16:40:42Z</time>
      </trkpt>
      <trkpt lat="44.39276" lon="4.14709">
        <ele>272</ele>
        <time>2014-05-30T16:40:45Z</time>
      </trkpt>
      <trkpt lat="44.3927" lon="4.14691">
        <ele>272</ele>
        <time>2014-05-30T16:40:49Z</time>
      </trkpt>
      <trkpt lat="44.39266" lon="4.14676">
        <ele>272</ele>
        <time>2014-05-30T16:40:51Z</time>
      </trkpt>
      <trkpt lat="44.3926" lon="4.14657">
        <ele>271</ele>
        <time>2014-05-30T16:40:55Z</time>
      </trkpt>
      <trkpt lat="44.39252" lon="4.14638">
        <ele>271</ele>
        <time>2014-05-30T16:40:58Z</time>
      </trkpt>
      <trkpt lat="44.39244" lon="4.14624">
        <ele>272</ele>
        <time>2014-05-30T16:41:01Z</time>
      </trkpt>
      <trkpt lat="44.39235" lon="4.1461">
        <ele>272</ele>
        <time>2014-05-30T16:41:04Z</time>
      </trkpt>
      <trkpt lat="44.39224" lon="4.14598">
        <ele>272</ele>
        <time>2014-05-30T16:41:08Z</time>
      </trkpt>
      <trkpt lat="44.39213" lon="4.14588">
        <ele>272</ele>
        <time>2014-05-30T16:41:11Z</time>
      </trkpt>
      <trkpt lat="44.39197" lon="4.14571">
        <ele>272</ele>
        <time>2014-05-30T16:41:14Z</time>
      </trkpt>
      <trkpt lat="44.39186" lon="4.14553">
        <ele>273</ele>
        <time>2014-05-30T16:41:17Z</time>
      </trkpt>
      <trkpt lat="44.39179" lon="4.14536">
        <ele>273</ele>
        <time>2014-05-30T16:41:19Z</time>
      </trkpt>
      <trkpt lat="44.39167" lon="4.1451">
        <ele>274</ele>
        <time>2014-05-30T16:41:22Z</time>
      </trkpt>
      <trkpt lat="44.39163" lon="4.14496">
        <ele>275</ele>
        <time>2014-05-30T16:41:23Z</time>
      </trkpt>
      <trkpt lat="44.39162" lon="4.14471">
        <ele>274</ele>
        <time>2014-05-30T16:41:26Z</time>
      </trkpt>
      <trkpt lat="44.39165" lon="4.14453">
        <ele>274</ele>
        <time>2014-05-30T16:41:29Z</time>
      </trkpt>
      <trkpt lat="44.39168" lon="4.14434">
        <ele>274</ele>
        <time>2014-05-30T16:41:32Z</time>
      </trkpt>
      <trkpt lat="44.3917" lon="4.14417">
        <ele>276</ele>
        <time>2014-05-30T16:41:35Z</time>
      </trkpt>
      <trkpt lat="44.39174" lon="4.14397">
        <ele>275</ele>
        <time>2014-05-30T16:41:38Z</time>
      </trkpt>
      <trkpt lat="44.39174" lon="4.14377">
        <ele>275</ele>
        <time>2014-05-30T16:41:41Z</time>
      </trkpt>
      <trkpt lat="44.39176" lon="4.14354">
        <ele>276</ele>
        <time>2014-05-30T16:41:44Z</time>
      </trkpt>
      <trkpt lat="44.39179" lon="4.14339">
        <ele>276</ele>
        <time>2014-05-30T16:41:47Z</time>
      </trkpt>
      <trkpt lat="44.39182" lon="4.1432">
        <ele>277</ele>
        <time>2014-05-30T16:41:49Z</time>
      </trkpt>
      <trkpt lat="44.39184" lon="4.14304">
        <ele>277</ele>
        <time>2014-05-30T16:41:53Z</time>
      </trkpt>
      <trkpt lat="44.39187" lon="4.14286">
        <ele>278</ele>
        <time>2014-05-30T16:41:56Z</time>
      </trkpt>
      <trkpt lat="44.39189" lon="4.14273">
        <ele>278</ele>
        <time>2014-05-30T16:41:59Z</time>
      </trkpt>
      <trkpt lat="44.39191" lon="4.14257">
        <ele>278</ele>
        <time>2014-05-30T16:42:05Z</time>
      </trkpt>
      <trkpt lat="44.3919" lon="4.14243">
        <ele>279</ele>
        <time>2014-05-30T16:42:11Z</time>
      </trkpt>
      <trkpt lat="44.39188" lon="4.14223">
        <ele>279</ele>
        <time>2014-05-30T16:42:15Z</time>
      </trkpt>
      <trkpt lat="44.39186" lon="4.14205">
        <ele>280</ele>
        <time>2014-05-30T16:42:19Z</time>
      </trkpt>
      <trkpt lat="44.39184" lon="4.14188">
        <ele>280</ele>
        <time>2014-05-30T16:42:24Z</time>
      </trkpt>
      <trkpt lat="44.39182" lon="4.14171">
        <ele>281</ele>
        <time>2014-05-30T16:42:27Z</time>
      </trkpt>
      <trkpt lat="44.39178" lon="4.14156">
        <ele>282</ele>
        <time>2014-05-30T16:42:30Z</time>
      </trkpt>
      <trkpt lat="44.39176" lon="4.14139">
        <ele>281</ele>
        <time>2014-05-30T16:42:34Z</time>
      </trkpt>
      <trkpt lat="44.39174" lon="4.14121">
        <ele>281</ele>
        <time>2014-05-30T16:42:38Z</time>
      </trkpt>
      <trkpt lat="44.39171" lon="4.14104">
        <ele>282</ele>
        <time>2014-05-30T16:42:40Z</time>
      </trkpt>
      <trkpt lat="44.39186" lon="4.14051">
        <ele>282</ele>
        <time>2014-05-30T16:43:54Z</time>
      </trkpt>
      <trkpt lat="44.39187" lon="4.14043">
        <ele>283</ele>
        <time>2014-05-30T16:43:59Z</time>
      </trkpt>
      <trkpt lat="44.39187" lon="4.14031">
        <ele>283</ele>
        <time>2014-05-30T16:44:05Z</time>
      </trkpt>
      <trkpt lat="44.39193" lon="4.14023">
        <ele>283</ele>
        <time>2014-05-30T16:44:10Z</time>
      </trkpt>
      <trkpt lat="44.39198" lon="4.1401">
        <ele>283</ele>
        <time>2014-05-30T16:44:19Z</time>
      </trkpt>
      <trkpt lat="44.39206" lon="4.14001">
        <ele>282</ele>
        <time>2014-05-30T16:44:26Z</time>
      </trkpt>
      <trkpt lat="44.39208" lon="4.13997">
        <ele>283</ele>
        <time>2014-05-30T16:44:32Z</time>
      </trkpt>
      <trkpt lat="44.39214" lon="4.1398">
        <ele>283</ele>
        <time>2014-05-30T16:44:37Z</time>
      </trkpt>
      <trkpt lat="44.39228" lon="4.13962">
        <ele>283</ele>
        <time>2014-05-30T16:44:45Z</time>
      </trkpt>
      <trkpt lat="44.39239" lon="4.13945">
        <ele>283</ele>
        <time>2014-05-30T16:44:52Z</time>
      </trkpt>
      <trkpt lat="44.39251" lon="4.13922">
        <ele>282</ele>
        <time>2014-05-30T16:44:57Z</time>
      </trkpt>
      <trkpt lat="44.39268" lon="4.13902">
        <ele>280</ele>
        <time>2014-05-30T16:45:01Z</time>
      </trkpt>
      <trkpt lat="44.3927" lon="4.13906">
        <ele>280</ele>
        <time>2014-05-30T16:45:04Z</time>
      </trkpt>
      <trkpt lat="44.39279" lon="4.13876">
        <ele>280</ele>
        <time>2014-05-30T16:45:06Z</time>
      </trkpt>
      <trkpt lat="44.39292" lon="4.13872">
        <ele>279</ele>
        <time>2014-05-30T16:45:08Z</time>
      </trkpt>
      <trkpt lat="44.39288" lon="4.1386">
        <ele>280</ele>
        <time>2014-05-30T16:45:10Z</time>
      </trkpt>
      <trkpt lat="44.393" lon="4.13872">
        <ele>279</ele>
        <time>2014-05-30T16:45:13Z</time>
      </trkpt>
      <trkpt lat="44.3931" lon="4.13883">
        <ele>279</ele>
        <time>2014-05-30T16:45:14Z</time>
      </trkpt>
      <trkpt lat="44.39294" lon="4.13872">
        <ele>279</ele>
        <time>2014-05-30T16:45:17Z</time>
      </trkpt>
      <trkpt lat="44.39299" lon="4.13872">
        <ele>279</ele>
        <time>2014-05-30T16:45:18Z</time>
      </trkpt>
      <trkpt lat="44.39303" lon="4.13871">
        <ele>279</ele>
        <time>2014-05-30T16:45:20Z</time>
      </trkpt>
      <trkpt lat="44.39304" lon="4.13875">
        <ele>279</ele>
        <time>2014-05-30T16:45:22Z</time>
      </trkpt>
      <trkpt lat="44.39297" lon="4.13873">
        <ele>279</ele>
        <time>2014-05-30T16:45:24Z</time>
      </trkpt>
      <trkpt lat="44.39298" lon="4.13879">
        <ele>279</ele>
        <time>2014-05-30T16:45:26Z</time>
      </trkpt>
      <trkpt lat="44.39299" lon="4.13871">
        <ele>279</ele>
        <time>2014-05-30T16:45:29Z</time>
      </trkpt>
      <trkpt lat="44.39303" lon="4.13869">
        <ele>279</ele>
        <time>2014-05-30T16:45:30Z</time>
      </trkpt>
      <trkpt lat="44.39305" lon="4.13856">
        <ele>279</ele>
        <time>2014-05-30T16:45:32Z</time>
      </trkpt>
      <trkpt lat="44.39317" lon="4.1386">
        <ele>279</ele>
        <time>2014-05-30T16:45:34Z</time>
      </trkpt>
      <trkpt lat="44.39323" lon="4.13855">
        <ele>278</ele>
        <time>2014-05-30T16:45:37Z</time>
      </trkpt>
      <trkpt lat="44.39335" lon="4.13843">
        <ele>277</ele>
        <time>2014-05-30T16:45:38Z</time>
      </trkpt>
      <trkpt lat="44.39338" lon="4.13828">
        <ele>277</ele>
        <time>2014-05-30T16:45:40Z</time>
      </trkpt>
      <trkpt lat="44.39348" lon="4.13817">
        <ele>277</ele>
        <time>2014-05-30T16:45:43Z</time>
      </trkpt>
      <trkpt lat="44.39345" lon="4.1382">
        <ele>277</ele>
        <time>2014-05-30T16:47:25Z</time>
      </trkpt>
      <trkpt lat="44.39355" lon="4.13792">
        <ele>278</ele>
        <time>2014-05-30T16:47:26Z</time>
      </trkpt>
      <trkpt lat="44.39368" lon="4.13803">
        <ele>278</ele>
        <time>2014-05-30T16:47:30Z</time>
      </trkpt>
      <trkpt lat="44.39377" lon="4.13771">
        <ele>278</ele>
        <time>2014-05-30T16:47:36Z</time>
      </trkpt>
      <trkpt lat="44.39381" lon="4.1376">
        <ele>278</ele>
        <time>2014-05-30T16:47:42Z</time>
      </trkpt>
      <trkpt lat="44.39392" lon="4.13739">
        <ele>279</ele>
        <time>2014-05-30T16:47:50Z</time>
      </trkpt>
      <trkpt lat="44.39391" lon="4.13747">
        <ele>279</ele>
        <time>2014-05-30T16:47:56Z</time>
      </trkpt>
      <trkpt lat="44.39409" lon="4.13734">
        <ele>279</ele>
        <time>2014-05-30T16:48:00Z</time>
      </trkpt>
      <trkpt lat="44.39432" lon="4.13738">
        <ele>280</ele>
        <time>2014-05-30T16:48:05Z</time>
      </trkpt>
      <trkpt lat="44.39454" lon="4.13723">
        <ele>280</ele>
        <time>2014-05-30T16:48:11Z</time>
      </trkpt>
      <trkpt lat="44.3949" lon="4.137">
        <ele>280</ele>
        <time>2014-05-30T16:48:16Z</time>
      </trkpt>
      <trkpt lat="44.39498" lon="4.13663">
        <ele>279</ele>
        <time>2014-05-30T16:48:21Z</time>
      </trkpt>
      <trkpt lat="44.39518" lon="4.13646">
        <ele>280</ele>
        <time>2014-05-30T16:48:28Z</time>
      </trkpt>
      <trkpt lat="44.39501" lon="4.13661">
        <ele>279</ele>
        <time>2014-05-30T16:48:35Z</time>
      </trkpt>
      <trkpt lat="44.39541" lon="4.1362">
        <ele>281</ele>
        <time>2014-05-30T16:48:43Z</time>
      </trkpt>
      <trkpt lat="44.39603" lon="4.13554">
        <ele>282</ele>
      </trkpt>
      <trkpt lat="44.39604" lon="4.13549">
        <ele>282</ele>
      </trkpt>
      <trkpt lat="44.39637" lon="4.13523">
        <ele>283</ele>
      </trkpt>
      <trkpt lat="44.39694" lon="4.13504">
        <ele>286</ele>
      </trkpt>
      <trkpt lat="44.39751" lon="4.13486">
        <ele>289</ele>
      </trkpt>
      <trkpt lat="44.39805" lon="4.13458">
        <ele>289</ele>
      </trkpt>
      <trkpt lat="44.39889" lon="4.13443">
        <ele>291</ele>
      </trkpt>
      <trkpt lat="44.39926" lon="4.13419">
        <ele>288</ele>
      </trkpt>
      <trkpt lat="44.39924" lon="4.13383">
        <ele>279</ele>
      </trkpt>
      <trkpt lat="44.39916" lon="4.13329">
        <ele>284</ele>
      </trkpt>
      <trkpt lat="44.39927" lon="4.13224">
        <ele>280</ele>
      </trkpt>
      <trkpt lat="44.39939" lon="4.13136">
        <ele>288</ele>
      </trkpt>
      <trkpt lat="44.39993" lon="4.13095">
        <ele>288</ele>
      </trkpt>
      <trkpt lat="44.4002" lon="4.1308">
        <ele>292</ele>
      </trkpt>
      <trkpt lat="44.40063" lon="4.13082">
        <ele>286</ele>
      </trkpt>
      <trkpt lat="44.40114" lon="4.13082">
        <ele>280</ele>
      </trkpt>
      <trkpt lat="44.40165" lon="4.13088">
        <ele>266</ele>
      </trkpt>
      <trkpt lat="44.40198" lon="4.13049">
        <ele>260</ele>
      </trkpt>
      <trkpt lat="44.40198" lon="4.12974">
        <ele>262</ele>
      </trkpt>
      <trkpt lat="44.40158" lon="4.12867">
        <ele>279</ele>
      </trkpt>
      <trkpt lat="44.4014" lon="4.12803">
        <ele>278</ele>
      </trkpt>
      <trkpt lat="44.40181" lon="4.12753">
        <ele>255</ele>
      </trkpt>
      <trkpt lat="44.40183" lon="4.12674">
        <ele>252</ele>
      </trkpt>
      <trkpt lat="44.40161" lon="4.12612">
        <ele>261</ele>
      </trkpt>
      <trkpt lat="44.40135" lon="4.12564">
        <ele>245</ele>
      </trkpt>
      <trkpt lat="44.40081" lon="4.12515">
        <ele>253</ele>
      </trkpt>
      <trkpt lat="44.401" lon="4.12513">
        <ele>242</ele>
      </trkpt>
      <trkpt lat="44.40156" lon="4.1253">
        <ele>236</ele>
      </trkpt>
      <trkpt lat="44.40204" lon="4.12566">
        <ele>220</ele>
      </trkpt>
      <trkpt lat="44.40232" lon="4.1262">
        <ele>228</ele>
      </trkpt>
      <trkpt lat="44.40236" lon="4.12667">
        <ele>230</ele>
      </trkpt>
      <trkpt lat="44.40252" lon="4.1274">
        <ele>220</ele>
      </trkpt>
      <trkpt lat="44.40236" lon="4.12779">
        <ele>237</ele>
      </trkpt>
      <trkpt lat="44.40226" lon="4.12828">
        <ele>237</ele>
      </trkpt>
      <trkpt lat="44.40244" lon="4.12839">
        <ele>230</ele>
      </trkpt>
      <trkpt lat="44.40261" lon="4.12869">
        <ele>218</ele>
      </trkpt>
      <trkpt lat="44.40289" lon="4.12914">
        <ele>216</ele>
      </trkpt>
      <trkpt lat="44.40304" lon="4.12956">
        <ele>218</ele>
      </trkpt>
      <trkpt lat="44.40309" lon="4.12995">
        <ele>216</ele>
      </trkpt>
      <trkpt lat="44.40315" lon="4.13046">
        <ele>220</ele>
      </trkpt>
      <trkpt lat="44.40329" lon="4.13104">
        <ele>214</ele>
      </trkpt>
      <trkpt lat="44.4032" lon="4.13147">
        <ele>211</ele>
      </trkpt>
      <trkpt lat="44.40291" lon="4.13214">
        <ele>205</ele>
      </trkpt>
      <trkpt lat="44.40257" lon="4.1325">
        <ele>200</ele>
      </trkpt>
      <trkpt lat="44.40246" lon="4.13304">
        <ele>196</ele>
      </trkpt>
      <trkpt lat="44.40268" lon="4.13321">
        <ele>191</ele>
      </trkpt>
      <trkpt lat="44.403" lon="4.13317">
        <ele>190</ele>
      </trkpt>
      <trkpt lat="44.40349" lon="4.13293">
        <ele>187</ele>
      </trkpt>
      <trkpt lat="44.40401" lon="4.13278">
        <ele>186</ele>
      </trkpt>
      <trkpt lat="44.40381" lon="4.13317">
        <ele>186</ele>
      </trkpt>
      <trkpt lat="44.40396" lon="4.13327">
        <ele>185</ele>
      </trkpt>
      <trkpt lat="44.40406" lon="4.13342">
        <ele>184</ele>
      </trkpt>
      <trkpt lat="44.40524" lon="4.13267">
        <ele>177</ele>
        <time>2014-05-30T16:58:03Z</time>
      </trkpt>
    </trkseg>
  </trk>
</gpx>